<?xml version='1.0' encoding='UTF-8'?>
<gpx version="1.1" creator="https://www.komoot.de" xmlns="http://www.topografix.com/GPX/1/1" xmlns:xsi="http://www.w3.org/2001/XMLSchema-instance" xsi:schemaLocation="http://www.topografix.com/GPX/1/1 http://www.topografix.com/GPX/1/1/gpx.xsd">
  <metadata>
    <name>93_1250SteinenKaesacker</name>
    <author>
      <link href="https://www.komoot.de">
        <text>komoot</text>
        <type>text/html</type>
      </link>
    </author>
  </metadata>
  <trk>
    <name>93_1250SteinenKaesacker</name>
    <trkseg>
      <trkpt lat="47.541445" lon="7.870764">
        <ele>339.089722</ele>
        <time>2021-11-22T11:42:24.605Z</time>
      </trkpt>
      <trkpt lat="47.541576" lon="7.870664">
        <ele>339.089722</ele>
        <time>2021-11-22T11:42:26.532Z</time>
      </trkpt>
      <trkpt lat="47.541550" lon="7.870601">
        <ele>339.089722</ele>
        <time>2021-11-22T11:42:27.342Z</time>
      </trkpt>
      <trkpt lat="47.541521" lon="7.870517">
        <ele>339.089722</ele>
        <time>2021-11-22T11:42:28.399Z</time>
      </trkpt>
      <trkpt lat="47.541606" lon="7.870424">
        <ele>339.089722</ele>
        <time>2021-11-22T11:42:30.133Z</time>
      </trkpt>
      <trkpt lat="47.541910" lon="7.870106">
        <ele>339.089722</ele>
        <time>2021-11-22T11:42:35.972Z</time>
      </trkpt>
      <trkpt lat="47.542014" lon="7.870126">
        <ele>339.089722</ele>
        <time>2021-11-22T11:42:37.485Z</time>
      </trkpt>
      <trkpt lat="47.542118" lon="7.870135">
        <ele>339.040927</ele>
        <time>2021-11-22T11:42:39.238Z</time>
      </trkpt>
      <trkpt lat="47.542181" lon="7.870131">
        <ele>338.977431</ele>
        <time>2021-11-22T11:42:40.126Z</time>
      </trkpt>
      <trkpt lat="47.542317" lon="7.870012">
        <ele>338.818383</ele>
        <time>2021-11-22T11:42:42.318Z</time>
      </trkpt>
      <trkpt lat="47.542348" lon="7.869983">
        <ele>338.781464</ele>
        <time>2021-11-22T11:42:42.764Z</time>
      </trkpt>
      <trkpt lat="47.542329" lon="7.869820">
        <ele>338.669029</ele>
        <time>2021-11-22T11:42:44.559Z</time>
      </trkpt>
      <trkpt lat="47.542372" lon="7.869746">
        <ele>338.602660</ele>
        <time>2021-11-22T11:42:45.384Z</time>
      </trkpt>
      <trkpt lat="47.542657" lon="7.869354">
        <ele>338.211056</ele>
        <time>2021-11-22T11:42:50.242Z</time>
      </trkpt>
      <trkpt lat="47.542696" lon="7.869257">
        <ele>338.134313</ele>
        <time>2021-11-22T11:42:51.178Z</time>
      </trkpt>
      <trkpt lat="47.542722" lon="7.869201">
        <ele>338.088115</ele>
        <time>2021-11-22T11:42:51.769Z</time>
      </trkpt>
      <trkpt lat="47.543049" lon="7.868759">
        <ele>337.642378</ele>
        <time>2021-11-22T11:42:56.682Z</time>
      </trkpt>
      <trkpt lat="47.543105" lon="7.868711">
        <ele>337.577231</ele>
        <time>2021-11-22T11:42:57.420Z</time>
      </trkpt>
      <trkpt lat="47.543201" lon="7.868657">
        <ele>337.473831</ele>
        <time>2021-11-22T11:42:58.499Z</time>
      </trkpt>
      <trkpt lat="47.543657" lon="7.868359">
        <ele>336.900890</ele>
        <time>2021-11-22T11:43:04.294Z</time>
      </trkpt>
      <trkpt lat="47.543801" lon="7.868269">
        <ele>336.707031</ele>
        <time>2021-11-22T11:43:06.773Z</time>
      </trkpt>
      <trkpt lat="47.544214" lon="7.867988">
        <ele>336.143311</ele>
        <time>2021-11-22T11:43:14.390Z</time>
      </trkpt>
      <trkpt lat="47.544246" lon="7.867967">
        <ele>336.099899</ele>
        <time>2021-11-22T11:43:14.987Z</time>
      </trkpt>
      <trkpt lat="47.544410" lon="7.867825">
        <ele>335.864280</ele>
        <time>2021-11-22T11:43:18.240Z</time>
      </trkpt>
      <trkpt lat="47.544469" lon="7.867776">
        <ele>335.780383</ele>
        <time>2021-11-22T11:43:19.262Z</time>
      </trkpt>
      <trkpt lat="47.544568" lon="7.867693">
        <ele>335.639285</ele>
        <time>2021-11-22T11:43:21.189Z</time>
      </trkpt>
      <trkpt lat="47.545003" lon="7.867278">
        <ele>335.075466</ele>
        <time>2021-11-22T11:43:30.037Z</time>
      </trkpt>
      <trkpt lat="47.545160" lon="7.866985">
        <ele>335.249703</ele>
        <time>2021-11-22T11:43:34.687Z</time>
      </trkpt>
      <trkpt lat="47.545240" lon="7.866887">
        <ele>335.321330</ele>
        <time>2021-11-22T11:43:36.961Z</time>
      </trkpt>
      <trkpt lat="47.546096" lon="7.866147">
        <ele>336.005175</ele>
        <time>2021-11-22T11:44:02.031Z</time>
      </trkpt>
      <trkpt lat="47.546327" lon="7.865959">
        <ele>336.187032</ele>
        <time>2021-11-22T11:44:08.452Z</time>
      </trkpt>
      <trkpt lat="47.546510" lon="7.865766">
        <ele>336.291178</ele>
        <time>2021-11-22T11:44:14.838Z</time>
      </trkpt>
      <trkpt lat="47.546819" lon="7.865489">
        <ele>336.302892</ele>
        <time>2021-11-22T11:44:22.991Z</time>
      </trkpt>
      <trkpt lat="47.546889" lon="7.865225">
        <ele>336.309102</ele>
        <time>2021-11-22T11:44:26.778Z</time>
      </trkpt>
      <trkpt lat="47.546894" lon="7.864837">
        <ele>336.317598</ele>
        <time>2021-11-22T11:44:31.955Z</time>
      </trkpt>
      <trkpt lat="47.546885" lon="7.864500">
        <ele>336.324982</ele>
        <time>2021-11-22T11:44:37.594Z</time>
      </trkpt>
      <trkpt lat="47.546974" lon="7.864423">
        <ele>336.328325</ele>
        <time>2021-11-22T11:44:39.182Z</time>
      </trkpt>
      <trkpt lat="47.547320" lon="7.863864">
        <ele>336.344930</ele>
        <time>2021-11-22T11:44:49.107Z</time>
      </trkpt>
      <trkpt lat="47.547568" lon="7.863151">
        <ele>335.575598</ele>
        <time>2021-11-22T11:44:58.120Z</time>
      </trkpt>
      <trkpt lat="47.547930" lon="7.861711">
        <ele>333.899312</ele>
        <time>2021-11-22T11:45:14.494Z</time>
      </trkpt>
      <trkpt lat="47.548049" lon="7.860929">
        <ele>333.138980</ele>
        <time>2021-11-22T11:45:23.193Z</time>
      </trkpt>
      <trkpt lat="47.548334" lon="7.859801">
        <ele>332.186270</ele>
        <time>2021-11-22T11:45:36.675Z</time>
      </trkpt>
      <trkpt lat="47.548611" lon="7.858381">
        <ele>331.294381</ele>
        <time>2021-11-22T11:45:54.631Z</time>
      </trkpt>
      <trkpt lat="47.548686" lon="7.857973">
        <ele>331.254203</ele>
        <time>2021-11-22T11:46:00.020Z</time>
      </trkpt>
      <trkpt lat="47.548701" lon="7.857893">
        <ele>331.246315</ele>
        <time>2021-11-22T11:46:01.141Z</time>
      </trkpt>
      <trkpt lat="47.548743" lon="7.857692">
        <ele>331.226322</ele>
        <time>2021-11-22T11:46:03.915Z</time>
      </trkpt>
      <trkpt lat="47.548887" lon="7.857308">
        <ele>331.184584</ele>
        <time>2021-11-22T11:46:09.948Z</time>
      </trkpt>
      <trkpt lat="47.549362" lon="7.855774">
        <ele>330.884506</ele>
        <time>2021-11-22T11:46:33.993Z</time>
      </trkpt>
      <trkpt lat="47.549566" lon="7.855225">
        <ele>330.673187</ele>
        <time>2021-11-22T11:46:42.610Z</time>
      </trkpt>
      <trkpt lat="47.549883" lon="7.854434">
        <ele>330.362994</ele>
        <time>2021-11-22T11:46:54.064Z</time>
      </trkpt>
      <trkpt lat="47.550221" lon="7.853833">
        <ele>329.763400</ele>
        <time>2021-11-22T11:47:00.458Z</time>
      </trkpt>
      <trkpt lat="47.551516" lon="7.851950">
        <ele>324.988790</ele>
        <time>2021-11-22T11:47:19.255Z</time>
      </trkpt>
      <trkpt lat="47.551660" lon="7.851725">
        <ele>324.308922</ele>
        <time>2021-11-22T11:47:21.293Z</time>
      </trkpt>
      <trkpt lat="47.551830" lon="7.851603">
        <ele>323.695281</ele>
        <time>2021-11-22T11:47:23.205Z</time>
      </trkpt>
      <trkpt lat="47.551902" lon="7.851787">
        <ele>323.228944</ele>
        <time>2021-11-22T11:47:24.614Z</time>
      </trkpt>
      <trkpt lat="47.551925" lon="7.851845">
        <ele>323.081448</ele>
        <time>2021-11-22T11:47:25.049Z</time>
      </trkpt>
      <trkpt lat="47.552042" lon="7.852007">
        <ele>322.561222</ele>
        <time>2021-11-22T11:47:26.695Z</time>
      </trkpt>
      <trkpt lat="47.552097" lon="7.852063">
        <ele>322.344425</ele>
        <time>2021-11-22T11:47:27.330Z</time>
      </trkpt>
      <trkpt lat="47.552272" lon="7.852167">
        <ele>321.731886</ele>
        <time>2021-11-22T11:47:29.228Z</time>
      </trkpt>
      <trkpt lat="47.552449" lon="7.852231">
        <ele>321.140002</ele>
        <time>2021-11-22T11:47:31.037Z</time>
      </trkpt>
      <trkpt lat="47.552678" lon="7.851709">
        <ele>319.774953</ele>
        <time>2021-11-22T11:47:35.321Z</time>
      </trkpt>
      <trkpt lat="47.552876" lon="7.851300">
        <ele>319.058920</ele>
        <time>2021-11-22T11:47:38.863Z</time>
      </trkpt>
      <trkpt lat="47.553283" lon="7.850634">
        <ele>317.813336</ele>
        <time>2021-11-22T11:47:45.505Z</time>
      </trkpt>
      <trkpt lat="47.553344" lon="7.850525">
        <ele>317.617030</ele>
        <time>2021-11-22T11:47:46.583Z</time>
      </trkpt>
      <trkpt lat="47.553380" lon="7.850453">
        <ele>317.492804</ele>
        <time>2021-11-22T11:47:47.270Z</time>
      </trkpt>
      <trkpt lat="47.553537" lon="7.849904">
        <ele>316.666189</ele>
        <time>2021-11-22T11:47:51.756Z</time>
      </trkpt>
      <trkpt lat="47.553605" lon="7.849629">
        <ele>316.260160</ele>
        <time>2021-11-22T11:47:54.046Z</time>
      </trkpt>
      <trkpt lat="47.553725" lon="7.849291">
        <ele>315.828057</ele>
        <time>2021-11-22T11:47:56.968Z</time>
      </trkpt>
      <trkpt lat="47.554055" lon="7.848586">
        <ele>315.024627</ele>
        <time>2021-11-22T11:48:03.866Z</time>
      </trkpt>
      <trkpt lat="47.554209" lon="7.848300">
        <ele>314.682012</ele>
        <time>2021-11-22T11:48:06.829Z</time>
      </trkpt>
      <trkpt lat="47.554269" lon="7.848188">
        <ele>314.548107</ele>
        <time>2021-11-22T11:48:07.908Z</time>
      </trkpt>
      <trkpt lat="47.554351" lon="7.848049">
        <ele>314.375227</ele>
        <time>2021-11-22T11:48:09.368Z</time>
      </trkpt>
      <trkpt lat="47.554465" lon="7.847858">
        <ele>314.136460</ele>
        <time>2021-11-22T11:48:11.449Z</time>
      </trkpt>
      <trkpt lat="47.554618" lon="7.847626">
        <ele>313.832709</ele>
        <time>2021-11-22T11:48:13.948Z</time>
      </trkpt>
      <trkpt lat="47.554759" lon="7.847388">
        <ele>313.536153</ele>
        <time>2021-11-22T11:48:16.365Z</time>
      </trkpt>
      <trkpt lat="47.554892" lon="7.847148">
        <ele>313.275638</ele>
        <time>2021-11-22T11:48:18.822Z</time>
      </trkpt>
      <trkpt lat="47.554995" lon="7.846915">
        <ele>313.042078</ele>
        <time>2021-11-22T11:48:20.957Z</time>
      </trkpt>
      <trkpt lat="47.555068" lon="7.846672">
        <ele>312.819040</ele>
        <time>2021-11-22T11:48:23.017Z</time>
      </trkpt>
      <trkpt lat="47.555199" lon="7.846687">
        <ele>312.655790</ele>
        <time>2021-11-22T11:48:24.498Z</time>
      </trkpt>
      <trkpt lat="47.555727" lon="7.846715">
        <ele>311.999339</ele>
        <time>2021-11-22T11:48:30.972Z</time>
      </trkpt>
      <trkpt lat="47.555855" lon="7.846815">
        <ele>311.819549</ele>
        <time>2021-11-22T11:48:32.623Z</time>
      </trkpt>
      <trkpt lat="47.555892" lon="7.846856">
        <ele>311.762144</ele>
        <time>2021-11-22T11:48:33.180Z</time>
      </trkpt>
      <trkpt lat="47.555966" lon="7.846932">
        <ele>311.650275</ele>
        <time>2021-11-22T11:48:34.330Z</time>
      </trkpt>
      <trkpt lat="47.555990" lon="7.846965">
        <ele>311.609594</ele>
        <time>2021-11-22T11:48:34.762Z</time>
      </trkpt>
      <trkpt lat="47.556060" lon="7.846859">
        <ele>311.485238</ele>
        <time>2021-11-22T11:48:35.983Z</time>
      </trkpt>
      <trkpt lat="47.556060" lon="7.846859">
        <ele>311.485238</ele>
        <time>2021-11-22T11:48:35.986Z</time>
      </trkpt>
      <trkpt lat="47.556636" lon="7.845928">
        <ele>310.791577</ele>
        <time>2021-11-22T11:48:46.372Z</time>
      </trkpt>
      <trkpt lat="47.557134" lon="7.845095">
        <ele>310.248527</ele>
        <time>2021-11-22T11:48:56.191Z</time>
      </trkpt>
      <trkpt lat="47.557282" lon="7.844832">
        <ele>310.081424</ele>
        <time>2021-11-22T11:48:59.330Z</time>
      </trkpt>
      <trkpt lat="47.557560" lon="7.844433">
        <ele>309.978599</ele>
        <time>2021-11-22T11:49:04.505Z</time>
      </trkpt>
      <trkpt lat="47.557715" lon="7.843940">
        <ele>309.950342</ele>
        <time>2021-11-22T11:49:09.511Z</time>
      </trkpt>
      <trkpt lat="47.557759" lon="7.843839">
        <ele>309.944096</ele>
        <time>2021-11-22T11:49:10.690Z</time>
      </trkpt>
      <trkpt lat="47.557846" lon="7.843756">
        <ele>309.936130</ele>
        <time>2021-11-22T11:49:12.032Z</time>
      </trkpt>
      <trkpt lat="47.557967" lon="7.843683">
        <ele>309.926072</ele>
        <time>2021-11-22T11:49:14.077Z</time>
      </trkpt>
      <trkpt lat="47.558136" lon="7.843582">
        <ele>309.912043</ele>
        <time>2021-11-22T11:49:16.762Z</time>
      </trkpt>
      <trkpt lat="47.558405" lon="7.843371">
        <ele>309.888611</ele>
        <time>2021-11-22T11:49:21.626Z</time>
      </trkpt>
      <trkpt lat="47.558471" lon="7.843365">
        <ele>309.883520</ele>
        <time>2021-11-22T11:49:22.478Z</time>
      </trkpt>
      <trkpt lat="47.558471" lon="7.843365">
        <ele>309.883520</ele>
        <time>2021-11-22T11:49:22.479Z</time>
      </trkpt>
      <trkpt lat="47.558555" lon="7.843392">
        <ele>309.876903</ele>
        <time>2021-11-22T11:49:23.777Z</time>
      </trkpt>
      <trkpt lat="47.558884" lon="7.843836">
        <ele>309.874873</ele>
        <time>2021-11-22T11:49:31.055Z</time>
      </trkpt>
      <trkpt lat="47.559060" lon="7.844197">
        <ele>309.891878</ele>
        <time>2021-11-22T11:49:35.881Z</time>
      </trkpt>
      <trkpt lat="47.559109" lon="7.844229">
        <ele>309.894908</ele>
        <time>2021-11-22T11:49:36.928Z</time>
      </trkpt>
      <trkpt lat="47.559158" lon="7.844233">
        <ele>309.897685</ele>
        <time>2021-11-22T11:49:37.877Z</time>
      </trkpt>
      <trkpt lat="47.559393" lon="7.844000">
        <ele>309.913684</ele>
        <time>2021-11-22T11:49:42.206Z</time>
      </trkpt>
      <trkpt lat="47.559583" lon="7.843813">
        <ele>309.926590</ele>
        <time>2021-11-22T11:49:45.841Z</time>
      </trkpt>
      <trkpt lat="47.559847" lon="7.843604">
        <ele>309.943526</ele>
        <time>2021-11-22T11:49:50.255Z</time>
      </trkpt>
      <trkpt lat="47.560139" lon="7.843433">
        <ele>309.961292</ele>
        <time>2021-11-22T11:49:54.486Z</time>
      </trkpt>
      <trkpt lat="47.560209" lon="7.843393">
        <ele>309.917026</ele>
        <time>2021-11-22T11:49:55.437Z</time>
      </trkpt>
      <trkpt lat="47.560338" lon="7.843341">
        <ele>309.780320</ele>
        <time>2021-11-22T11:49:57.103Z</time>
      </trkpt>
      <trkpt lat="47.560430" lon="7.843341">
        <ele>309.686243</ele>
        <time>2021-11-22T11:49:58.646Z</time>
      </trkpt>
      <trkpt lat="47.560515" lon="7.843379">
        <ele>309.595455</ele>
        <time>2021-11-22T11:49:59.680Z</time>
      </trkpt>
      <trkpt lat="47.560812" lon="7.843560">
        <ele>309.267070</ele>
        <time>2021-11-22T11:50:03.739Z</time>
      </trkpt>
      <trkpt lat="47.560934" lon="7.843550">
        <ele>309.142125</ele>
        <time>2021-11-22T11:50:05.263Z</time>
      </trkpt>
      <trkpt lat="47.561038" lon="7.843502">
        <ele>309.030739</ele>
        <time>2021-11-22T11:50:06.551Z</time>
      </trkpt>
      <trkpt lat="47.561434" lon="7.843181">
        <ele>308.569177</ele>
        <time>2021-11-22T11:50:11.992Z</time>
      </trkpt>
      <trkpt lat="47.561498" lon="7.843130">
        <ele>308.494870</ele>
        <time>2021-11-22T11:50:12.756Z</time>
      </trkpt>
      <trkpt lat="47.562179" lon="7.842500">
        <ele>307.589992</ele>
        <time>2021-11-22T11:50:22.014Z</time>
      </trkpt>
      <trkpt lat="47.562300" lon="7.842326">
        <ele>307.385403</ele>
        <time>2021-11-22T11:50:23.966Z</time>
      </trkpt>
      <trkpt lat="47.562385" lon="7.842183">
        <ele>307.229363</ele>
        <time>2021-11-22T11:50:25.377Z</time>
      </trkpt>
      <trkpt lat="47.562440" lon="7.842083">
        <ele>307.123729</ele>
        <time>2021-11-22T11:50:26.493Z</time>
      </trkpt>
      <trkpt lat="47.562574" lon="7.841873">
        <ele>306.887074</ele>
        <time>2021-11-22T11:50:28.891Z</time>
      </trkpt>
      <trkpt lat="47.562904" lon="7.841632">
        <ele>306.440657</ele>
        <time>2021-11-22T11:50:33.380Z</time>
      </trkpt>
      <trkpt lat="47.562965" lon="7.841597">
        <ele>306.361284</ele>
        <time>2021-11-22T11:50:34.168Z</time>
      </trkpt>
      <trkpt lat="47.563016" lon="7.841568">
        <ele>306.294999</ele>
        <time>2021-11-22T11:50:34.869Z</time>
      </trkpt>
      <trkpt lat="47.563300" lon="7.841391">
        <ele>305.923585</ele>
        <time>2021-11-22T11:50:38.607Z</time>
      </trkpt>
      <trkpt lat="47.563483" lon="7.841269">
        <ele>305.709667</ele>
        <time>2021-11-22T11:50:41.165Z</time>
      </trkpt>
      <trkpt lat="47.563659" lon="7.841150">
        <ele>305.503437</ele>
        <time>2021-11-22T11:50:43.492Z</time>
      </trkpt>
      <trkpt lat="47.563805" lon="7.841046">
        <ele>305.330748</ele>
        <time>2021-11-22T11:50:45.554Z</time>
      </trkpt>
      <trkpt lat="47.563941" lon="7.840948">
        <ele>305.169536</ele>
        <time>2021-11-22T11:50:47.406Z</time>
      </trkpt>
      <trkpt lat="47.563986" lon="7.840916">
        <ele>305.116327</ele>
        <time>2021-11-22T11:50:48.027Z</time>
      </trkpt>
      <trkpt lat="47.564094" lon="7.840838">
        <ele>304.988250</ele>
        <time>2021-11-22T11:50:49.496Z</time>
      </trkpt>
      <trkpt lat="47.564463" lon="7.840580">
        <ele>304.553296</ele>
        <time>2021-11-22T11:50:54.483Z</time>
      </trkpt>
      <trkpt lat="47.564534" lon="7.840532">
        <ele>304.470104</ele>
        <time>2021-11-22T11:50:55.390Z</time>
      </trkpt>
      <trkpt lat="47.564558" lon="7.840516">
        <ele>304.442049</ele>
        <time>2021-11-22T11:50:55.714Z</time>
      </trkpt>
      <trkpt lat="47.564936" lon="7.840261">
        <ele>303.999116</ele>
        <time>2021-11-22T11:51:00.615Z</time>
      </trkpt>
      <trkpt lat="47.565057" lon="7.840213">
        <ele>303.864589</ele>
        <time>2021-11-22T11:51:02.029Z</time>
      </trkpt>
      <trkpt lat="47.565168" lon="7.840179">
        <ele>303.742856</ele>
        <time>2021-11-22T11:51:03.370Z</time>
      </trkpt>
      <trkpt lat="47.565233" lon="7.840176">
        <ele>303.673013</ele>
        <time>2021-11-22T11:51:04.106Z</time>
      </trkpt>
      <trkpt lat="47.565343" lon="7.840185">
        <ele>303.554694</ele>
        <time>2021-11-22T11:51:05.365Z</time>
      </trkpt>
      <trkpt lat="47.565906" lon="7.840272">
        <ele>302.946760</ele>
        <time>2021-11-22T11:51:12.226Z</time>
      </trkpt>
      <trkpt lat="47.566081" lon="7.840309">
        <ele>302.756909</ele>
        <time>2021-11-22T11:51:14.369Z</time>
      </trkpt>
      <trkpt lat="47.566142" lon="7.840322">
        <ele>302.690722</ele>
        <time>2021-11-22T11:51:15.051Z</time>
      </trkpt>
      <trkpt lat="47.566221" lon="7.840340">
        <ele>302.604880</ele>
        <time>2021-11-22T11:51:16.249Z</time>
      </trkpt>
      <trkpt lat="47.566350" lon="7.840350">
        <ele>302.466146</ele>
        <time>2021-11-22T11:51:17.938Z</time>
      </trkpt>
      <trkpt lat="47.566450" lon="7.840326">
        <ele>302.357347</ele>
        <time>2021-11-22T11:51:19.161Z</time>
      </trkpt>
      <trkpt lat="47.566515" lon="7.840312">
        <ele>302.286805</ele>
        <time>2021-11-22T11:51:19.907Z</time>
      </trkpt>
      <trkpt lat="47.566592" lon="7.840279">
        <ele>302.200719</ele>
        <time>2021-11-22T11:51:21.097Z</time>
      </trkpt>
      <trkpt lat="47.566826" lon="7.840179">
        <ele>302.007694</ele>
        <time>2021-11-22T11:51:24.030Z</time>
      </trkpt>
      <trkpt lat="47.567111" lon="7.839998">
        <ele>301.823967</ele>
        <time>2021-11-22T11:51:28.054Z</time>
      </trkpt>
      <trkpt lat="47.567406" lon="7.839778">
        <ele>301.628283</ele>
        <time>2021-11-22T11:51:32.306Z</time>
      </trkpt>
      <trkpt lat="47.567481" lon="7.839664">
        <ele>301.564625</ele>
        <time>2021-11-22T11:51:33.546Z</time>
      </trkpt>
      <trkpt lat="47.567510" lon="7.839548">
        <ele>301.515167</ele>
        <time>2021-11-22T11:51:34.826Z</time>
      </trkpt>
      <trkpt lat="47.567530" lon="7.839459">
        <ele>301.477663</ele>
        <time>2021-11-22T11:51:35.679Z</time>
      </trkpt>
      <trkpt lat="47.567564" lon="7.839283">
        <ele>301.404470</ele>
        <time>2021-11-22T11:51:37.331Z</time>
      </trkpt>
      <trkpt lat="47.567626" lon="7.839064">
        <ele>301.309518</ele>
        <time>2021-11-22T11:51:39.481Z</time>
      </trkpt>
      <trkpt lat="47.567634" lon="7.839037">
        <ele>301.297728</ele>
        <time>2021-11-22T11:51:39.722Z</time>
      </trkpt>
      <trkpt lat="47.567714" lon="7.838872">
        <ele>301.216495</ele>
        <time>2021-11-22T11:51:41.712Z</time>
      </trkpt>
      <trkpt lat="47.567823" lon="7.838648">
        <ele>301.106079</ele>
        <time>2021-11-22T11:51:44.299Z</time>
      </trkpt>
      <trkpt lat="47.567846" lon="7.838609">
        <ele>301.085370</ele>
        <time>2021-11-22T11:51:44.754Z</time>
      </trkpt>
      <trkpt lat="47.567936" lon="7.838380">
        <ele>300.970251</ele>
        <time>2021-11-22T11:51:47.328Z</time>
      </trkpt>
      <trkpt lat="47.567961" lon="7.838248">
        <ele>300.904711</ele>
        <time>2021-11-22T11:51:48.506Z</time>
      </trkpt>
      <trkpt lat="47.567944" lon="7.838073">
        <ele>300.820193</ele>
        <time>2021-11-22T11:51:50.078Z</time>
      </trkpt>
      <trkpt lat="47.567822" lon="7.837479">
        <ele>300.523376</ele>
        <time>2021-11-22T11:51:55.313Z</time>
      </trkpt>
      <trkpt lat="47.567670" lon="7.836721">
        <ele>300.145361</ele>
        <time>2021-11-22T11:52:01.932Z</time>
      </trkpt>
      <trkpt lat="47.567647" lon="7.836576">
        <ele>300.074156</ele>
        <time>2021-11-22T11:52:03.196Z</time>
      </trkpt>
      <trkpt lat="47.567583" lon="7.836155">
        <ele>299.867857</ele>
        <time>2021-11-22T11:52:06.892Z</time>
      </trkpt>
      <trkpt lat="47.567562" lon="7.835760">
        <ele>299.694329</ele>
        <time>2021-11-22T11:52:10.345Z</time>
      </trkpt>
      <trkpt lat="47.567566" lon="7.835567">
        <ele>299.621977</ele>
        <time>2021-11-22T11:52:12.008Z</time>
      </trkpt>
      <trkpt lat="47.567674" lon="7.835182">
        <ele>299.465743</ele>
        <time>2021-11-22T11:52:15.656Z</time>
      </trkpt>
      <trkpt lat="47.567558" lon="7.835042">
        <ele>299.382664</ele>
        <time>2021-11-22T11:52:17.643Z</time>
      </trkpt>
      <trkpt lat="47.567179" lon="7.834275">
        <ele>299.026432</ele>
        <time>2021-11-22T11:52:25.988Z</time>
      </trkpt>
      <trkpt lat="47.566744" lon="7.833235">
        <ele>298.727686</ele>
        <time>2021-11-22T11:52:37.187Z</time>
      </trkpt>
      <trkpt lat="47.566366" lon="7.832333">
        <ele>298.673191</ele>
        <time>2021-11-22T11:52:47.455Z</time>
      </trkpt>
      <trkpt lat="47.566013" lon="7.831442">
        <ele>298.620162</ele>
        <time>2021-11-22T11:52:58.128Z</time>
      </trkpt>
      <trkpt lat="47.565741" lon="7.830588">
        <ele>298.768349</ele>
        <time>2021-11-22T11:53:07.909Z</time>
      </trkpt>
      <trkpt lat="47.565639" lon="7.830099">
        <ele>298.858078</ele>
        <time>2021-11-22T11:53:13.467Z</time>
      </trkpt>
      <trkpt lat="47.565511" lon="7.829497">
        <ele>298.968730</ele>
        <time>2021-11-22T11:53:20.368Z</time>
      </trkpt>
      <trkpt lat="47.565384" lon="7.828869">
        <ele>299.084107</ele>
        <time>2021-11-22T11:53:27.384Z</time>
      </trkpt>
      <trkpt lat="47.565225" lon="7.828079">
        <ele>299.770300</ele>
        <time>2021-11-22T11:53:36.096Z</time>
      </trkpt>
      <trkpt lat="47.565215" lon="7.828033">
        <ele>299.810527</ele>
        <time>2021-11-22T11:53:36.599Z</time>
      </trkpt>
      <trkpt lat="47.565115" lon="7.827488">
        <ele>300.280637</ele>
        <time>2021-11-22T11:53:43.204Z</time>
      </trkpt>
      <trkpt lat="47.565054" lon="7.827194">
        <ele>300.536659</ele>
        <time>2021-11-22T11:53:47.021Z</time>
      </trkpt>
      <trkpt lat="47.564863" lon="7.826667">
        <ele>301.034588</ele>
        <time>2021-11-22T11:53:56.077Z</time>
      </trkpt>
      <trkpt lat="47.564836" lon="7.826621">
        <ele>301.085336</ele>
        <time>2021-11-22T11:53:57.093Z</time>
      </trkpt>
      <trkpt lat="47.564805" lon="7.826569">
        <ele>301.143093</ele>
        <time>2021-11-22T11:53:58.296Z</time>
      </trkpt>
      <trkpt lat="47.564687" lon="7.826418">
        <ele>301.397620</ele>
        <time>2021-11-22T11:54:02.374Z</time>
      </trkpt>
      <trkpt lat="47.564687" lon="7.826418">
        <ele>301.397620</ele>
        <time>2021-11-22T11:54:02.462Z</time>
      </trkpt>
      <trkpt lat="47.564687" lon="7.826418">
        <ele>301.397620</ele>
        <time>2021-11-22T11:54:02.469Z</time>
      </trkpt>
      <trkpt lat="47.564761" lon="7.826264">
        <ele>301.850840</ele>
        <time>2021-11-22T11:54:06.894Z</time>
      </trkpt>
      <trkpt lat="47.564775" lon="7.826180">
        <ele>302.058259</ele>
        <time>2021-11-22T11:54:08.726Z</time>
      </trkpt>
      <trkpt lat="47.564761" lon="7.826044">
        <ele>302.388056</ele>
        <time>2021-11-22T11:54:11.744Z</time>
      </trkpt>
      <trkpt lat="47.564726" lon="7.825870">
        <ele>302.823315</ele>
        <time>2021-11-22T11:54:16.225Z</time>
      </trkpt>
      <trkpt lat="47.564632" lon="7.824882">
        <ele>305.215216</ele>
        <time>2021-11-22T11:54:40.448Z</time>
      </trkpt>
      <trkpt lat="47.564621" lon="7.824630">
        <ele>305.820584</ele>
        <time>2021-11-22T11:54:46.984Z</time>
      </trkpt>
      <trkpt lat="47.564603" lon="7.824196">
        <ele>306.862950</ele>
        <time>2021-11-22T11:54:57.677Z</time>
      </trkpt>
      <trkpt lat="47.564596" lon="7.823971">
        <ele>307.402903</ele>
        <time>2021-11-22T11:55:02.900Z</time>
      </trkpt>
      <trkpt lat="47.564551" lon="7.823574">
        <ele>307.973853</ele>
        <time>2021-11-22T11:55:13.134Z</time>
      </trkpt>
      <trkpt lat="47.564531" lon="7.823338">
        <ele>308.211396</ele>
        <time>2021-11-22T11:55:18.504Z</time>
      </trkpt>
      <trkpt lat="47.564338" lon="7.820810">
        <ele>310.038387</ele>
        <time>2021-11-22T11:55:59.293Z</time>
      </trkpt>
      <trkpt lat="47.564264" lon="7.820324">
        <ele>309.642763</ele>
        <time>2021-11-22T11:56:04.824Z</time>
      </trkpt>
      <trkpt lat="47.564207" lon="7.820139">
        <ele>309.481269</ele>
        <time>2021-11-22T11:56:07.027Z</time>
      </trkpt>
      <trkpt lat="47.564083" lon="7.819689">
        <ele>309.095287</ele>
        <time>2021-11-22T11:56:12.308Z</time>
      </trkpt>
      <trkpt lat="47.563846" lon="7.818890">
        <ele>308.402222</ele>
        <time>2021-11-22T11:56:21.752Z</time>
      </trkpt>
      <trkpt lat="47.563292" lon="7.817642">
        <ele>307.173213</ele>
        <time>2021-11-22T11:56:37.909Z</time>
      </trkpt>
      <trkpt lat="47.562585" lon="7.816208">
        <ele>306.118723</ele>
        <time>2021-11-22T11:56:59.103Z</time>
      </trkpt>
      <trkpt lat="47.562165" lon="7.815429">
        <ele>306.334817</ele>
        <time>2021-11-22T11:57:13.394Z</time>
      </trkpt>
      <trkpt lat="47.561915" lon="7.815075">
        <ele>306.445869</ele>
        <time>2021-11-22T11:57:21.382Z</time>
      </trkpt>
      <trkpt lat="47.561796" lon="7.814938">
        <ele>306.494266</ele>
        <time>2021-11-22T11:57:24.997Z</time>
      </trkpt>
      <trkpt lat="47.561285" lon="7.814314">
        <ele>306.731887</ele>
        <time>2021-11-22T11:57:41.068Z</time>
      </trkpt>
      <trkpt lat="47.561222" lon="7.814241">
        <ele>306.764206</ele>
        <time>2021-11-22T11:57:43.195Z</time>
      </trkpt>
      <trkpt lat="47.560566" lon="7.813439">
        <ele>307.107889</ele>
        <time>2021-11-22T11:58:03.778Z</time>
      </trkpt>
      <trkpt lat="47.560089" lon="7.812856">
        <ele>307.208089</ele>
        <time>2021-11-22T11:58:15.203Z</time>
      </trkpt>
      <trkpt lat="47.559685" lon="7.812338">
        <ele>305.855535</ele>
        <time>2021-11-22T11:58:24.116Z</time>
      </trkpt>
      <trkpt lat="47.559556" lon="7.812039">
        <ele>305.249216</ele>
        <time>2021-11-22T11:58:27.914Z</time>
      </trkpt>
      <trkpt lat="47.559352" lon="7.811707">
        <ele>304.482084</ele>
        <time>2021-11-22T11:58:32.562Z</time>
      </trkpt>
      <trkpt lat="47.559226" lon="7.811439">
        <ele>303.924038</ele>
        <time>2021-11-22T11:58:55.061Z</time>
      </trkpt>
      <trkpt lat="47.559209" lon="7.811347">
        <ele>303.761069</ele>
        <time>2021-11-22T11:59:01.378Z</time>
      </trkpt>
      <trkpt lat="47.559195" lon="7.811248">
        <ele>303.588253</ele>
        <time>2021-11-22T11:59:07.697Z</time>
      </trkpt>
      <trkpt lat="47.559245" lon="7.811179">
        <ele>303.415274</ele>
        <time>2021-11-22T11:59:08.400Z</time>
      </trkpt>
      <trkpt lat="47.559268" lon="7.811124">
        <ele>303.304726</ele>
        <time>2021-11-22T11:59:08.835Z</time>
      </trkpt>
      <trkpt lat="47.559276" lon="7.811047">
        <ele>303.171621</ele>
        <time>2021-11-22T11:59:09.361Z</time>
      </trkpt>
      <trkpt lat="47.559247" lon="7.810496">
        <ele>301.804283</ele>
        <time>2021-11-22T11:59:12.930Z</time>
      </trkpt>
      <trkpt lat="47.559164" lon="7.809586">
        <ele>299.041650</ele>
        <time>2021-11-22T11:59:18.669Z</time>
      </trkpt>
      <trkpt lat="47.559156" lon="7.809491">
        <ele>298.753625</ele>
        <time>2021-11-22T11:59:19.301Z</time>
      </trkpt>
      <trkpt lat="47.559157" lon="7.809330">
        <ele>298.269235</ele>
        <time>2021-11-22T11:59:20.364Z</time>
      </trkpt>
      <trkpt lat="47.559196" lon="7.809136">
        <ele>297.660237</ele>
        <time>2021-11-22T11:59:21.622Z</time>
      </trkpt>
      <trkpt lat="47.559398" lon="7.808498">
        <ele>295.540053</ele>
        <time>2021-11-22T11:59:26.390Z</time>
      </trkpt>
      <trkpt lat="47.559543" lon="7.807995">
        <ele>293.980686</ele>
        <time>2021-11-22T11:59:30.040Z</time>
      </trkpt>
      <trkpt lat="47.559784" lon="7.806908">
        <ele>290.879420</ele>
        <time>2021-11-22T11:59:37.545Z</time>
      </trkpt>
      <trkpt lat="47.559871" lon="7.806594">
        <ele>289.959377</ele>
        <time>2021-11-22T11:59:39.910Z</time>
      </trkpt>
      <trkpt lat="47.559953" lon="7.806216">
        <ele>288.883172</ele>
        <time>2021-11-22T11:59:42.463Z</time>
      </trkpt>
      <trkpt lat="47.559988" lon="7.806036">
        <ele>288.375433</ele>
        <time>2021-11-22T11:59:43.699Z</time>
      </trkpt>
      <trkpt lat="47.560019" lon="7.805927">
        <ele>288.054823</ele>
        <time>2021-11-22T11:59:44.423Z</time>
      </trkpt>
      <trkpt lat="47.560083" lon="7.805827">
        <ele>287.681260</ele>
        <time>2021-11-22T11:59:45.320Z</time>
      </trkpt>
      <trkpt lat="47.560351" lon="7.805494">
        <ele>286.150810</ele>
        <time>2021-11-22T11:59:48.737Z</time>
      </trkpt>
      <trkpt lat="47.560401" lon="7.805409">
        <ele>285.814785</ele>
        <time>2021-11-22T11:59:49.534Z</time>
      </trkpt>
      <trkpt lat="47.560439" lon="7.805345">
        <ele>285.560751</ele>
        <time>2021-11-22T11:59:50.115Z</time>
      </trkpt>
      <trkpt lat="47.560542" lon="7.805124">
        <ele>284.760371</ele>
        <time>2021-11-22T11:59:51.786Z</time>
      </trkpt>
      <trkpt lat="47.560682" lon="7.804798">
        <ele>283.608860</ele>
        <time>2021-11-22T11:59:54.352Z</time>
      </trkpt>
      <trkpt lat="47.560742" lon="7.804662">
        <ele>283.124658</ele>
        <time>2021-11-22T11:59:55.339Z</time>
      </trkpt>
      <trkpt lat="47.560877" lon="7.804360">
        <ele>282.045161</ele>
        <time>2021-11-22T11:59:57.728Z</time>
      </trkpt>
      <trkpt lat="47.560963" lon="7.804183">
        <ele>281.395210</ele>
        <time>2021-11-22T11:59:59.086Z</time>
      </trkpt>
      <trkpt lat="47.561088" lon="7.803899">
        <ele>280.384796</ele>
        <time>2021-11-22T12:00:01.330Z</time>
      </trkpt>
      <trkpt lat="47.561332" lon="7.803393">
        <ele>279.071587</ele>
        <time>2021-11-22T12:00:05.333Z</time>
      </trkpt>
      <trkpt lat="47.561376" lon="7.803302">
        <ele>278.907011</ele>
        <time>2021-11-22T12:00:06.064Z</time>
      </trkpt>
      <trkpt lat="47.561404" lon="7.803234">
        <ele>278.789903</ele>
        <time>2021-11-22T12:00:06.603Z</time>
      </trkpt>
      <trkpt lat="47.561371" lon="7.803208">
        <ele>278.708481</ele>
        <time>2021-11-22T12:00:07.031Z</time>
      </trkpt>
      <trkpt lat="47.561177" lon="7.803075">
        <ele>278.242805</ele>
        <time>2021-11-22T12:00:09.214Z</time>
      </trkpt>
      <trkpt lat="47.560680" lon="7.802756">
        <ele>277.062863</ele>
        <time>2021-11-22T12:00:15.236Z</time>
      </trkpt>
      <trkpt lat="47.560399" lon="7.802597">
        <ele>276.407578</ele>
        <time>2021-11-22T12:00:18.917Z</time>
      </trkpt>
      <trkpt lat="47.559650" lon="7.802247">
        <ele>275.448190</ele>
        <time>2021-11-22T12:00:29.212Z</time>
      </trkpt>
      <trkpt lat="47.559570" lon="7.802197">
        <ele>275.403751</ele>
        <time>2021-11-22T12:00:30.321Z</time>
      </trkpt>
      <trkpt lat="47.559348" lon="7.802101">
        <ele>275.285386</ele>
        <time>2021-11-22T12:00:33.327Z</time>
      </trkpt>
      <trkpt lat="47.559183" lon="7.802020">
        <ele>275.196421</ele>
        <time>2021-11-22T12:00:35.647Z</time>
      </trkpt>
      <trkpt lat="47.559117" lon="7.801986">
        <ele>275.160658</ele>
        <time>2021-11-22T12:00:36.602Z</time>
      </trkpt>
      <trkpt lat="47.558842" lon="7.801839">
        <ele>275.011028</ele>
        <time>2021-11-22T12:00:40.465Z</time>
      </trkpt>
      <trkpt lat="47.558522" lon="7.801649">
        <ele>274.834584</ele>
        <time>2021-11-22T12:00:45.149Z</time>
      </trkpt>
      <trkpt lat="47.558430" lon="7.801574">
        <ele>274.780841</ele>
        <time>2021-11-22T12:00:46.659Z</time>
      </trkpt>
      <trkpt lat="47.558362" lon="7.801501">
        <ele>274.760376</ele>
        <time>2021-11-22T12:00:47.687Z</time>
      </trkpt>
      <trkpt lat="47.557814" lon="7.800795">
        <ele>274.796381</ele>
        <time>2021-11-22T12:00:57.906Z</time>
      </trkpt>
      <trkpt lat="47.557657" lon="7.800590">
        <ele>274.806756</ele>
        <time>2021-11-22T12:01:01.127Z</time>
      </trkpt>
      <trkpt lat="47.557599" lon="7.800515">
        <ele>274.810573</ele>
        <time>2021-11-22T12:01:02.196Z</time>
      </trkpt>
      <trkpt lat="47.556439" lon="7.798992">
        <ele>275.135243</ele>
        <time>2021-11-22T12:01:27.904Z</time>
      </trkpt>
      <trkpt lat="47.556381" lon="7.798915">
        <ele>275.163118</ele>
        <time>2021-11-22T12:01:29.316Z</time>
      </trkpt>
      <trkpt lat="47.556336" lon="7.798855">
        <ele>275.184786</ele>
        <time>2021-11-22T12:01:30.412Z</time>
      </trkpt>
      <trkpt lat="47.556240" lon="7.798728">
        <ele>275.230851</ele>
        <time>2021-11-22T12:01:32.723Z</time>
      </trkpt>
      <trkpt lat="47.556112" lon="7.798538">
        <ele>275.295703</ele>
        <time>2021-11-22T12:01:36.043Z</time>
      </trkpt>
      <trkpt lat="47.555842" lon="7.798140">
        <ele>275.432026</ele>
        <time>2021-11-22T12:01:42.204Z</time>
      </trkpt>
      <trkpt lat="47.555489" lon="7.797497">
        <ele>275.257901</ele>
        <time>2021-11-22T12:01:49.798Z</time>
      </trkpt>
      <trkpt lat="47.555293" lon="7.797049">
        <ele>275.044132</ele>
        <time>2021-11-22T12:01:54.354Z</time>
      </trkpt>
      <trkpt lat="47.555263" lon="7.796971">
        <ele>275.008186</ele>
        <time>2021-11-22T12:01:55.183Z</time>
      </trkpt>
      <trkpt lat="47.555486" lon="7.796849">
        <ele>274.867156</ele>
        <time>2021-11-22T12:01:59.400Z</time>
      </trkpt>
      <trkpt lat="47.555544" lon="7.796747">
        <ele>274.813752</ele>
        <time>2021-11-22T12:02:01.017Z</time>
      </trkpt>
      <trkpt lat="47.555529" lon="7.796462">
        <ele>274.699295</ele>
        <time>2021-11-22T12:02:03.463Z</time>
      </trkpt>
      <trkpt lat="47.555492" lon="7.796158">
        <ele>274.575613</ele>
        <time>2021-11-22T12:02:06.171Z</time>
      </trkpt>
      <trkpt lat="47.555467" lon="7.795984">
        <ele>274.504384</ele>
        <time>2021-11-22T12:02:07.614Z</time>
      </trkpt>
      <trkpt lat="47.555454" lon="7.795902">
        <ele>274.470659</ele>
        <time>2021-11-22T12:02:08.653Z</time>
      </trkpt>
      <trkpt lat="47.555444" lon="7.795749">
        <ele>274.403863</ele>
        <time>2021-11-22T12:02:10.514Z</time>
      </trkpt>
      <trkpt lat="47.555456" lon="7.795684">
        <ele>274.367551</ele>
        <time>2021-11-22T12:02:11.338Z</time>
      </trkpt>
      <trkpt lat="47.555451" lon="7.795635">
        <ele>274.340848</ele>
        <time>2021-11-22T12:02:11.984Z</time>
      </trkpt>
      <trkpt lat="47.555438" lon="7.795535">
        <ele>274.285972</ele>
        <time>2021-11-22T12:02:13.134Z</time>
      </trkpt>
      <trkpt lat="47.555436" lon="7.795522">
        <ele>274.278787</ele>
        <time>2021-11-22T12:02:13.301Z</time>
      </trkpt>
      <trkpt lat="47.555432" lon="7.795493">
        <ele>274.262837</ele>
        <time>2021-11-22T12:02:13.630Z</time>
      </trkpt>
      <trkpt lat="47.555308" lon="7.794498">
        <ele>273.717615</ele>
        <time>2021-11-22T12:02:25.561Z</time>
      </trkpt>
      <trkpt lat="47.555288" lon="7.794496">
        <ele>273.701610</ele>
        <time>2021-11-22T12:02:25.943Z</time>
      </trkpt>
      <trkpt lat="47.555288" lon="7.794318">
        <ele>273.605695</ele>
        <time>2021-11-22T12:02:30.143Z</time>
      </trkpt>
      <trkpt lat="47.555282" lon="7.794033">
        <ele>273.452047</ele>
        <time>2021-11-22T12:02:36.710Z</time>
      </trkpt>
      <trkpt lat="47.555281" lon="7.793955">
        <ele>273.410009</ele>
        <time>2021-11-22T12:02:38.551Z</time>
      </trkpt>
      <trkpt lat="47.555274" lon="7.793423">
        <ele>273.123285</ele>
        <time>2021-11-22T12:02:51.190Z</time>
      </trkpt>
      <trkpt lat="47.555277" lon="7.793131">
        <ele>272.930784</ele>
        <time>2021-11-22T12:02:58.238Z</time>
      </trkpt>
      <trkpt lat="47.555237" lon="7.792734">
        <ele>272.372978</ele>
        <time>2021-11-22T12:03:07.489Z</time>
      </trkpt>
      <trkpt lat="47.555127" lon="7.792307">
        <ele>271.737837</ele>
        <time>2021-11-22T12:03:17.468Z</time>
      </trkpt>
      <trkpt lat="47.555085" lon="7.792163">
        <ele>271.519838</ele>
        <time>2021-11-22T12:03:21.021Z</time>
      </trkpt>
      <trkpt lat="47.555027" lon="7.791948">
        <ele>271.198077</ele>
        <time>2021-11-22T12:03:25.821Z</time>
      </trkpt>
      <trkpt lat="47.554911" lon="7.791459">
        <ele>270.477777</ele>
        <time>2021-11-22T12:03:36.615Z</time>
      </trkpt>
      <trkpt lat="47.554756" lon="7.790897">
        <ele>269.634089</ele>
        <time>2021-11-22T12:03:48.914Z</time>
      </trkpt>
      <trkpt lat="47.554788" lon="7.790844">
        <ele>269.535264</ele>
        <time>2021-11-22T12:03:50.282Z</time>
      </trkpt>
      <trkpt lat="47.554858" lon="7.790696">
        <ele>269.284262</ele>
        <time>2021-11-22T12:03:54.077Z</time>
      </trkpt>
      <trkpt lat="47.554865" lon="7.790678">
        <ele>269.264674</ele>
        <time>2021-11-22T12:03:54.436Z</time>
      </trkpt>
      <trkpt lat="47.554999" lon="7.790090">
        <ele>268.679502</ele>
        <time>2021-11-22T12:04:06.697Z</time>
      </trkpt>
      <trkpt lat="47.555031" lon="7.789894">
        <ele>268.489366</ele>
        <time>2021-11-22T12:04:10.602Z</time>
      </trkpt>
      <trkpt lat="47.555052" lon="7.789771">
        <ele>268.369738</ele>
        <time>2021-11-22T12:04:13.147Z</time>
      </trkpt>
      <trkpt lat="47.555062" lon="7.789726">
        <ele>268.325067</ele>
        <time>2021-11-22T12:04:14.142Z</time>
      </trkpt>
      <trkpt lat="47.555085" lon="7.789685">
        <ele>268.274798</ele>
        <time>2021-11-22T12:04:15.246Z</time>
      </trkpt>
      <trkpt lat="47.555936" lon="7.788828">
        <ele>266.837261</ele>
        <time>2021-11-22T12:04:49.962Z</time>
      </trkpt>
      <trkpt lat="47.556069" lon="7.788614">
        <ele>267.270994</ele>
        <time>2021-11-22T12:04:54.323Z</time>
      </trkpt>
      <trkpt lat="47.556111" lon="7.788537">
        <ele>267.494326</ele>
        <time>2021-11-22T12:04:55.861Z</time>
      </trkpt>
      <trkpt lat="47.556137" lon="7.788488">
        <ele>267.634931</ele>
        <time>2021-11-22T12:04:57.028Z</time>
      </trkpt>
      <trkpt lat="47.556249" lon="7.788270">
        <ele>268.252966</ele>
        <time>2021-11-22T12:05:02.017Z</time>
      </trkpt>
      <trkpt lat="47.556357" lon="7.788058">
        <ele>268.852138</ele>
        <time>2021-11-22T12:05:06.995Z</time>
      </trkpt>
      <trkpt lat="47.556539" lon="7.787710">
        <ele>269.845261</ele>
        <time>2021-11-22T12:05:15.646Z</time>
      </trkpt>
      <trkpt lat="47.556658" lon="7.787468">
        <ele>270.520690</ele>
        <time>2021-11-22T12:05:22.143Z</time>
      </trkpt>
      <trkpt lat="47.556783" lon="7.787207">
        <ele>271.242624</ele>
        <time>2021-11-22T12:05:28.982Z</time>
      </trkpt>
      <trkpt lat="47.556917" lon="7.786943">
        <ele>271.987770</ele>
        <time>2021-11-22T12:05:36.490Z</time>
      </trkpt>
      <trkpt lat="47.557019" lon="7.786803">
        <ele>272.452493</ele>
        <time>2021-11-22T12:05:41.242Z</time>
      </trkpt>
      <trkpt lat="47.557118" lon="7.786638">
        <ele>272.934594</ele>
        <time>2021-11-22T12:05:46.546Z</time>
      </trkpt>
      <trkpt lat="47.557180" lon="7.786638">
        <ele>273.122055</ele>
        <time>2021-11-22T12:05:48.592Z</time>
      </trkpt>
      <trkpt lat="47.557490" lon="7.786586">
        <ele>274.065347</ele>
        <time>2021-11-22T12:05:59.542Z</time>
      </trkpt>
      <trkpt lat="47.557562" lon="7.786575">
        <ele>274.284198</ele>
        <time>2021-11-22T12:06:01.805Z</time>
      </trkpt>
      <trkpt lat="47.557711" lon="7.786536">
        <ele>274.741683</ele>
        <time>2021-11-22T12:06:06.598Z</time>
      </trkpt>
      <trkpt lat="47.557823" lon="7.786486">
        <ele>275.095357</ele>
        <time>2021-11-22T12:06:10.248Z</time>
      </trkpt>
      <trkpt lat="47.557901" lon="7.786427">
        <ele>275.360144</ele>
        <time>2021-11-22T12:06:12.638Z</time>
      </trkpt>
      <trkpt lat="47.557921" lon="7.786413">
        <ele>275.427023</ele>
        <time>2021-11-22T12:06:13.259Z</time>
      </trkpt>
      <trkpt lat="47.558006" lon="7.786349">
        <ele>275.715300</ele>
        <time>2021-11-22T12:06:15.828Z</time>
      </trkpt>
      <trkpt lat="47.558071" lon="7.786282">
        <ele>275.954704</ele>
        <time>2021-11-22T12:06:17.918Z</time>
      </trkpt>
      <trkpt lat="47.558166" lon="7.786166">
        <ele>276.326898</ele>
        <time>2021-11-22T12:06:20.983Z</time>
      </trkpt>
      <trkpt lat="47.558367" lon="7.785913">
        <ele>277.124290</ele>
        <time>2021-11-22T12:06:26.960Z</time>
      </trkpt>
      <trkpt lat="47.558577" lon="7.785598">
        <ele>278.027762</ele>
        <time>2021-11-22T12:06:32.710Z</time>
      </trkpt>
      <trkpt lat="47.558660" lon="7.785434">
        <ele>278.266700</ele>
        <time>2021-11-22T12:06:35.215Z</time>
      </trkpt>
      <trkpt lat="47.558747" lon="7.785215">
        <ele>278.370216</ele>
        <time>2021-11-22T12:06:38.216Z</time>
      </trkpt>
      <trkpt lat="47.558782" lon="7.785128">
        <ele>278.411473</ele>
        <time>2021-11-22T12:06:39.423Z</time>
      </trkpt>
      <trkpt lat="47.558822" lon="7.785030">
        <ele>278.458126</ele>
        <time>2021-11-22T12:06:40.764Z</time>
      </trkpt>
      <trkpt lat="47.558920" lon="7.784817">
        <ele>278.563135</ele>
        <time>2021-11-22T12:06:43.741Z</time>
      </trkpt>
      <trkpt lat="47.558986" lon="7.784674">
        <ele>278.633704</ele>
        <time>2021-11-22T12:06:45.715Z</time>
      </trkpt>
      <trkpt lat="47.559008" lon="7.784639">
        <ele>278.653187</ele>
        <time>2021-11-22T12:06:46.255Z</time>
      </trkpt>
      <trkpt lat="47.559117" lon="7.784473">
        <ele>278.747531</ele>
        <time>2021-11-22T12:06:48.884Z</time>
      </trkpt>
      <trkpt lat="47.559229" lon="7.784376">
        <ele>278.825835</ele>
        <time>2021-11-22T12:06:51.085Z</time>
      </trkpt>
      <trkpt lat="47.559319" lon="7.784326">
        <ele>278.883852</ele>
        <time>2021-11-22T12:06:52.703Z</time>
      </trkpt>
      <trkpt lat="47.559415" lon="7.784281">
        <ele>278.944629</ele>
        <time>2021-11-22T12:06:54.419Z</time>
      </trkpt>
      <trkpt lat="47.559876" lon="7.784127">
        <ele>279.229875</ele>
        <time>2021-11-22T12:07:02.339Z</time>
      </trkpt>
      <trkpt lat="47.560427" lon="7.783951">
        <ele>279.459993</ele>
        <time>2021-11-22T12:07:11.307Z</time>
      </trkpt>
      <trkpt lat="47.560877" lon="7.783815">
        <ele>279.620908</ele>
        <time>2021-11-22T12:07:18.414Z</time>
      </trkpt>
      <trkpt lat="47.561041" lon="7.783716">
        <ele>279.682954</ele>
        <time>2021-11-22T12:07:21.094Z</time>
      </trkpt>
      <trkpt lat="47.561312" lon="7.783440">
        <ele>279.798168</ele>
        <time>2021-11-22T12:07:26.396Z</time>
      </trkpt>
      <trkpt lat="47.561406" lon="7.783302">
        <ele>279.844529</ele>
        <time>2021-11-22T12:07:28.590Z</time>
      </trkpt>
      <trkpt lat="47.561610" lon="7.782977">
        <ele>279.964543</ele>
        <time>2021-11-22T12:07:33.635Z</time>
      </trkpt>
      <trkpt lat="47.561822" lon="7.782640">
        <ele>280.214650</ele>
        <time>2021-11-22T12:07:39.141Z</time>
      </trkpt>
      <trkpt lat="47.561943" lon="7.782422">
        <ele>280.367882</ele>
        <time>2021-11-22T12:07:42.607Z</time>
      </trkpt>
      <trkpt lat="47.562099" lon="7.782166">
        <ele>280.555130</ele>
        <time>2021-11-22T12:07:46.810Z</time>
      </trkpt>
      <trkpt lat="47.562657" lon="7.781311">
        <ele>281.200826</ele>
        <time>2021-11-22T12:08:01.137Z</time>
      </trkpt>
      <trkpt lat="47.562775" lon="7.781130">
        <ele>281.337446</ele>
        <time>2021-11-22T12:08:04.283Z</time>
      </trkpt>
      <trkpt lat="47.563211" lon="7.780461">
        <ele>282.159655</ele>
        <time>2021-11-22T12:08:16.904Z</time>
      </trkpt>
      <trkpt lat="47.563299" lon="7.780330">
        <ele>282.329590</ele>
        <time>2021-11-22T12:08:19.429Z</time>
      </trkpt>
      <trkpt lat="47.563386" lon="7.780199">
        <ele>282.498566</ele>
        <time>2021-11-22T12:08:22.071Z</time>
      </trkpt>
      <trkpt lat="47.563492" lon="7.780014">
        <ele>282.721682</ele>
        <time>2021-11-22T12:08:25.585Z</time>
      </trkpt>
      <trkpt lat="47.563533" lon="7.779944">
        <ele>282.806896</ele>
        <time>2021-11-22T12:08:26.859Z</time>
      </trkpt>
      <trkpt lat="47.563652" lon="7.779747">
        <ele>283.049968</ele>
        <time>2021-11-22T12:08:30.729Z</time>
      </trkpt>
      <trkpt lat="47.563793" lon="7.779659">
        <ele>283.258408</ele>
        <time>2021-11-22T12:08:34.825Z</time>
      </trkpt>
      <trkpt lat="47.563852" lon="7.779621">
        <ele>283.346053</ele>
        <time>2021-11-22T12:08:36.484Z</time>
      </trkpt>
      <trkpt lat="47.564045" lon="7.779513">
        <ele>283.627118</ele>
        <time>2021-11-22T12:08:42.056Z</time>
      </trkpt>
      <trkpt lat="47.564224" lon="7.779415">
        <ele>283.865770</ele>
        <time>2021-11-22T12:08:46.846Z</time>
      </trkpt>
      <trkpt lat="47.564392" lon="7.779326">
        <ele>284.008779</ele>
        <time>2021-11-22T12:08:51.286Z</time>
      </trkpt>
      <trkpt lat="47.564511" lon="7.779262">
        <ele>284.110252</ele>
        <time>2021-11-22T12:08:54.251Z</time>
      </trkpt>
      <trkpt lat="47.564843" lon="7.779087">
        <ele>284.392704</ele>
        <time>2021-11-22T12:09:02.463Z</time>
      </trkpt>
      <trkpt lat="47.565063" lon="7.778945">
        <ele>284.585048</ele>
        <time>2021-11-22T12:09:08.106Z</time>
      </trkpt>
      <trkpt lat="47.565130" lon="7.778874">
        <ele>284.651070</ele>
        <time>2021-11-22T12:09:10.132Z</time>
      </trkpt>
      <trkpt lat="47.565373" lon="7.778616">
        <ele>284.890677</ele>
        <time>2021-11-22T12:09:17.202Z</time>
      </trkpt>
      <trkpt lat="47.565449" lon="7.778535">
        <ele>284.965713</ele>
        <time>2021-11-22T12:09:19.419Z</time>
      </trkpt>
      <trkpt lat="47.565525" lon="7.778440">
        <ele>285.045407</ele>
        <time>2021-11-22T12:09:21.612Z</time>
      </trkpt>
      <trkpt lat="47.565867" lon="7.778022">
        <ele>285.247241</ele>
        <time>2021-11-22T12:09:31.195Z</time>
      </trkpt>
      <trkpt lat="47.566303" lon="7.777491">
        <ele>285.138350</ele>
        <time>2021-11-22T12:09:42.807Z</time>
      </trkpt>
      <trkpt lat="47.566322" lon="7.777461">
        <ele>285.132993</ele>
        <time>2021-11-22T12:09:43.318Z</time>
      </trkpt>
      <trkpt lat="47.566608" lon="7.777148">
        <ele>285.064392</ele>
        <time>2021-11-22T12:09:50.084Z</time>
      </trkpt>
      <trkpt lat="47.566856" lon="7.776877">
        <ele>285.004938</ele>
        <time>2021-11-22T12:09:55.724Z</time>
      </trkpt>
      <trkpt lat="47.566976" lon="7.776804">
        <ele>284.979908</ele>
        <time>2021-11-22T12:09:58.114Z</time>
      </trkpt>
      <trkpt lat="47.567059" lon="7.776784">
        <ele>284.963682</ele>
        <time>2021-11-22T12:09:59.625Z</time>
      </trkpt>
      <trkpt lat="47.567068" lon="7.776814">
        <ele>284.959408</ele>
        <time>2021-11-22T12:10:00.049Z</time>
      </trkpt>
      <trkpt lat="47.567139" lon="7.776888">
        <ele>284.942660</ele>
        <time>2021-11-22T12:10:01.640Z</time>
      </trkpt>
      <trkpt lat="47.567219" lon="7.776864">
        <ele>284.927875</ele>
        <time>2021-11-22T12:10:03.139Z</time>
      </trkpt>
      <trkpt lat="47.567251" lon="7.776815">
        <ele>284.921804</ele>
        <time>2021-11-22T12:10:03.986Z</time>
      </trkpt>
      <trkpt lat="47.567375" lon="7.776915">
        <ele>284.903177</ele>
        <time>2021-11-22T12:10:06.574Z</time>
      </trkpt>
      <trkpt lat="47.567527" lon="7.777009">
        <ele>284.881445</ele>
        <time>2021-11-22T12:10:09.647Z</time>
      </trkpt>
      <trkpt lat="47.567759" lon="7.777133">
        <ele>284.848903</ele>
        <time>2021-11-22T12:10:14.286Z</time>
      </trkpt>
      <trkpt lat="47.568007" lon="7.777265">
        <ele>284.814134</ele>
        <time>2021-11-22T12:10:19.397Z</time>
      </trkpt>
      <trkpt lat="47.568609" lon="7.777805">
        <ele>284.721286</ele>
        <time>2021-11-22T12:10:33.835Z</time>
      </trkpt>
      <trkpt lat="47.568698" lon="7.777923">
        <ele>284.705529</ele>
        <time>2021-11-22T12:10:36.370Z</time>
      </trkpt>
      <trkpt lat="47.568776" lon="7.778000">
        <ele>284.693163</ele>
        <time>2021-11-22T12:10:38.309Z</time>
      </trkpt>
      <trkpt lat="47.568912" lon="7.778080">
        <ele>284.749163</ele>
        <time>2021-11-22T12:10:41.378Z</time>
      </trkpt>
      <trkpt lat="47.569010" lon="7.778085">
        <ele>284.788114</ele>
        <time>2021-11-22T12:10:43.469Z</time>
      </trkpt>
      <trkpt lat="47.569097" lon="7.778076">
        <ele>284.822757</ele>
        <time>2021-11-22T12:10:45.253Z</time>
      </trkpt>
      <trkpt lat="47.569206" lon="7.778065">
        <ele>284.866156</ele>
        <time>2021-11-22T12:10:47.559Z</time>
      </trkpt>
      <trkpt lat="47.569336" lon="7.778029">
        <ele>284.918690</ele>
        <time>2021-11-22T12:10:50.430Z</time>
      </trkpt>
      <trkpt lat="47.569597" lon="7.777946">
        <ele>285.024727</ele>
        <time>2021-11-22T12:10:56.189Z</time>
      </trkpt>
      <trkpt lat="47.569718" lon="7.777905">
        <ele>285.074032</ele>
        <time>2021-11-22T12:10:58.968Z</time>
      </trkpt>
      <trkpt lat="47.570668" lon="7.777751">
        <ele>285.461170</ele>
        <time>2021-11-22T12:11:20.466Z</time>
      </trkpt>
      <trkpt lat="47.570996" lon="7.777724">
        <ele>285.612744</ele>
        <time>2021-11-22T12:11:27.659Z</time>
      </trkpt>
      <trkpt lat="47.571486" lon="7.777685">
        <ele>285.839158</ele>
        <time>2021-11-22T12:11:38.167Z</time>
      </trkpt>
      <trkpt lat="47.571758" lon="7.777656">
        <ele>285.964985</ele>
        <time>2021-11-22T12:11:43.912Z</time>
      </trkpt>
      <trkpt lat="47.572400" lon="7.777595">
        <ele>286.292851</ele>
        <time>2021-11-22T12:11:58.174Z</time>
      </trkpt>
      <trkpt lat="47.572764" lon="7.777559">
        <ele>286.671822</ele>
        <time>2021-11-22T12:12:06.743Z</time>
      </trkpt>
      <trkpt lat="47.573335" lon="7.777667">
        <ele>287.269799</ele>
        <time>2021-11-22T12:12:20.857Z</time>
      </trkpt>
      <trkpt lat="47.573621" lon="7.777715">
        <ele>287.568800</ele>
        <time>2021-11-22T12:12:27.984Z</time>
      </trkpt>
      <trkpt lat="47.574028" lon="7.777785">
        <ele>287.994437</ele>
        <time>2021-11-22T12:12:38.188Z</time>
      </trkpt>
      <trkpt lat="47.574584" lon="7.777808">
        <ele>288.877855</ele>
        <time>2021-11-22T12:12:52.603Z</time>
      </trkpt>
      <trkpt lat="47.574514" lon="7.777246">
        <ele>289.540606</ele>
        <time>2021-11-22T12:13:02.778Z</time>
      </trkpt>
      <trkpt lat="47.574435" lon="7.776611">
        <ele>290.289417</ele>
        <time>2021-11-22T12:13:14.319Z</time>
      </trkpt>
      <trkpt lat="47.574482" lon="7.776565">
        <ele>290.386231</ele>
        <time>2021-11-22T12:13:16.120Z</time>
      </trkpt>
      <trkpt lat="47.574818" lon="7.774795">
        <ele>294.810705</ele>
        <time>2021-11-22T12:13:52.165Z</time>
      </trkpt>
      <trkpt lat="47.575085" lon="7.775492">
        <ele>297.352731</ele>
        <time>2021-11-22T12:14:11.911Z</time>
      </trkpt>
      <trkpt lat="47.575384" lon="7.776579">
        <ele>302.749939</ele>
        <time>2021-11-22T12:14:46.463Z</time>
      </trkpt>
      <trkpt lat="47.575677" lon="7.776966">
        <ele>306.765893</ele>
        <time>2021-11-22T12:15:07.280Z</time>
      </trkpt>
      <trkpt lat="47.575870" lon="7.777242">
        <ele>309.510183</ele>
        <time>2021-11-22T12:15:23.420Z</time>
      </trkpt>
      <trkpt lat="47.576055" lon="7.777591">
        <ele>312.574302</ele>
        <time>2021-11-22T12:15:41.538Z</time>
      </trkpt>
      <trkpt lat="47.576240" lon="7.777816">
        <ele>315.023118</ele>
        <time>2021-11-22T12:15:57.054Z</time>
      </trkpt>
      <trkpt lat="47.576421" lon="7.777969">
        <ele>317.155330</ele>
        <time>2021-11-22T12:16:08.933Z</time>
      </trkpt>
      <trkpt lat="47.576734" lon="7.778022">
        <ele>320.584064</ele>
        <time>2021-11-22T12:16:28.525Z</time>
      </trkpt>
      <trkpt lat="47.576906" lon="7.777966">
        <ele>322.545271</ele>
        <time>2021-11-22T12:16:40.525Z</time>
      </trkpt>
      <trkpt lat="47.577242" lon="7.777768">
        <ele>326.572108</ele>
        <time>2021-11-22T12:17:02.608Z</time>
      </trkpt>
      <trkpt lat="47.577490" lon="7.777516">
        <ele>329.920656</ele>
        <time>2021-11-22T12:17:19.967Z</time>
      </trkpt>
      <trkpt lat="47.577552" lon="7.777454">
        <ele>330.753568</ele>
        <time>2021-11-22T12:17:24.970Z</time>
      </trkpt>
      <trkpt lat="47.577731" lon="7.777170">
        <ele>333.673590</ele>
        <time>2021-11-22T12:17:39.536Z</time>
      </trkpt>
      <trkpt lat="47.577863" lon="7.776850">
        <ele>336.491539</ele>
        <time>2021-11-22T12:17:53.121Z</time>
      </trkpt>
      <trkpt lat="47.577968" lon="7.776427">
        <ele>339.774085</ele>
        <time>2021-11-22T12:18:12.027Z</time>
      </trkpt>
      <trkpt lat="47.578025" lon="7.775902">
        <ele>343.537326</ele>
        <time>2021-11-22T12:18:31.310Z</time>
      </trkpt>
      <trkpt lat="47.578071" lon="7.775576">
        <ele>345.894358</ele>
        <time>2021-11-22T12:18:43.833Z</time>
      </trkpt>
      <trkpt lat="47.578174" lon="7.775292">
        <ele>348.176279</ele>
        <time>2021-11-22T12:18:55.746Z</time>
      </trkpt>
      <trkpt lat="47.578507" lon="7.774879">
        <ele>352.731162</ele>
        <time>2021-11-22T12:19:20.719Z</time>
      </trkpt>
      <trkpt lat="47.578756" lon="7.774665">
        <ele>355.750655</ele>
        <time>2021-11-22T12:19:38.050Z</time>
      </trkpt>
      <trkpt lat="47.579806" lon="7.773857">
        <ele>368.142062</ele>
        <time>2021-11-22T12:20:45.502Z</time>
      </trkpt>
      <trkpt lat="47.580296" lon="7.773511">
        <ele>373.825935</ele>
        <time>2021-11-22T12:21:16.559Z</time>
      </trkpt>
      <trkpt lat="47.580807" lon="7.772819">
        <ele>381.030842</ele>
        <time>2021-11-22T12:21:54.357Z</time>
      </trkpt>
      <trkpt lat="47.580945" lon="7.772416">
        <ele>384.197419</ele>
        <time>2021-11-22T12:22:10.740Z</time>
      </trkpt>
      <trkpt lat="47.581317" lon="7.771666">
        <ele>390.719877</ele>
        <time>2021-11-22T12:22:46.423Z</time>
      </trkpt>
      <trkpt lat="47.581731" lon="7.770314">
        <ele>400.565926</ele>
        <time>2021-11-22T12:23:45.581Z</time>
      </trkpt>
      <trkpt lat="47.581897" lon="7.769954">
        <ele>403.365163</ele>
        <time>2021-11-22T12:24:00.528Z</time>
      </trkpt>
      <trkpt lat="47.581964" lon="7.769843">
        <ele>404.321312</ele>
        <time>2021-11-22T12:24:07.949Z</time>
      </trkpt>
      <trkpt lat="47.582176" lon="7.769652">
        <ele>406.682114</ele>
        <time>2021-11-22T12:24:20.612Z</time>
      </trkpt>
      <trkpt lat="47.582217" lon="7.769641">
        <ele>407.078624</ele>
        <time>2021-11-22T12:24:23.586Z</time>
      </trkpt>
      <trkpt lat="47.582269" lon="7.769630">
        <ele>407.578487</ele>
        <time>2021-11-22T12:24:27.870Z</time>
      </trkpt>
      <trkpt lat="47.583519" lon="7.769412">
        <ele>416.232720</ele>
        <time>2021-11-22T12:25:29.935Z</time>
      </trkpt>
      <trkpt lat="47.583812" lon="7.769288">
        <ele>417.922032</ele>
        <time>2021-11-22T12:25:42.380Z</time>
      </trkpt>
      <trkpt lat="47.585063" lon="7.768604">
        <ele>422.817052</ele>
        <time>2021-11-22T12:26:26.649Z</time>
      </trkpt>
      <trkpt lat="47.585613" lon="7.768145">
        <ele>423.984745</ele>
        <time>2021-11-22T12:26:43.934Z</time>
      </trkpt>
      <trkpt lat="47.586458" lon="7.767254">
        <ele>423.875524</ele>
        <time>2021-11-22T12:27:05.494Z</time>
      </trkpt>
      <trkpt lat="47.586575" lon="7.767173">
        <ele>423.634418</ele>
        <time>2021-11-22T12:27:08.188Z</time>
      </trkpt>
      <trkpt lat="47.586859" lon="7.766977">
        <ele>423.049496</ele>
        <time>2021-11-22T12:27:13.369Z</time>
      </trkpt>
      <trkpt lat="47.587726" lon="7.766058">
        <ele>420.096439</ele>
        <time>2021-11-22T12:27:28.666Z</time>
      </trkpt>
      <trkpt lat="47.588102" lon="7.765534">
        <ele>417.183923</ele>
        <time>2021-11-22T12:27:35.533Z</time>
      </trkpt>
      <trkpt lat="47.588240" lon="7.765423">
        <ele>416.297794</ele>
        <time>2021-11-22T12:27:37.619Z</time>
      </trkpt>
      <trkpt lat="47.588379" lon="7.765329">
        <ele>415.435503</ele>
        <time>2021-11-22T12:27:39.642Z</time>
      </trkpt>
      <trkpt lat="47.588523" lon="7.765242">
        <ele>414.557857</ele>
        <time>2021-11-22T12:27:41.656Z</time>
      </trkpt>
      <trkpt lat="47.589202" lon="7.765102">
        <ele>410.462593</ele>
        <time>2021-11-22T12:27:50.515Z</time>
      </trkpt>
      <trkpt lat="47.589614" lon="7.764808">
        <ele>407.042871</ele>
        <time>2021-11-22T12:27:56.323Z</time>
      </trkpt>
      <trkpt lat="47.591305" lon="7.762579">
        <ele>390.549785</ele>
        <time>2021-11-22T12:28:24.928Z</time>
      </trkpt>
      <trkpt lat="47.591687" lon="7.761670">
        <ele>385.444392</ele>
        <time>2021-11-22T12:28:34.211Z</time>
      </trkpt>
      <trkpt lat="47.591758" lon="7.761482">
        <ele>384.956870</ele>
        <time>2021-11-22T12:28:36.102Z</time>
      </trkpt>
      <trkpt lat="47.591982" lon="7.760877">
        <ele>383.882884</ele>
        <time>2021-11-22T12:28:42.521Z</time>
      </trkpt>
      <trkpt lat="47.592118" lon="7.760501">
        <ele>383.218952</ele>
        <time>2021-11-22T12:28:46.766Z</time>
      </trkpt>
      <trkpt lat="47.592317" lon="7.760056">
        <ele>382.388088</ele>
        <time>2021-11-22T12:28:52.539Z</time>
      </trkpt>
      <trkpt lat="47.592736" lon="7.760559">
        <ele>381.144180</ele>
        <time>2021-11-22T12:29:00.095Z</time>
      </trkpt>
      <trkpt lat="47.593211" lon="7.761047">
        <ele>383.602944</ele>
        <time>2021-11-22T12:29:14.052Z</time>
      </trkpt>
      <trkpt lat="47.593513" lon="7.761296">
        <ele>385.210104</ele>
        <time>2021-11-22T12:29:25.255Z</time>
      </trkpt>
      <trkpt lat="47.593803" lon="7.761400">
        <ele>386.597801</ele>
        <time>2021-11-22T12:29:36.215Z</time>
      </trkpt>
      <trkpt lat="47.594411" lon="7.761312">
        <ele>389.444142</ele>
        <time>2021-11-22T12:30:02.028Z</time>
      </trkpt>
      <trkpt lat="47.595086" lon="7.761325">
        <ele>395.626167</ele>
        <time>2021-11-22T12:30:35.268Z</time>
      </trkpt>
      <trkpt lat="47.595364" lon="7.761174">
        <ele>398.337445</ele>
        <time>2021-11-22T12:30:51.772Z</time>
      </trkpt>
      <trkpt lat="47.595483" lon="7.761108">
        <ele>399.500951</ele>
        <time>2021-11-22T12:30:59.155Z</time>
      </trkpt>
      <trkpt lat="47.595685" lon="7.760825">
        <ele>402.045848</ele>
        <time>2021-11-22T12:31:12.929Z</time>
      </trkpt>
      <trkpt lat="47.595755" lon="7.760659">
        <ele>403.254929</ele>
        <time>2021-11-22T12:31:21.628Z</time>
      </trkpt>
      <trkpt lat="47.595854" lon="7.760335">
        <ele>405.451643</ele>
        <time>2021-11-22T12:31:33.297Z</time>
      </trkpt>
      <trkpt lat="47.596041" lon="7.759870">
        <ele>408.687396</ele>
        <time>2021-11-22T12:31:53.257Z</time>
      </trkpt>
      <trkpt lat="47.596134" lon="7.759703">
        <ele>409.975044</ele>
        <time>2021-11-22T12:32:02.283Z</time>
      </trkpt>
      <trkpt lat="47.596241" lon="7.759593">
        <ele>411.122905</ele>
        <time>2021-11-22T12:32:08.472Z</time>
      </trkpt>
      <trkpt lat="47.596644" lon="7.759494">
        <ele>414.724291</ele>
        <time>2021-11-22T12:32:29.024Z</time>
      </trkpt>
      <trkpt lat="47.596893" lon="7.759520">
        <ele>416.924981</ele>
        <time>2021-11-22T12:32:42.484Z</time>
      </trkpt>
      <trkpt lat="47.597328" lon="7.759556">
        <ele>420.766034</ele>
        <time>2021-11-22T12:33:02.668Z</time>
      </trkpt>
      <trkpt lat="47.598314" lon="7.759510">
        <ele>427.979467</ele>
        <time>2021-11-22T12:33:44.545Z</time>
      </trkpt>
      <trkpt lat="47.598492" lon="7.759485">
        <ele>429.252059</ele>
        <time>2021-11-22T12:33:52.926Z</time>
      </trkpt>
      <trkpt lat="47.598636" lon="7.759436">
        <ele>430.303620</ele>
        <time>2021-11-22T12:33:59.194Z</time>
      </trkpt>
      <trkpt lat="47.599038" lon="7.759240">
        <ele>433.315542</ele>
        <time>2021-11-22T12:34:16.648Z</time>
      </trkpt>
      <trkpt lat="47.599369" lon="7.759291">
        <ele>435.700271</ele>
        <time>2021-11-22T12:34:30.105Z</time>
      </trkpt>
      <trkpt lat="47.599495" lon="7.759407">
        <ele>436.771058</ele>
        <time>2021-11-22T12:34:37.045Z</time>
      </trkpt>
      <trkpt lat="47.599727" lon="7.759652">
        <ele>438.827435</ele>
        <time>2021-11-22T12:34:49.734Z</time>
      </trkpt>
      <trkpt lat="47.599976" lon="7.759788">
        <ele>440.743310</ele>
        <time>2021-11-22T12:35:01.969Z</time>
      </trkpt>
      <trkpt lat="47.600757" lon="7.759977">
        <ele>446.456845</ele>
        <time>2021-11-22T12:35:36.440Z</time>
      </trkpt>
      <trkpt lat="47.601032" lon="7.760002">
        <ele>448.259454</ele>
        <time>2021-11-22T12:35:49.133Z</time>
      </trkpt>
      <trkpt lat="47.601336" lon="7.760030">
        <ele>449.999880</ele>
        <time>2021-11-22T12:36:02.045Z</time>
      </trkpt>
      <trkpt lat="47.601600" lon="7.760073">
        <ele>451.517467</ele>
        <time>2021-11-22T12:36:13.220Z</time>
      </trkpt>
      <trkpt lat="47.602078" lon="7.760047">
        <ele>454.250633</ele>
        <time>2021-11-22T12:36:31.607Z</time>
      </trkpt>
      <trkpt lat="47.602902" lon="7.759841">
        <ele>458.079168</ele>
        <time>2021-11-22T12:36:59.429Z</time>
      </trkpt>
      <trkpt lat="47.603173" lon="7.759766">
        <ele>458.408702</ele>
        <time>2021-11-22T12:37:05.966Z</time>
      </trkpt>
      <trkpt lat="47.603613" lon="7.759659">
        <ele>458.941683</ele>
        <time>2021-11-22T12:37:14.920Z</time>
      </trkpt>
      <trkpt lat="47.604088" lon="7.759601">
        <ele>459.511400</ele>
        <time>2021-11-22T12:37:22.211Z</time>
      </trkpt>
      <trkpt lat="47.604421" lon="7.759606">
        <ele>459.909474</ele>
        <time>2021-11-22T12:37:26.436Z</time>
      </trkpt>
      <trkpt lat="47.604633" lon="7.759635">
        <ele>459.897327</ele>
        <time>2021-11-22T12:37:28.954Z</time>
      </trkpt>
      <trkpt lat="47.605325" lon="7.759787">
        <ele>459.528973</ele>
        <time>2021-11-22T12:37:37.495Z</time>
      </trkpt>
      <trkpt lat="47.605536" lon="7.759853">
        <ele>459.415424</ele>
        <time>2021-11-22T12:37:40.252Z</time>
      </trkpt>
      <trkpt lat="47.606171" lon="7.760045">
        <ele>459.074181</ele>
        <time>2021-11-22T12:37:49.436Z</time>
      </trkpt>
      <trkpt lat="47.607246" lon="7.760369">
        <ele>458.631235</ele>
        <time>2021-11-22T12:38:06.709Z</time>
      </trkpt>
      <trkpt lat="47.607825" lon="7.760537">
        <ele>458.398748</ele>
        <time>2021-11-22T12:38:14.488Z</time>
      </trkpt>
      <trkpt lat="47.608938" lon="7.760829">
        <ele>456.429137</ele>
        <time>2021-11-22T12:38:26.979Z</time>
      </trkpt>
      <trkpt lat="47.610076" lon="7.761100">
        <ele>454.329874</ele>
        <time>2021-11-22T12:38:39.215Z</time>
      </trkpt>
      <trkpt lat="47.610488" lon="7.761190">
        <ele>453.813923</ele>
        <time>2021-11-22T12:38:43.946Z</time>
      </trkpt>
      <trkpt lat="47.610565" lon="7.761273">
        <ele>453.695995</ele>
        <time>2021-11-22T12:38:45.105Z</time>
      </trkpt>
      <trkpt lat="47.610601" lon="7.761374">
        <ele>453.600569</ele>
        <time>2021-11-22T12:38:46.002Z</time>
      </trkpt>
      <trkpt lat="47.610760" lon="7.761304">
        <ele>453.395083</ele>
        <time>2021-11-22T12:38:47.981Z</time>
      </trkpt>
      <trkpt lat="47.610854" lon="7.761285">
        <ele>453.277546</ele>
        <time>2021-11-22T12:38:49.191Z</time>
      </trkpt>
      <trkpt lat="47.611933" lon="7.761457">
        <ele>452.230299</ele>
        <time>2021-11-22T12:39:03.803Z</time>
      </trkpt>
      <trkpt lat="47.612022" lon="7.761449">
        <ele>452.181773</ele>
        <time>2021-11-22T12:39:05.078Z</time>
      </trkpt>
      <trkpt lat="47.612075" lon="7.761435">
        <ele>452.152475</ele>
        <time>2021-11-22T12:39:05.813Z</time>
      </trkpt>
      <trkpt lat="47.612127" lon="7.761383">
        <ele>452.118345</ele>
        <time>2021-11-22T12:39:06.695Z</time>
      </trkpt>
      <trkpt lat="47.612441" lon="7.760890">
        <ele>451.869506</ele>
        <time>2021-11-22T12:39:12.580Z</time>
      </trkpt>
      <trkpt lat="47.612523" lon="7.760811">
        <ele>451.816293</ele>
        <time>2021-11-22T12:39:13.966Z</time>
      </trkpt>
      <trkpt lat="47.612630" lon="7.760759">
        <ele>451.755014</ele>
        <time>2021-11-22T12:39:15.516Z</time>
      </trkpt>
      <trkpt lat="47.612812" lon="7.760726">
        <ele>451.655225</ele>
        <time>2021-11-22T12:39:17.820Z</time>
      </trkpt>
      <trkpt lat="47.612960" lon="7.760706">
        <ele>451.574345</ele>
        <time>2021-11-22T12:39:19.965Z</time>
      </trkpt>
      <trkpt lat="47.613059" lon="7.760674">
        <ele>451.519201</ele>
        <time>2021-11-22T12:39:21.332Z</time>
      </trkpt>
      <trkpt lat="47.613078" lon="7.760746">
        <ele>451.490834</ele>
        <time>2021-11-22T12:39:21.904Z</time>
      </trkpt>
      <trkpt lat="47.613167" lon="7.760835">
        <ele>451.359430</ele>
        <time>2021-11-22T12:39:23.481Z</time>
      </trkpt>
      <trkpt lat="47.613657" lon="7.760988">
        <ele>450.703494</ele>
        <time>2021-11-22T12:39:29.503Z</time>
      </trkpt>
      <trkpt lat="47.613842" lon="7.761046">
        <ele>450.455802</ele>
        <time>2021-11-22T12:39:31.616Z</time>
      </trkpt>
      <trkpt lat="47.614092" lon="7.761125">
        <ele>450.120970</ele>
        <time>2021-11-22T12:39:34.548Z</time>
      </trkpt>
      <trkpt lat="47.614228" lon="7.761168">
        <ele>449.938816</ele>
        <time>2021-11-22T12:39:36.019Z</time>
      </trkpt>
      <trkpt lat="47.614392" lon="7.761173">
        <ele>449.723941</ele>
        <time>2021-11-22T12:39:37.806Z</time>
      </trkpt>
      <trkpt lat="47.614706" lon="7.761147">
        <ele>449.311980</ele>
        <time>2021-11-22T12:39:41.316Z</time>
      </trkpt>
      <trkpt lat="47.614766" lon="7.761162">
        <ele>449.232275</ele>
        <time>2021-11-22T12:39:42.074Z</time>
      </trkpt>
      <trkpt lat="47.614820" lon="7.761190">
        <ele>449.157342</ele>
        <time>2021-11-22T12:39:42.873Z</time>
      </trkpt>
      <trkpt lat="47.615007" lon="7.761358">
        <ele>449.145397</ele>
        <time>2021-11-22T12:39:45.398Z</time>
      </trkpt>
      <trkpt lat="47.615529" lon="7.761749">
        <ele>449.196662</ele>
        <time>2021-11-22T12:39:53.784Z</time>
      </trkpt>
      <trkpt lat="47.615620" lon="7.761773">
        <ele>449.204765</ele>
        <time>2021-11-22T12:39:54.802Z</time>
      </trkpt>
      <trkpt lat="47.615769" lon="7.761789">
        <ele>449.217861</ele>
        <time>2021-11-22T12:39:57.301Z</time>
      </trkpt>
      <trkpt lat="47.615919" lon="7.761819">
        <ele>449.231130</ele>
        <time>2021-11-22T12:39:59.823Z</time>
      </trkpt>
      <trkpt lat="47.616849" lon="7.762442">
        <ele>449.780062</ele>
        <time>2021-11-22T12:40:19.266Z</time>
      </trkpt>
      <trkpt lat="47.617386" lon="7.762826">
        <ele>450.523857</ele>
        <time>2021-11-22T12:40:34.005Z</time>
      </trkpt>
      <trkpt lat="47.617553" lon="7.762928">
        <ele>450.749193</ele>
        <time>2021-11-22T12:40:38.189Z</time>
      </trkpt>
      <trkpt lat="47.617894" lon="7.763136">
        <ele>451.209222</ele>
        <time>2021-11-22T12:40:44.916Z</time>
      </trkpt>
      <trkpt lat="47.618062" lon="7.762757">
        <ele>451.448685</ele>
        <time>2021-11-22T12:40:49.759Z</time>
      </trkpt>
      <trkpt lat="47.618125" lon="7.762615">
        <ele>451.256984</ele>
        <time>2021-11-22T12:40:51.513Z</time>
      </trkpt>
      <trkpt lat="47.618586" lon="7.762088">
        <ele>450.283361</ele>
        <time>2021-11-22T12:40:58.748Z</time>
      </trkpt>
      <trkpt lat="47.618742" lon="7.761992">
        <ele>450.000823</ele>
        <time>2021-11-22T12:41:00.666Z</time>
      </trkpt>
      <trkpt lat="47.618940" lon="7.761783">
        <ele>449.594296</ele>
        <time>2021-11-22T12:41:03.280Z</time>
      </trkpt>
      <trkpt lat="47.619245" lon="7.761370">
        <ele>448.903471</ele>
        <time>2021-11-22T12:41:07.589Z</time>
      </trkpt>
      <trkpt lat="47.620058" lon="7.759513">
        <ele>445.374808</ele>
        <time>2021-11-22T12:41:22.558Z</time>
      </trkpt>
      <trkpt lat="47.620566" lon="7.758657">
        <ele>444.150388</ele>
        <time>2021-11-22T12:41:32.056Z</time>
      </trkpt>
      <trkpt lat="47.620828" lon="7.758215">
        <ele>444.330866</ele>
        <time>2021-11-22T12:41:38.138Z</time>
      </trkpt>
      <trkpt lat="47.621012" lon="7.757974">
        <ele>444.442519</ele>
        <time>2021-11-22T12:41:42.161Z</time>
      </trkpt>
      <trkpt lat="47.621392" lon="7.757689">
        <ele>444.636214</ele>
        <time>2021-11-22T12:41:49.911Z</time>
      </trkpt>
      <trkpt lat="47.621775" lon="7.757496">
        <ele>444.820217</ele>
        <time>2021-11-22T12:41:58.232Z</time>
      </trkpt>
      <trkpt lat="47.622401" lon="7.757191">
        <ele>445.351261</ele>
        <time>2021-11-22T12:42:11.902Z</time>
      </trkpt>
      <trkpt lat="47.622511" lon="7.757074">
        <ele>445.468067</ele>
        <time>2021-11-22T12:42:14.824Z</time>
      </trkpt>
      <trkpt lat="47.622712" lon="7.756863">
        <ele>445.680562</ele>
        <time>2021-11-22T12:42:19.277Z</time>
      </trkpt>
      <trkpt lat="47.624277" lon="7.754101">
        <ele>447.023162</ele>
        <time>2021-11-22T12:42:58.995Z</time>
      </trkpt>
      <trkpt lat="47.624838" lon="7.753339">
        <ele>447.003162</ele>
        <time>2021-11-22T12:43:11.998Z</time>
      </trkpt>
      <trkpt lat="47.625761" lon="7.752304">
        <ele>446.782947</ele>
        <time>2021-11-22T12:43:27.891Z</time>
      </trkpt>
      <trkpt lat="47.626467" lon="7.751538">
        <ele>445.108376</ele>
        <time>2021-11-22T12:43:38.091Z</time>
      </trkpt>
      <trkpt lat="47.626588" lon="7.751406">
        <ele>444.788143</ele>
        <time>2021-11-22T12:43:39.774Z</time>
      </trkpt>
      <trkpt lat="47.627609" lon="7.750299">
        <ele>441.512062</ele>
        <time>2021-11-22T12:43:52.711Z</time>
      </trkpt>
      <trkpt lat="47.628584" lon="7.749233">
        <ele>437.141618</ele>
        <time>2021-11-22T12:44:04.706Z</time>
      </trkpt>
      <trkpt lat="47.628604" lon="7.749202">
        <ele>437.037248</ele>
        <time>2021-11-22T12:44:04.952Z</time>
      </trkpt>
      <trkpt lat="47.628729" lon="7.749001">
        <ele>436.366232</ele>
        <time>2021-11-22T12:44:06.801Z</time>
      </trkpt>
      <trkpt lat="47.629212" lon="7.748211">
        <ele>433.542892</ele>
        <time>2021-11-22T12:44:13.830Z</time>
      </trkpt>
      <trkpt lat="47.629452" lon="7.747871">
        <ele>432.239651</ele>
        <time>2021-11-22T12:44:17.093Z</time>
      </trkpt>
      <trkpt lat="47.629711" lon="7.747557">
        <ele>430.926048</ele>
        <time>2021-11-22T12:44:20.362Z</time>
      </trkpt>
      <trkpt lat="47.630697" lon="7.746375">
        <ele>425.504061</ele>
        <time>2021-11-22T12:44:32.791Z</time>
      </trkpt>
      <trkpt lat="47.630948" lon="7.746031">
        <ele>423.988389</ele>
        <time>2021-11-22T12:44:36.065Z</time>
      </trkpt>
      <trkpt lat="47.631034" lon="7.745824">
        <ele>423.261434</ele>
        <time>2021-11-22T12:44:37.595Z</time>
      </trkpt>
      <trkpt lat="47.631075" lon="7.745596">
        <ele>422.555998</ele>
        <time>2021-11-22T12:44:39.130Z</time>
      </trkpt>
      <trkpt lat="47.631185" lon="7.744218">
        <ele>418.253530</ele>
        <time>2021-11-22T12:44:47.851Z</time>
      </trkpt>
      <trkpt lat="47.631202" lon="7.744011">
        <ele>417.597956</ele>
        <time>2021-11-22T12:44:49.186Z</time>
      </trkpt>
      <trkpt lat="47.631260" lon="7.742819">
        <ele>413.840836</ele>
        <time>2021-11-22T12:44:56.880Z</time>
      </trkpt>
      <trkpt lat="47.631282" lon="7.742608">
        <ele>413.169610</ele>
        <time>2021-11-22T12:44:58.280Z</time>
      </trkpt>
      <trkpt lat="47.631477" lon="7.741795">
        <ele>410.939251</ele>
        <time>2021-11-22T12:45:04.155Z</time>
      </trkpt>
      <trkpt lat="47.631536" lon="7.741522">
        <ele>410.208659</ele>
        <time>2021-11-22T12:45:06.849Z</time>
      </trkpt>
      <trkpt lat="47.631637" lon="7.741086">
        <ele>409.033780</ele>
        <time>2021-11-22T12:45:11.230Z</time>
      </trkpt>
      <trkpt lat="47.631724" lon="7.740473">
        <ele>407.437396</ele>
        <time>2021-11-22T12:45:17.261Z</time>
      </trkpt>
      <trkpt lat="47.632215" lon="7.740628">
        <ele>405.380102</ele>
        <time>2021-11-22T12:45:24.390Z</time>
      </trkpt>
      <trkpt lat="47.632629" lon="7.740770">
        <ele>403.388390</ele>
        <time>2021-11-22T12:45:30.353Z</time>
      </trkpt>
      <trkpt lat="47.633010" lon="7.740829">
        <ele>401.592825</ele>
        <time>2021-11-22T12:45:35.623Z</time>
      </trkpt>
      <trkpt lat="47.633652" lon="7.740737">
        <ele>398.569569</ele>
        <time>2021-11-22T12:45:44.265Z</time>
      </trkpt>
      <trkpt lat="47.633981" lon="7.740603">
        <ele>396.831658</ele>
        <time>2021-11-22T12:45:48.757Z</time>
      </trkpt>
      <trkpt lat="47.634039" lon="7.740574">
        <ele>396.495133</ele>
        <time>2021-11-22T12:45:49.559Z</time>
      </trkpt>
      <trkpt lat="47.634082" lon="7.740553">
        <ele>396.246226</ele>
        <time>2021-11-22T12:45:50.164Z</time>
      </trkpt>
      <trkpt lat="47.634149" lon="7.740513">
        <ele>395.849136</ele>
        <time>2021-11-22T12:45:51.144Z</time>
      </trkpt>
      <trkpt lat="47.634183" lon="7.740491">
        <ele>395.645191</ele>
        <time>2021-11-22T12:45:51.652Z</time>
      </trkpt>
      <trkpt lat="47.634454" lon="7.740276">
        <ele>393.955540</ele>
        <time>2021-11-22T12:45:55.764Z</time>
      </trkpt>
      <trkpt lat="47.634675" lon="7.740206">
        <ele>392.713014</ele>
        <time>2021-11-22T12:45:58.766Z</time>
      </trkpt>
      <trkpt lat="47.635167" lon="7.740263">
        <ele>389.999552</ele>
        <time>2021-11-22T12:46:05.366Z</time>
      </trkpt>
      <trkpt lat="47.635977" lon="7.740654">
        <ele>384.872386</ele>
        <time>2021-11-22T12:46:16.669Z</time>
      </trkpt>
      <trkpt lat="47.636417" lon="7.740311">
        <ele>381.667095</ele>
        <time>2021-11-22T12:46:23.177Z</time>
      </trkpt>
      <trkpt lat="47.636642" lon="7.740236">
        <ele>380.179885</ele>
        <time>2021-11-22T12:46:26.144Z</time>
      </trkpt>
      <trkpt lat="47.636927" lon="7.740332">
        <ele>378.295128</ele>
        <time>2021-11-22T12:46:29.928Z</time>
      </trkpt>
      <trkpt lat="47.637075" lon="7.740488">
        <ele>377.124408</ele>
        <time>2021-11-22T12:46:32.285Z</time>
      </trkpt>
      <trkpt lat="47.637234" lon="7.740799">
        <ele>374.762277</ele>
        <time>2021-11-22T12:46:35.731Z</time>
      </trkpt>
      <trkpt lat="47.637528" lon="7.741566">
        <ele>367.941692</ele>
        <time>2021-11-22T12:46:43.015Z</time>
      </trkpt>
      <trkpt lat="47.637556" lon="7.741902">
        <ele>365.324828</ele>
        <time>2021-11-22T12:46:44.923Z</time>
      </trkpt>
      <trkpt lat="47.637523" lon="7.742385">
        <ele>361.572386</ele>
        <time>2021-11-22T12:46:47.658Z</time>
      </trkpt>
      <trkpt lat="47.637552" lon="7.742900">
        <ele>357.577870</ele>
        <time>2021-11-22T12:46:50.568Z</time>
      </trkpt>
      <trkpt lat="47.637644" lon="7.743238">
        <ele>354.782171</ele>
        <time>2021-11-22T12:46:52.632Z</time>
      </trkpt>
      <trkpt lat="47.637785" lon="7.743491">
        <ele>352.306956</ele>
        <time>2021-11-22T12:46:54.474Z</time>
      </trkpt>
      <trkpt lat="47.638011" lon="7.743662">
        <ele>349.468712</ele>
        <time>2021-11-22T12:46:56.600Z</time>
      </trkpt>
      <trkpt lat="47.638337" lon="7.743810">
        <ele>345.654453</ele>
        <time>2021-11-22T12:46:59.486Z</time>
      </trkpt>
      <trkpt lat="47.638586" lon="7.743801">
        <ele>342.867715</ele>
        <time>2021-11-22T12:47:01.623Z</time>
      </trkpt>
      <trkpt lat="47.638834" lon="7.743716">
        <ele>340.019959</ele>
        <time>2021-11-22T12:47:03.764Z</time>
      </trkpt>
      <trkpt lat="47.639034" lon="7.743640">
        <ele>337.710093</ele>
        <time>2021-11-22T12:47:05.531Z</time>
      </trkpt>
      <trkpt lat="47.639124" lon="7.743936">
        <ele>335.460728</ele>
        <time>2021-11-22T12:47:07.449Z</time>
      </trkpt>
      <trkpt lat="47.639286" lon="7.744230">
        <ele>334.748416</ele>
        <time>2021-11-22T12:47:09.772Z</time>
      </trkpt>
      <trkpt lat="47.639556" lon="7.744495">
        <ele>333.847387</ele>
        <time>2021-11-22T12:47:13.096Z</time>
      </trkpt>
      <trkpt lat="47.639626" lon="7.744564">
        <ele>333.613480</ele>
        <time>2021-11-22T12:47:14.002Z</time>
      </trkpt>
      <trkpt lat="47.639661" lon="7.744599">
        <ele>333.496005</ele>
        <time>2021-11-22T12:47:14.555Z</time>
      </trkpt>
      <trkpt lat="47.640175" lon="7.745392">
        <ele>331.432273</ele>
        <time>2021-11-22T12:47:23.684Z</time>
      </trkpt>
      <trkpt lat="47.640698" lon="7.744798">
        <ele>330.375630</ele>
        <time>2021-11-22T12:47:32.939Z</time>
      </trkpt>
      <trkpt lat="47.640802" lon="7.744697">
        <ele>330.321397</ele>
        <time>2021-11-22T12:47:34.631Z</time>
      </trkpt>
      <trkpt lat="47.640859" lon="7.744671">
        <ele>330.295377</ele>
        <time>2021-11-22T12:47:35.451Z</time>
      </trkpt>
      <trkpt lat="47.640958" lon="7.744746">
        <ele>330.246876</ele>
        <time>2021-11-22T12:47:36.985Z</time>
      </trkpt>
      <trkpt lat="47.640998" lon="7.744824">
        <ele>330.218057</ele>
        <time>2021-11-22T12:47:37.935Z</time>
      </trkpt>
      <trkpt lat="47.641056" lon="7.744855">
        <ele>330.191157</ele>
        <time>2021-11-22T12:47:38.802Z</time>
      </trkpt>
      <trkpt lat="47.641149" lon="7.744754">
        <ele>330.140872</ele>
        <time>2021-11-22T12:47:40.293Z</time>
      </trkpt>
      <trkpt lat="47.641098" lon="7.744530">
        <ele>330.071357</ele>
        <time>2021-11-22T12:47:42.424Z</time>
      </trkpt>
      <trkpt lat="47.641089" lon="7.744504">
        <ele>330.062763</ele>
        <time>2021-11-22T12:47:42.741Z</time>
      </trkpt>
      <trkpt lat="47.641021" lon="7.744322">
        <ele>330.001577</ele>
        <time>2021-11-22T12:47:44.517Z</time>
      </trkpt>
      <trkpt lat="47.641118" lon="7.744203">
        <ele>329.946663</ele>
        <time>2021-11-22T12:47:46.155Z</time>
      </trkpt>
      <trkpt lat="47.641133" lon="7.744182">
        <ele>329.937665</ele>
        <time>2021-11-22T12:47:46.427Z</time>
      </trkpt>
      <trkpt lat="47.641440" lon="7.743669">
        <ele>329.735940</ele>
        <time>2021-11-22T12:47:52.485Z</time>
      </trkpt>
      <trkpt lat="47.641543" lon="7.743498">
        <ele>329.710273</ele>
        <time>2021-11-22T12:47:54.527Z</time>
      </trkpt>
      <trkpt lat="47.641651" lon="7.743319">
        <ele>329.683912</ele>
        <time>2021-11-22T12:47:56.892Z</time>
      </trkpt>
      <trkpt lat="47.641773" lon="7.743087">
        <ele>329.651624</ele>
        <time>2021-11-22T12:47:59.506Z</time>
      </trkpt>
      <trkpt lat="47.641802" lon="7.742982">
        <ele>329.639174</ele>
        <time>2021-11-22T12:48:00.637Z</time>
      </trkpt>
      <trkpt lat="47.641858" lon="7.742708">
        <ele>329.607761</ele>
        <time>2021-11-22T12:48:03.327Z</time>
      </trkpt>
      <trkpt lat="47.641875" lon="7.742622">
        <ele>329.597928</ele>
        <time>2021-11-22T12:48:04.119Z</time>
      </trkpt>
      <trkpt lat="47.641887" lon="7.742564">
        <ele>329.591272</ele>
        <time>2021-11-22T12:48:04.677Z</time>
      </trkpt>
      <trkpt lat="47.641903" lon="7.742471">
        <ele>329.580741</ele>
        <time>2021-11-22T12:48:05.694Z</time>
      </trkpt>
      <trkpt lat="47.641935" lon="7.742324">
        <ele>329.563793</ele>
        <time>2021-11-22T12:48:07.266Z</time>
      </trkpt>
      <trkpt lat="47.641952" lon="7.742244">
        <ele>329.554590</ele>
        <time>2021-11-22T12:48:08.074Z</time>
      </trkpt>
      <trkpt lat="47.641960" lon="7.742153">
        <ele>329.544522</ele>
        <time>2021-11-22T12:48:08.932Z</time>
      </trkpt>
      <trkpt lat="47.641958" lon="7.742061">
        <ele>329.534423</ele>
        <time>2021-11-22T12:48:09.805Z</time>
      </trkpt>
      <trkpt lat="47.641954" lon="7.741976">
        <ele>329.525075</ele>
        <time>2021-11-22T12:48:10.628Z</time>
      </trkpt>
      <trkpt lat="47.641997" lon="7.741966">
        <ele>329.517988</ele>
        <time>2021-11-22T12:48:11.361Z</time>
      </trkpt>
      <trkpt lat="47.642066" lon="7.741908">
        <ele>329.505075</ele>
        <time>2021-11-22T12:48:12.566Z</time>
      </trkpt>
      <trkpt lat="47.642209" lon="7.741595">
        <ele>329.463586</ele>
        <time>2021-11-22T12:48:16.335Z</time>
      </trkpt>
      <trkpt lat="47.642274" lon="7.741453">
        <ele>329.444752</ele>
        <time>2021-11-22T12:48:18.173Z</time>
      </trkpt>
      <trkpt lat="47.642394" lon="7.741202">
        <ele>329.499850</ele>
        <time>2021-11-22T12:48:21.252Z</time>
      </trkpt>
      <trkpt lat="47.642519" lon="7.740966">
        <ele>329.560495</ele>
        <time>2021-11-22T12:48:24.449Z</time>
      </trkpt>
      <trkpt lat="47.642647" lon="7.740709">
        <ele>329.625059</ele>
        <time>2021-11-22T12:48:27.720Z</time>
      </trkpt>
      <trkpt lat="47.642798" lon="7.740374">
        <ele>329.706484</ele>
        <time>2021-11-22T12:48:32.055Z</time>
      </trkpt>
      <trkpt lat="47.642822" lon="7.740329">
        <ele>329.718078</ele>
        <time>2021-11-22T12:48:32.642Z</time>
      </trkpt>
      <trkpt lat="47.642862" lon="7.740256">
        <ele>329.737086</ele>
        <time>2021-11-22T12:48:33.744Z</time>
      </trkpt>
      <trkpt lat="47.642911" lon="7.740194">
        <ele>329.756393</ele>
        <time>2021-11-22T12:48:34.831Z</time>
      </trkpt>
      <trkpt lat="47.642922" lon="7.740181">
        <ele>329.760609</ele>
        <time>2021-11-22T12:48:35.060Z</time>
      </trkpt>
      <trkpt lat="47.642972" lon="7.740117">
        <ele>329.780406</ele>
        <time>2021-11-22T12:48:36.115Z</time>
      </trkpt>
      <trkpt lat="47.643121" lon="7.740032">
        <ele>329.828268</ele>
        <time>2021-11-22T12:48:38.695Z</time>
      </trkpt>
      <trkpt lat="47.643168" lon="7.740007">
        <ele>329.843238</ele>
        <time>2021-11-22T12:48:39.523Z</time>
      </trkpt>
      <trkpt lat="47.643301" lon="7.739935">
        <ele>329.885687</ele>
        <time>2021-11-22T12:48:41.812Z</time>
      </trkpt>
      <trkpt lat="47.643475" lon="7.739785">
        <ele>329.946021</ele>
        <time>2021-11-22T12:48:45.178Z</time>
      </trkpt>
      <trkpt lat="47.643591" lon="7.740215">
        <ele>330.097079</ele>
        <time>2021-11-22T12:48:50.467Z</time>
      </trkpt>
      <trkpt lat="47.643656" lon="7.740319">
        <ele>330.154128</ele>
        <time>2021-11-22T12:48:52.062Z</time>
      </trkpt>
      <trkpt lat="47.643783" lon="7.740468">
        <ele>330.250757</ele>
        <time>2021-11-22T12:48:54.725Z</time>
      </trkpt>
      <trkpt lat="47.643881" lon="7.740570">
        <ele>330.322202</ele>
        <time>2021-11-22T12:48:56.772Z</time>
      </trkpt>
      <trkpt lat="47.643938" lon="7.740664">
        <ele>330.373061</ele>
        <time>2021-11-22T12:48:58.206Z</time>
      </trkpt>
      <trkpt lat="47.644034" lon="7.740945">
        <ele>330.499764</ele>
        <time>2021-11-22T12:49:01.726Z</time>
      </trkpt>
      <trkpt lat="47.644056" lon="7.741009">
        <ele>330.528659</ele>
        <time>2021-11-22T12:49:02.555Z</time>
      </trkpt>
      <trkpt lat="47.644157" lon="7.741340">
        <ele>330.674787</ele>
        <time>2021-11-22T12:49:06.681Z</time>
      </trkpt>
      <trkpt lat="47.644182" lon="7.741417">
        <ele>330.709161</ele>
        <time>2021-11-22T12:49:07.693Z</time>
      </trkpt>
      <trkpt lat="47.644276" lon="7.741683">
        <ele>330.829955</ele>
        <time>2021-11-22T12:49:11.319Z</time>
      </trkpt>
      <trkpt lat="47.644397" lon="7.741849">
        <ele>330.928306</ele>
        <time>2021-11-22T12:49:14.256Z</time>
      </trkpt>
      <trkpt lat="47.644599" lon="7.742155">
        <ele>331.138123</ele>
        <time>2021-11-22T12:49:19.452Z</time>
      </trkpt>
      <trkpt lat="47.644669" lon="7.742280">
        <ele>331.257518</ele>
        <time>2021-11-22T12:49:21.471Z</time>
      </trkpt>
      <trkpt lat="47.644734" lon="7.742487">
        <ele>331.425273</ele>
        <time>2021-11-22T12:49:24.334Z</time>
      </trkpt>
      <trkpt lat="47.644925" lon="7.743203">
        <ele>331.990933</ele>
        <time>2021-11-22T12:49:33.974Z</time>
      </trkpt>
      <trkpt lat="47.645054" lon="7.743433">
        <ele>332.210759</ele>
        <time>2021-11-22T12:49:37.756Z</time>
      </trkpt>
      <trkpt lat="47.645131" lon="7.743484">
        <ele>332.302689</ele>
        <time>2021-11-22T12:49:39.365Z</time>
      </trkpt>
      <trkpt lat="47.645188" lon="7.743513">
        <ele>332.368384</ele>
        <time>2021-11-22T12:49:40.517Z</time>
      </trkpt>
      <trkpt lat="47.645734" lon="7.743440">
        <ele>332.966083</ele>
        <time>2021-11-22T12:49:51.334Z</time>
      </trkpt>
      <trkpt lat="47.645911" lon="7.743330">
        <ele>333.477185</ele>
        <time>2021-11-22T12:49:54.941Z</time>
      </trkpt>
      <trkpt lat="47.646017" lon="7.743245">
        <ele>333.857783</ele>
        <time>2021-11-22T12:49:57.723Z</time>
      </trkpt>
      <trkpt lat="47.646406" lon="7.742933">
        <ele>335.254572</ele>
        <time>2021-11-22T12:50:07.975Z</time>
      </trkpt>
      <trkpt lat="47.646642" lon="7.742762">
        <ele>336.084187</ele>
        <time>2021-11-22T12:50:14.465Z</time>
      </trkpt>
      <trkpt lat="47.646840" lon="7.742630">
        <ele>336.769865</ele>
        <time>2021-11-22T12:50:20.245Z</time>
      </trkpt>
      <trkpt lat="47.646932" lon="7.742608">
        <ele>337.064243</ele>
        <time>2021-11-22T12:50:22.699Z</time>
      </trkpt>
      <trkpt lat="47.647031" lon="7.742584">
        <ele>337.381130</ele>
        <time>2021-11-22T12:50:26.166Z</time>
      </trkpt>
      <trkpt lat="47.647263" lon="7.742628">
        <ele>338.119983</ele>
        <time>2021-11-22T12:50:33.412Z</time>
      </trkpt>
      <trkpt lat="47.647668" lon="7.742782">
        <ele>340.391602</ele>
        <time>2021-11-22T12:50:49.125Z</time>
      </trkpt>
      <trkpt lat="47.647923" lon="7.742761">
        <ele>342.231566</ele>
        <time>2021-11-22T12:50:59.968Z</time>
      </trkpt>
      <trkpt lat="47.648430" lon="7.742708">
        <ele>345.893277</ele>
        <time>2021-11-22T12:51:23.312Z</time>
      </trkpt>
      <trkpt lat="47.648686" lon="7.742761">
        <ele>347.755472</ele>
        <time>2021-11-22T12:51:35.738Z</time>
      </trkpt>
      <trkpt lat="47.648726" lon="7.742773">
        <ele>348.049478</ele>
        <time>2021-11-22T12:51:37.690Z</time>
      </trkpt>
      <trkpt lat="47.649349" lon="7.742957">
        <ele>352.409203</ele>
        <time>2021-11-22T12:52:07.906Z</time>
      </trkpt>
      <trkpt lat="47.650238" lon="7.743181">
        <ele>357.453837</ele>
        <time>2021-11-22T12:52:45.940Z</time>
      </trkpt>
      <trkpt lat="47.650941" lon="7.743251">
        <ele>361.395595</ele>
        <time>2021-11-22T12:53:08.105Z</time>
      </trkpt>
      <trkpt lat="47.651664" lon="7.743365">
        <ele>362.877939</ele>
        <time>2021-11-22T12:53:25.038Z</time>
      </trkpt>
      <trkpt lat="47.652352" lon="7.743329">
        <ele>364.070143</ele>
        <time>2021-11-22T12:53:38.080Z</time>
      </trkpt>
      <trkpt lat="47.653011" lon="7.743041">
        <ele>364.994984</ele>
        <time>2021-11-22T12:53:51.342Z</time>
      </trkpt>
      <trkpt lat="47.653639" lon="7.742914">
        <ele>365.410344</ele>
        <time>2021-11-22T12:54:04.150Z</time>
      </trkpt>
      <trkpt lat="47.654324" lon="7.743075">
        <ele>365.864850</ele>
        <time>2021-11-22T12:54:18.576Z</time>
      </trkpt>
      <trkpt lat="47.656129" lon="7.743833">
        <ele>361.591858</ele>
        <time>2021-11-22T12:54:38.827Z</time>
      </trkpt>
      <trkpt lat="47.656592" lon="7.744040">
        <ele>359.445787</ele>
        <time>2021-11-22T12:54:43.238Z</time>
      </trkpt>
      <trkpt lat="47.656638" lon="7.744059">
        <ele>359.196770</ele>
        <time>2021-11-22T12:54:43.694Z</time>
      </trkpt>
      <trkpt lat="47.656699" lon="7.743927">
        <ele>358.634426</ele>
        <time>2021-11-22T12:54:44.631Z</time>
      </trkpt>
      <trkpt lat="47.656798" lon="7.743812">
        <ele>357.978844</ele>
        <time>2021-11-22T12:54:45.778Z</time>
      </trkpt>
      <trkpt lat="47.656895" lon="7.743736">
        <ele>357.406830</ele>
        <time>2021-11-22T12:54:46.845Z</time>
      </trkpt>
      <trkpt lat="47.657026" lon="7.743637">
        <ele>356.640199</ele>
        <time>2021-11-22T12:54:48.133Z</time>
      </trkpt>
      <trkpt lat="47.657396" lon="7.743356">
        <ele>354.472702</ele>
        <time>2021-11-22T12:54:51.959Z</time>
      </trkpt>
      <trkpt lat="47.657946" lon="7.742967">
        <ele>351.917752</ele>
        <time>2021-11-22T12:54:57.710Z</time>
      </trkpt>
      <trkpt lat="47.658430" lon="7.742636">
        <ele>352.469542</ele>
        <time>2021-11-22T12:55:03.684Z</time>
      </trkpt>
      <trkpt lat="47.659389" lon="7.741651">
        <ele>353.677042</ele>
        <time>2021-11-22T12:55:37.464Z</time>
      </trkpt>
      <trkpt lat="47.659914" lon="7.741102">
        <ele>356.501699</ele>
        <time>2021-11-22T12:55:54.500Z</time>
      </trkpt>
      <trkpt lat="47.660092" lon="7.740956">
        <ele>357.396302</ele>
        <time>2021-11-22T12:55:59.951Z</time>
      </trkpt>
      <trkpt lat="47.660437" lon="7.740780">
        <ele>359.001113</ele>
        <time>2021-11-22T12:56:13.885Z</time>
      </trkpt>
      <trkpt lat="47.661298" lon="7.741035">
        <ele>363.237001</ele>
        <time>2021-11-22T12:56:45.816Z</time>
      </trkpt>
      <trkpt lat="47.661424" lon="7.741131">
        <ele>364.042740</ele>
        <time>2021-11-22T12:56:51.557Z</time>
      </trkpt>
      <trkpt lat="47.661483" lon="7.741188">
        <ele>364.443218</ele>
        <time>2021-11-22T12:56:53.577Z</time>
      </trkpt>
      <trkpt lat="47.661611" lon="7.741276">
        <ele>365.245741</ele>
        <time>2021-11-22T12:56:57.980Z</time>
      </trkpt>
      <trkpt lat="47.661674" lon="7.741304">
        <ele>365.619887</ele>
        <time>2021-11-22T12:57:00.925Z</time>
      </trkpt>
      <trkpt lat="47.661687" lon="7.741310">
        <ele>365.697340</ele>
        <time>2021-11-22T12:57:02.418Z</time>
      </trkpt>
      <trkpt lat="47.662726" lon="7.741265">
        <ele>371.611137</ele>
        <time>2021-11-22T12:57:41.298Z</time>
      </trkpt>
      <trkpt lat="47.663281" lon="7.741134">
        <ele>373.150852</ele>
        <time>2021-11-22T12:58:03.196Z</time>
      </trkpt>
      <trkpt lat="47.663991" lon="7.741248">
        <ele>374.958091</ele>
        <time>2021-11-22T12:58:20.517Z</time>
      </trkpt>
      <trkpt lat="47.664445" lon="7.741223">
        <ele>376.107798</ele>
        <time>2021-11-22T12:58:27.531Z</time>
      </trkpt>
      <trkpt lat="47.664884" lon="7.741112">
        <ele>375.682905</ele>
        <time>2021-11-22T12:58:33.070Z</time>
      </trkpt>
      <trkpt lat="47.665373" lon="7.741092">
        <ele>374.687295</ele>
        <time>2021-11-22T12:58:38.605Z</time>
      </trkpt>
      <trkpt lat="47.665679" lon="7.741103">
        <ele>374.064329</ele>
        <time>2021-11-22T12:58:41.799Z</time>
      </trkpt>
      <trkpt lat="47.666724" lon="7.741022">
        <ele>371.662428</ele>
        <time>2021-11-22T12:58:52.458Z</time>
      </trkpt>
      <trkpt lat="47.667361" lon="7.741151">
        <ele>369.897023</ele>
        <time>2021-11-22T12:58:59.037Z</time>
      </trkpt>
      <trkpt lat="47.668124" lon="7.740949">
        <ele>367.768333</ele>
        <time>2021-11-22T12:59:07.662Z</time>
      </trkpt>
      <trkpt lat="47.669055" lon="7.741049">
        <ele>365.020337</ele>
        <time>2021-11-22T12:59:16.995Z</time>
      </trkpt>
      <trkpt lat="47.669351" lon="7.740999">
        <ele>364.143302</ele>
        <time>2021-11-22T12:59:19.963Z</time>
      </trkpt>
      <trkpt lat="47.669494" lon="7.740943">
        <ele>363.707922</ele>
        <time>2021-11-22T12:59:21.444Z</time>
      </trkpt>
      <trkpt lat="47.669750" lon="7.740792">
        <ele>362.896990</ele>
        <time>2021-11-22T12:59:24.333Z</time>
      </trkpt>
      <trkpt lat="47.670203" lon="7.740193">
        <ele>361.893622</ele>
        <time>2021-11-22T12:59:31.083Z</time>
      </trkpt>
      <trkpt lat="47.670331" lon="7.739901">
        <ele>361.597786</ele>
        <time>2021-11-22T12:59:33.512Z</time>
      </trkpt>
      <trkpt lat="47.670753" lon="7.738859">
        <ele>360.565366</ele>
        <time>2021-11-22T12:59:43.115Z</time>
      </trkpt>
      <trkpt lat="47.671021" lon="7.738380">
        <ele>360.427737</ele>
        <time>2021-11-22T12:59:50.119Z</time>
      </trkpt>
      <trkpt lat="47.671278" lon="7.738030">
        <ele>360.969596</ele>
        <time>2021-11-22T12:59:57.028Z</time>
      </trkpt>
      <trkpt lat="47.671561" lon="7.737762">
        <ele>361.491157</ele>
        <time>2021-11-22T13:00:05.014Z</time>
      </trkpt>
      <trkpt lat="47.672890" lon="7.736693">
        <ele>364.247858</ele>
        <time>2021-11-22T13:00:38.952Z</time>
      </trkpt>
      <trkpt lat="47.673154" lon="7.736575">
        <ele>364.886136</ele>
        <time>2021-11-22T13:00:46.114Z</time>
      </trkpt>
      <trkpt lat="47.673344" lon="7.736511">
        <ele>365.337184</ele>
        <time>2021-11-22T13:00:51.194Z</time>
      </trkpt>
      <trkpt lat="47.673492" lon="7.736461">
        <ele>365.688578</ele>
        <time>2021-11-22T13:00:55.137Z</time>
      </trkpt>
      <trkpt lat="47.673855" lon="7.736387">
        <ele>366.536852</ele>
        <time>2021-11-22T13:01:04.397Z</time>
      </trkpt>
      <trkpt lat="47.674295" lon="7.736409">
        <ele>367.251072</ele>
        <time>2021-11-22T13:01:14.904Z</time>
      </trkpt>
      <trkpt lat="47.674982" lon="7.736550">
        <ele>367.585467</ele>
        <time>2021-11-22T13:01:29.777Z</time>
      </trkpt>
      <trkpt lat="47.676927" lon="7.737026">
        <ele>367.207403</ele>
        <time>2021-11-22T13:01:54.414Z</time>
      </trkpt>
      <trkpt lat="47.677732" lon="7.737060">
        <ele>366.609843</ele>
        <time>2021-11-22T13:02:04.210Z</time>
      </trkpt>
      <trkpt lat="47.678261" lon="7.737149">
        <ele>366.865071</ele>
        <time>2021-11-22T13:02:11.853Z</time>
      </trkpt>
      <trkpt lat="47.679182" lon="7.737480">
        <ele>367.319348</ele>
        <time>2021-11-22T13:02:28.610Z</time>
      </trkpt>
      <trkpt lat="47.679312" lon="7.737558">
        <ele>367.386564</ele>
        <time>2021-11-22T13:02:31.809Z</time>
      </trkpt>
      <trkpt lat="47.679681" lon="7.737780">
        <ele>367.790724</ele>
        <time>2021-11-22T13:02:40.200Z</time>
      </trkpt>
      <trkpt lat="47.680227" lon="7.738094">
        <ele>368.553876</ele>
        <time>2021-11-22T13:02:52.104Z</time>
      </trkpt>
      <trkpt lat="47.680533" lon="7.738227">
        <ele>368.969450</ele>
        <time>2021-11-22T13:02:58.520Z</time>
      </trkpt>
      <trkpt lat="47.681369" lon="7.738489">
        <ele>370.006185</ele>
        <time>2021-11-22T13:03:15.180Z</time>
      </trkpt>
      <trkpt lat="47.683198" lon="7.738684">
        <ele>371.819618</ele>
        <time>2021-11-22T13:03:48.989Z</time>
      </trkpt>
      <trkpt lat="47.683619" lon="7.738743">
        <ele>372.334667</ele>
        <time>2021-11-22T13:03:57.027Z</time>
      </trkpt>
      <trkpt lat="47.683955" lon="7.738770">
        <ele>372.744509</ele>
        <time>2021-11-22T13:04:03.584Z</time>
      </trkpt>
      <trkpt lat="47.684345" lon="7.738781">
        <ele>373.219610</ele>
        <time>2021-11-22T13:04:11.289Z</time>
      </trkpt>
      <trkpt lat="47.684782" lon="7.738700">
        <ele>373.779193</ele>
        <time>2021-11-22T13:04:20.706Z</time>
      </trkpt>
      <trkpt lat="47.685295" lon="7.738591">
        <ele>374.676408</ele>
        <time>2021-11-22T13:04:31.902Z</time>
      </trkpt>
      <trkpt lat="47.685814" lon="7.738454">
        <ele>375.589048</ele>
        <time>2021-11-22T13:04:42.978Z</time>
      </trkpt>
      <trkpt lat="47.685871" lon="7.738439">
        <ele>375.689270</ele>
        <time>2021-11-22T13:04:44.483Z</time>
      </trkpt>
      <trkpt lat="47.686856" lon="7.738288">
        <ele>377.537481</ele>
        <time>2021-11-22T13:05:06.378Z</time>
      </trkpt>
      <trkpt lat="47.688003" lon="7.737904">
        <ele>380.035770</ele>
        <time>2021-11-22T13:05:34.757Z</time>
      </trkpt>
      <trkpt lat="47.688176" lon="7.737850">
        <ele>380.411390</ele>
        <time>2021-11-22T13:05:38.971Z</time>
      </trkpt>
      <trkpt lat="47.688795" lon="7.737743">
        <ele>381.725030</ele>
        <time>2021-11-22T13:05:52.776Z</time>
      </trkpt>
      <trkpt lat="47.688900" lon="7.737742">
        <ele>381.946009</ele>
        <time>2021-11-22T13:05:55.166Z</time>
      </trkpt>
      <trkpt lat="47.689192" lon="7.737735">
        <ele>382.560608</ele>
        <time>2021-11-22T13:06:01.730Z</time>
      </trkpt>
      <trkpt lat="47.689715" lon="7.737879">
        <ele>383.680016</ele>
        <time>2021-11-22T13:06:14.115Z</time>
      </trkpt>
      <trkpt lat="47.690188" lon="7.738141">
        <ele>384.913267</ele>
        <time>2021-11-22T13:06:26.249Z</time>
      </trkpt>
      <trkpt lat="47.690373" lon="7.738251">
        <ele>385.556332</ele>
        <time>2021-11-22T13:06:31.398Z</time>
      </trkpt>
      <trkpt lat="47.690414" lon="7.738257">
        <ele>385.689284</ele>
        <time>2021-11-22T13:06:32.267Z</time>
      </trkpt>
      <trkpt lat="47.690466" lon="7.738254">
        <ele>385.857222</ele>
        <time>2021-11-22T13:06:33.324Z</time>
      </trkpt>
      <trkpt lat="47.690534" lon="7.738217">
        <ele>386.090923</ele>
        <time>2021-11-22T13:06:34.892Z</time>
      </trkpt>
      <trkpt lat="47.690547" lon="7.738192">
        <ele>386.159548</ele>
        <time>2021-11-22T13:06:35.440Z</time>
      </trkpt>
      <trkpt lat="47.690574" lon="7.738144">
        <ele>386.295431</ele>
        <time>2021-11-22T13:06:36.822Z</time>
      </trkpt>
      <trkpt lat="47.690612" lon="7.737827">
        <ele>386.994882</ele>
        <time>2021-11-22T13:06:42.321Z</time>
      </trkpt>
      <trkpt lat="47.690620" lon="7.737763">
        <ele>387.136286</ele>
        <time>2021-11-22T13:06:43.303Z</time>
      </trkpt>
      <trkpt lat="47.690632" lon="7.737490">
        <ele>387.730585</ele>
        <time>2021-11-22T13:06:48.786Z</time>
      </trkpt>
      <trkpt lat="47.690679" lon="7.737208">
        <ele>388.361669</ele>
        <time>2021-11-22T13:06:53.456Z</time>
      </trkpt>
      <trkpt lat="47.690725" lon="7.737033">
        <ele>388.769776</ele>
        <time>2021-11-22T13:06:57.649Z</time>
      </trkpt>
      <trkpt lat="47.690749" lon="7.736943">
        <ele>388.980064</ele>
        <time>2021-11-22T13:06:59.997Z</time>
      </trkpt>
      <trkpt lat="47.690889" lon="7.736615">
        <ele>389.823742</ele>
        <time>2021-11-22T13:07:07.736Z</time>
      </trkpt>
      <trkpt lat="47.690896" lon="7.736599">
        <ele>389.865194</ele>
        <time>2021-11-22T13:07:08.322Z</time>
      </trkpt>
      <trkpt lat="47.691042" lon="7.736262">
        <ele>390.996600</ele>
        <time>2021-11-22T13:07:16.846Z</time>
      </trkpt>
      <trkpt lat="47.691079" lon="7.736139">
        <ele>391.439156</ele>
        <time>2021-11-22T13:07:20.306Z</time>
      </trkpt>
      <trkpt lat="47.691112" lon="7.736029">
        <ele>391.834759</ele>
        <time>2021-11-22T13:07:23.453Z</time>
      </trkpt>
      <trkpt lat="47.691151" lon="7.735638">
        <ele>393.133185</ele>
        <time>2021-11-22T13:07:31.897Z</time>
      </trkpt>
      <trkpt lat="47.691181" lon="7.735378">
        <ele>393.999720</ele>
        <time>2021-11-22T13:07:38.762Z</time>
      </trkpt>
      <trkpt lat="47.691228" lon="7.735244">
        <ele>394.496071</ele>
        <time>2021-11-22T13:07:41.738Z</time>
      </trkpt>
      <trkpt lat="47.691290" lon="7.735124">
        <ele>394.992992</ele>
        <time>2021-11-22T13:07:45.407Z</time>
      </trkpt>
      <trkpt lat="47.691410" lon="7.734953">
        <ele>395.804451</ele>
        <time>2021-11-22T13:07:51.728Z</time>
      </trkpt>
      <trkpt lat="47.691565" lon="7.734601">
        <ele>397.186171</ele>
        <time>2021-11-22T13:08:01.385Z</time>
      </trkpt>
      <trkpt lat="47.691821" lon="7.733370">
        <ele>401.288919</ele>
        <time>2021-11-22T13:08:31.832Z</time>
      </trkpt>
      <trkpt lat="47.692100" lon="7.732458">
        <ele>404.403060</ele>
        <time>2021-11-22T13:08:55.169Z</time>
      </trkpt>
      <trkpt lat="47.692365" lon="7.731840">
        <ele>406.680892</ele>
        <time>2021-11-22T13:09:11.371Z</time>
      </trkpt>
      <trkpt lat="47.692919" lon="7.730904">
        <ele>409.019895</ele>
        <time>2021-11-22T13:09:34.897Z</time>
      </trkpt>
      <trkpt lat="47.693469" lon="7.729648">
        <ele>411.473484</ele>
        <time>2021-11-22T13:09:56.936Z</time>
      </trkpt>
      <trkpt lat="47.693568" lon="7.729472">
        <ele>411.863409</ele>
        <time>2021-11-22T13:09:59.118Z</time>
      </trkpt>
      <trkpt lat="47.693776" lon="7.729311">
        <ele>412.484266</ele>
        <time>2021-11-22T13:10:05.308Z</time>
      </trkpt>
      <trkpt lat="47.693870" lon="7.729281">
        <ele>412.738776</ele>
        <time>2021-11-22T13:10:06.489Z</time>
      </trkpt>
      <trkpt lat="47.693987" lon="7.729271">
        <ele>413.049006</ele>
        <time>2021-11-22T13:10:09.540Z</time>
      </trkpt>
      <trkpt lat="47.694378" lon="7.729421">
        <ele>414.117996</ele>
        <time>2021-11-22T13:10:19.017Z</time>
      </trkpt>
      <trkpt lat="47.694711" lon="7.729402">
        <ele>415.000150</ele>
        <time>2021-11-22T13:10:26.953Z</time>
      </trkpt>
      <trkpt lat="47.695807" lon="7.728706">
        <ele>419.828638</ele>
        <time>2021-11-22T13:11:03.968Z</time>
      </trkpt>
      <trkpt lat="47.696413" lon="7.728504">
        <ele>423.083571</ele>
        <time>2021-11-22T13:11:27.709Z</time>
      </trkpt>
      <trkpt lat="47.696568" lon="7.728354">
        <ele>424.053033</ele>
        <time>2021-11-22T13:11:34.564Z</time>
      </trkpt>
      <trkpt lat="47.696636" lon="7.728107">
        <ele>424.994374</ele>
        <time>2021-11-22T13:11:42.059Z</time>
      </trkpt>
      <trkpt lat="47.696602" lon="7.727678">
        <ele>426.671084</ele>
        <time>2021-11-22T13:11:53.469Z</time>
      </trkpt>
      <trkpt lat="47.696640" lon="7.727461">
        <ele>427.649919</ele>
        <time>2021-11-22T13:11:59.455Z</time>
      </trkpt>
      <trkpt lat="47.696750" lon="7.727287">
        <ele>428.692027</ele>
        <time>2021-11-22T13:12:05.874Z</time>
      </trkpt>
      <trkpt lat="47.696882" lon="7.727201">
        <ele>429.626871</ele>
        <time>2021-11-22T13:12:11.874Z</time>
      </trkpt>
      <trkpt lat="47.697049" lon="7.727109">
        <ele>430.782088</ele>
        <time>2021-11-22T13:12:18.755Z</time>
      </trkpt>
      <trkpt lat="47.697155" lon="7.726954">
        <ele>431.746717</ele>
        <time>2021-11-22T13:12:25.177Z</time>
      </trkpt>
      <trkpt lat="47.697199" lon="7.726673">
        <ele>433.006148</ele>
        <time>2021-11-22T13:12:32.594Z</time>
      </trkpt>
      <trkpt lat="47.697197" lon="7.725491">
        <ele>438.223340</ele>
        <time>2021-11-22T13:13:05.686Z</time>
      </trkpt>
      <trkpt lat="47.697272" lon="7.725045">
        <ele>440.413844</ele>
        <time>2021-11-22T13:13:19.207Z</time>
      </trkpt>
      <trkpt lat="47.697392" lon="7.724648">
        <ele>442.487546</ele>
        <time>2021-11-22T13:13:32.552Z</time>
      </trkpt>
      <trkpt lat="47.697983" lon="7.724178">
        <ele>447.233287</ele>
        <time>2021-11-22T13:14:01.880Z</time>
      </trkpt>
      <trkpt lat="47.698038" lon="7.724068">
        <ele>447.886234</ele>
        <time>2021-11-22T13:14:05.896Z</time>
      </trkpt>
      <trkpt lat="47.698067" lon="7.723848">
        <ele>448.954427</ele>
        <time>2021-11-22T13:14:12.396Z</time>
      </trkpt>
      <trkpt lat="47.697898" lon="7.723278">
        <ele>451.483254</ele>
        <time>2021-11-22T13:14:30.048Z</time>
      </trkpt>
      <trkpt lat="47.697882" lon="7.723002">
        <ele>452.451682</ele>
        <time>2021-11-22T13:14:37.676Z</time>
      </trkpt>
      <trkpt lat="47.698034" lon="7.722637">
        <ele>453.952169</ele>
        <time>2021-11-22T13:14:49.058Z</time>
      </trkpt>
      <trkpt lat="47.698436" lon="7.722264">
        <ele>456.413912</ele>
        <time>2021-11-22T13:15:06.374Z</time>
      </trkpt>
      <trkpt lat="47.698550" lon="7.722049">
        <ele>457.370741</ele>
        <time>2021-11-22T13:15:12.457Z</time>
      </trkpt>
      <trkpt lat="47.698576" lon="7.721872">
        <ele>458.004065</ele>
        <time>2021-11-22T13:15:16.331Z</time>
      </trkpt>
      <trkpt lat="47.698538" lon="7.721642">
        <ele>458.831973</ele>
        <time>2021-11-22T13:15:21.036Z</time>
      </trkpt>
      <trkpt lat="47.698352" lon="7.721277">
        <ele>459.976589</ele>
        <time>2021-11-22T13:15:29.349Z</time>
      </trkpt>
      <trkpt lat="47.698322" lon="7.720917">
        <ele>460.536443</ele>
        <time>2021-11-22T13:15:35.261Z</time>
      </trkpt>
      <trkpt lat="47.698373" lon="7.720791">
        <ele>460.763365</ele>
        <time>2021-11-22T13:15:37.671Z</time>
      </trkpt>
      <trkpt lat="47.698719" lon="7.720634">
        <ele>461.592968</ele>
        <time>2021-11-22T13:15:45.990Z</time>
      </trkpt>
      <trkpt lat="47.698915" lon="7.720419">
        <ele>462.151642</ele>
        <time>2021-11-22T13:15:51.340Z</time>
      </trkpt>
      <trkpt lat="47.698895" lon="7.720013">
        <ele>462.779918</ele>
        <time>2021-11-22T13:15:57.347Z</time>
      </trkpt>
      <trkpt lat="47.698602" lon="7.719531">
        <ele>463.800661</ele>
        <time>2021-11-22T13:16:06.862Z</time>
      </trkpt>
      <trkpt lat="47.698527" lon="7.719311">
        <ele>464.349372</ele>
        <time>2021-11-22T13:16:10.613Z</time>
      </trkpt>
      <trkpt lat="47.698554" lon="7.718962">
        <ele>465.131007</ele>
        <time>2021-11-22T13:16:15.955Z</time>
      </trkpt>
      <trkpt lat="47.699586" lon="7.717231">
        <ele>470.693154</ele>
        <time>2021-11-22T13:17:01.992Z</time>
      </trkpt>
      <trkpt lat="47.699623" lon="7.716555">
        <ele>473.269947</ele>
        <time>2021-11-22T13:17:18.281Z</time>
      </trkpt>
      <trkpt lat="47.699987" lon="7.716032">
        <ele>476.128368</ele>
        <time>2021-11-22T13:17:37.109Z</time>
      </trkpt>
      <trkpt lat="47.700082" lon="7.715024">
        <ele>480.033693</ele>
        <time>2021-11-22T13:18:05.569Z</time>
      </trkpt>
      <trkpt lat="47.700648" lon="7.713594">
        <ele>487.896488</ele>
        <time>2021-11-22T13:18:53.817Z</time>
      </trkpt>
      <trkpt lat="47.700741" lon="7.713327">
        <ele>489.321382</ele>
        <time>2021-11-22T13:19:02.937Z</time>
      </trkpt>
      <trkpt lat="47.700757" lon="7.713174">
        <ele>490.055232</ele>
        <time>2021-11-22T13:19:06.824Z</time>
      </trkpt>
      <trkpt lat="47.700760" lon="7.713140">
        <ele>490.217755</ele>
        <time>2021-11-22T13:19:07.745Z</time>
      </trkpt>
      <trkpt lat="47.700773" lon="7.712812">
        <ele>491.775013</ele>
        <time>2021-11-22T13:19:17.598Z</time>
      </trkpt>
      <trkpt lat="47.700773" lon="7.712553">
        <ele>493.068612</ele>
        <time>2021-11-22T13:19:24.519Z</time>
      </trkpt>
      <trkpt lat="47.700782" lon="7.711609">
        <ele>498.140010</ele>
        <time>2021-11-22T13:19:53.297Z</time>
      </trkpt>
      <trkpt lat="47.700889" lon="7.711038">
        <ele>501.323930</ele>
        <time>2021-11-22T13:20:12.409Z</time>
      </trkpt>
      <trkpt lat="47.701112" lon="7.710324">
        <ele>505.552198</ele>
        <time>2021-11-22T13:20:37.244Z</time>
      </trkpt>
      <trkpt lat="47.701125" lon="7.710130">
        <ele>506.599455</ele>
        <time>2021-11-22T13:20:43.637Z</time>
      </trkpt>
      <trkpt lat="47.701087" lon="7.709941">
        <ele>507.850525</ele>
        <time>2021-11-22T13:20:50.260Z</time>
      </trkpt>
      <trkpt lat="47.700855" lon="7.709567">
        <ele>511.240420</ele>
        <time>2021-11-22T13:21:08.045Z</time>
      </trkpt>
      <trkpt lat="47.700766" lon="7.709160">
        <ele>514.092543</ele>
        <time>2021-11-22T13:21:23.732Z</time>
      </trkpt>
      <trkpt lat="47.700894" lon="7.708521">
        <ele>518.535916</ele>
        <time>2021-11-22T13:21:48.770Z</time>
      </trkpt>
      <trkpt lat="47.701453" lon="7.707428">
        <ele>527.229479</ele>
        <time>2021-11-22T13:22:41.335Z</time>
      </trkpt>
      <trkpt lat="47.701543" lon="7.707149">
        <ele>528.979323</ele>
        <time>2021-11-22T13:22:54.378Z</time>
      </trkpt>
      <trkpt lat="47.701634" lon="7.706675">
        <ele>531.767067</ele>
        <time>2021-11-22T13:23:12.501Z</time>
      </trkpt>
      <trkpt lat="47.701664" lon="7.705991">
        <ele>535.643763</ele>
        <time>2021-11-22T13:23:34.070Z</time>
      </trkpt>
      <trkpt lat="47.701669" lon="7.705747">
        <ele>537.024389</ele>
        <time>2021-11-22T13:23:41.811Z</time>
      </trkpt>
      <trkpt lat="47.701671" lon="7.705550">
        <ele>538.138686</ele>
        <time>2021-11-22T13:23:47.728Z</time>
      </trkpt>
      <trkpt lat="47.701729" lon="7.705263">
        <ele>539.794956</ele>
        <time>2021-11-22T13:23:54.433Z</time>
      </trkpt>
      <trkpt lat="47.701766" lon="7.705214">
        <ele>539.835693</ele>
        <time>2021-11-22T13:23:56.575Z</time>
      </trkpt>
      <trkpt lat="47.701815" lon="7.705198">
        <ele>539.876928</ele>
        <time>2021-11-22T13:23:58.475Z</time>
      </trkpt>
      <trkpt lat="47.701844" lon="7.705188">
        <ele>539.901397</ele>
        <time>2021-11-22T13:23:59.305Z</time>
      </trkpt>
      <trkpt lat="47.701953" lon="7.705149">
        <ele>539.993548</ele>
        <time>2021-11-22T13:24:02.340Z</time>
      </trkpt>
      <trkpt lat="47.702149" lon="7.705078">
        <ele>540.159363</ele>
        <time>2021-11-22T13:24:08.286Z</time>
      </trkpt>
      <trkpt lat="47.702251" lon="7.705127">
        <ele>540.247472</ele>
        <time>2021-11-22T13:24:10.790Z</time>
      </trkpt>
      <trkpt lat="47.702741" lon="7.705867">
        <ele>540.821708</ele>
        <time>2021-11-22T13:24:24.586Z</time>
      </trkpt>
      <trkpt lat="47.702886" lon="7.705990">
        <ele>540.958939</ele>
        <time>2021-11-22T13:24:26.454Z</time>
      </trkpt>
      <trkpt lat="47.702945" lon="7.706001">
        <ele>541.007813</ele>
        <time>2021-11-22T13:24:27.034Z</time>
      </trkpt>
      <trkpt lat="47.703038" lon="7.705977">
        <ele>541.085396</ele>
        <time>2021-11-22T13:24:28.093Z</time>
      </trkpt>
      <trkpt lat="47.703130" lon="7.705816">
        <ele>541.202224</ele>
        <time>2021-11-22T13:24:29.591Z</time>
      </trkpt>
      <trkpt lat="47.703155" lon="7.705570">
        <ele>540.879133</ele>
        <time>2021-11-22T13:24:31.156Z</time>
      </trkpt>
      <trkpt lat="47.703204" lon="7.705100">
        <ele>539.428107</ele>
        <time>2021-11-22T13:24:34.185Z</time>
      </trkpt>
      <trkpt lat="47.703383" lon="7.704126">
        <ele>536.347729</ele>
        <time>2021-11-22T13:24:40.557Z</time>
      </trkpt>
      <trkpt lat="47.703454" lon="7.703909">
        <ele>535.611589</ele>
        <time>2021-11-22T13:24:42.096Z</time>
      </trkpt>
      <trkpt lat="47.703629" lon="7.703713">
        <ele>534.618117</ele>
        <time>2021-11-22T13:24:44.169Z</time>
      </trkpt>
      <trkpt lat="47.703966" lon="7.703536">
        <ele>532.974698</ele>
        <time>2021-11-22T13:24:47.705Z</time>
      </trkpt>
      <trkpt lat="47.704021" lon="7.703518">
        <ele>532.669299</ele>
        <time>2021-11-22T13:24:48.369Z</time>
      </trkpt>
      <trkpt lat="47.704073" lon="7.703501">
        <ele>532.380572</ele>
        <time>2021-11-22T13:24:49.349Z</time>
      </trkpt>
      <trkpt lat="47.704129" lon="7.703437">
        <ele>531.997472</ele>
        <time>2021-11-22T13:24:50.161Z</time>
      </trkpt>
      <trkpt lat="47.704143" lon="7.703228">
        <ele>531.231002</ele>
        <time>2021-11-22T13:24:51.365Z</time>
      </trkpt>
      <trkpt lat="47.704152" lon="7.702758">
        <ele>529.515143</ele>
        <time>2021-11-22T13:24:54.309Z</time>
      </trkpt>
      <trkpt lat="47.704212" lon="7.702603">
        <ele>528.862602</ele>
        <time>2021-11-22T13:24:55.485Z</time>
      </trkpt>
      <trkpt lat="47.704291" lon="7.702552">
        <ele>528.395523</ele>
        <time>2021-11-22T13:24:56.857Z</time>
      </trkpt>
      <trkpt lat="47.704396" lon="7.702541">
        <ele>527.824721</ele>
        <time>2021-11-22T13:24:57.790Z</time>
      </trkpt>
      <trkpt lat="47.704897" lon="7.702817">
        <ele>524.927235</ele>
        <time>2021-11-22T13:25:02.636Z</time>
      </trkpt>
      <trkpt lat="47.704991" lon="7.702794">
        <ele>524.410633</ele>
        <time>2021-11-22T13:25:04.182Z</time>
      </trkpt>
      <trkpt lat="47.705039" lon="7.702741">
        <ele>524.086351</ele>
        <time>2021-11-22T13:25:04.751Z</time>
      </trkpt>
      <trkpt lat="47.705073" lon="7.702646">
        <ele>523.693696</ele>
        <time>2021-11-22T13:25:05.346Z</time>
      </trkpt>
      <trkpt lat="47.705041" lon="7.702450">
        <ele>522.885451</ele>
        <time>2021-11-22T13:25:06.646Z</time>
      </trkpt>
      <trkpt lat="47.704509" lon="7.701457">
        <ele>517.424779</ele>
        <time>2021-11-22T13:25:14.483Z</time>
      </trkpt>
      <trkpt lat="47.704361" lon="7.700916">
        <ele>514.912274</ele>
        <time>2021-11-22T13:25:17.969Z</time>
      </trkpt>
      <trkpt lat="47.704371" lon="7.699567">
        <ele>510.220282</ele>
        <time>2021-11-22T13:25:26.266Z</time>
      </trkpt>
      <trkpt lat="47.704424" lon="7.698936">
        <ele>508.589128</ele>
        <time>2021-11-22T13:25:30.423Z</time>
      </trkpt>
      <trkpt lat="47.704368" lon="7.698416">
        <ele>507.238291</ele>
        <time>2021-11-22T13:25:34.003Z</time>
      </trkpt>
      <trkpt lat="47.704663" lon="7.696628">
        <ele>504.078274</ele>
        <time>2021-11-22T13:25:47.680Z</time>
      </trkpt>
      <trkpt lat="47.704721" lon="7.695896">
        <ele>503.373589</ele>
        <time>2021-11-22T13:25:53.506Z</time>
      </trkpt>
      <trkpt lat="47.705014" lon="7.694965">
        <ele>502.461110</ele>
        <time>2021-11-22T13:26:01.899Z</time>
      </trkpt>
      <trkpt lat="47.705028" lon="7.694780">
        <ele>502.490465</ele>
        <time>2021-11-22T13:26:03.457Z</time>
      </trkpt>
      <trkpt lat="47.705015" lon="7.694480">
        <ele>502.537867</ele>
        <time>2021-11-22T13:26:06.056Z</time>
      </trkpt>
      <trkpt lat="47.704730" lon="7.693699">
        <ele>502.677955</ele>
        <time>2021-11-22T13:26:14.425Z</time>
      </trkpt>
      <trkpt lat="47.704705" lon="7.693128">
        <ele>502.768181</ele>
        <time>2021-11-22T13:26:23.132Z</time>
      </trkpt>
      <trkpt lat="47.704799" lon="7.692803">
        <ele>502.823960</ele>
        <time>2021-11-22T13:26:26.988Z</time>
      </trkpt>
      <trkpt lat="47.705019" lon="7.692455">
        <ele>502.827069</ele>
        <time>2021-11-22T13:26:32.713Z</time>
      </trkpt>
      <trkpt lat="47.705203" lon="7.692033">
        <ele>502.691432</ele>
        <time>2021-11-22T13:26:38.583Z</time>
      </trkpt>
      <trkpt lat="47.705351" lon="7.691915">
        <ele>502.624108</ele>
        <time>2021-11-22T13:26:41.948Z</time>
      </trkpt>
      <trkpt lat="47.705689" lon="7.691712">
        <ele>502.477977</ele>
        <time>2021-11-22T13:26:47.621Z</time>
      </trkpt>
      <trkpt lat="47.705873" lon="7.691537">
        <ele>502.390409</ele>
        <time>2021-11-22T13:26:50.247Z</time>
      </trkpt>
      <trkpt lat="47.706118" lon="7.691282">
        <ele>502.270511</ele>
        <time>2021-11-22T13:26:54.054Z</time>
      </trkpt>
      <trkpt lat="47.706250" lon="7.690885">
        <ele>502.145530</ele>
        <time>2021-11-22T13:26:57.550Z</time>
      </trkpt>
      <trkpt lat="47.706274" lon="7.690649">
        <ele>501.472155</ele>
        <time>2021-11-22T13:26:59.280Z</time>
      </trkpt>
      <trkpt lat="47.706075" lon="7.689692">
        <ele>498.646247</ele>
        <time>2021-11-22T13:27:05.952Z</time>
      </trkpt>
      <trkpt lat="47.706205" lon="7.688984">
        <ele>496.575774</ele>
        <time>2021-11-22T13:27:10.668Z</time>
      </trkpt>
      <trkpt lat="47.706339" lon="7.688694">
        <ele>495.583302</ele>
        <time>2021-11-22T13:27:12.921Z</time>
      </trkpt>
      <trkpt lat="47.706653" lon="7.688356">
        <ele>493.753194</ele>
        <time>2021-11-22T13:27:16.449Z</time>
      </trkpt>
      <trkpt lat="47.706815" lon="7.687723">
        <ele>491.244054</ele>
        <time>2021-11-22T13:27:20.536Z</time>
      </trkpt>
      <trkpt lat="47.706806" lon="7.687393">
        <ele>490.020406</ele>
        <time>2021-11-22T13:27:22.557Z</time>
      </trkpt>
      <trkpt lat="47.706505" lon="7.686637">
        <ele>486.765883</ele>
        <time>2021-11-22T13:27:27.996Z</time>
      </trkpt>
      <trkpt lat="47.706395" lon="7.686460">
        <ele>485.873218</ele>
        <time>2021-11-22T13:27:29.486Z</time>
      </trkpt>
      <trkpt lat="47.706315" lon="7.686377">
        <ele>485.336027</ele>
        <time>2021-11-22T13:27:30.418Z</time>
      </trkpt>
      <trkpt lat="47.706214" lon="7.686304">
        <ele>484.717656</ele>
        <time>2021-11-22T13:27:31.696Z</time>
      </trkpt>
      <trkpt lat="47.705734" lon="7.686280">
        <ele>484.164297</ele>
        <time>2021-11-22T13:27:36.750Z</time>
      </trkpt>
      <trkpt lat="47.705588" lon="7.686098">
        <ele>483.947794</ele>
        <time>2021-11-22T13:27:39.038Z</time>
      </trkpt>
      <trkpt lat="47.705527" lon="7.685792">
        <ele>483.703801</ele>
        <time>2021-11-22T13:27:41.416Z</time>
      </trkpt>
      <trkpt lat="47.705598" lon="7.685425">
        <ele>483.411856</ele>
        <time>2021-11-22T13:27:44.693Z</time>
      </trkpt>
      <trkpt lat="47.705826" lon="7.684660">
        <ele>482.772201</ele>
        <time>2021-11-22T13:27:53.614Z</time>
      </trkpt>
      <trkpt lat="47.705881" lon="7.684506">
        <ele>482.681043</ele>
        <time>2021-11-22T13:27:56.245Z</time>
      </trkpt>
      <trkpt lat="47.705905" lon="7.684458">
        <ele>482.710620</ele>
        <time>2021-11-22T13:27:57.066Z</time>
      </trkpt>
      <trkpt lat="47.706044" lon="7.684180">
        <ele>482.881918</ele>
        <time>2021-11-22T13:28:01.727Z</time>
      </trkpt>
      <trkpt lat="47.706149" lon="7.684067">
        <ele>482.977204</ele>
        <time>2021-11-22T13:28:04.683Z</time>
      </trkpt>
      <trkpt lat="47.706351" lon="7.683947">
        <ele>483.137095</ele>
        <time>2021-11-22T13:28:09.087Z</time>
      </trkpt>
      <trkpt lat="47.706927" lon="7.683483">
        <ele>483.618647</ele>
        <time>2021-11-22T13:28:22.290Z</time>
      </trkpt>
      <trkpt lat="47.707531" lon="7.682751">
        <ele>483.658141</ele>
        <time>2021-11-22T13:28:32.759Z</time>
      </trkpt>
      <trkpt lat="47.707720" lon="7.682649">
        <ele>483.421461</ele>
        <time>2021-11-22T13:28:35.412Z</time>
      </trkpt>
      <trkpt lat="47.708065" lon="7.682585">
        <ele>483.012223</ele>
        <time>2021-11-22T13:28:40.422Z</time>
      </trkpt>
      <trkpt lat="47.708243" lon="7.682684">
        <ele>482.788514</ele>
        <time>2021-11-22T13:28:43.452Z</time>
      </trkpt>
      <trkpt lat="47.708481" lon="7.683115">
        <ele>482.346909</ele>
        <time>2021-11-22T13:28:49.724Z</time>
      </trkpt>
      <trkpt lat="47.708943" lon="7.683354">
        <ele>481.304768</ele>
        <time>2021-11-22T13:28:54.512Z</time>
      </trkpt>
      <trkpt lat="47.709160" lon="7.684386">
        <ele>476.384026</ele>
        <time>2021-11-22T13:29:01.292Z</time>
      </trkpt>
      <trkpt lat="47.709249" lon="7.684498">
        <ele>475.595252</ele>
        <time>2021-11-22T13:29:02.394Z</time>
      </trkpt>
      <trkpt lat="47.709418" lon="7.684480">
        <ele>474.449288</ele>
        <time>2021-11-22T13:29:04.013Z</time>
      </trkpt>
      <trkpt lat="47.709444" lon="7.684446">
        <ele>474.215051</ele>
        <time>2021-11-22T13:29:04.326Z</time>
      </trkpt>
      <trkpt lat="47.709477" lon="7.684403">
        <ele>473.918211</ele>
        <time>2021-11-22T13:29:04.685Z</time>
      </trkpt>
      <trkpt lat="47.709521" lon="7.684250">
        <ele>473.160967</ele>
        <time>2021-11-22T13:29:05.724Z</time>
      </trkpt>
      <trkpt lat="47.709553" lon="7.683244">
        <ele>468.108278</ele>
        <time>2021-11-22T13:29:11.588Z</time>
      </trkpt>
      <trkpt lat="47.709981" lon="7.681865">
        <ele>458.319070</ele>
        <time>2021-11-22T13:29:20.283Z</time>
      </trkpt>
      <trkpt lat="47.710111" lon="7.681645">
        <ele>456.431729</ele>
        <time>2021-11-22T13:29:21.993Z</time>
      </trkpt>
      <trkpt lat="47.710620" lon="7.681447">
        <ele>452.061620</ele>
        <time>2021-11-22T13:29:26.644Z</time>
      </trkpt>
      <trkpt lat="47.711325" lon="7.680975">
        <ele>449.241704</ele>
        <time>2021-11-22T13:29:33.937Z</time>
      </trkpt>
      <trkpt lat="47.711472" lon="7.680508">
        <ele>447.976545</ele>
        <time>2021-11-22T13:29:37.631Z</time>
      </trkpt>
      <trkpt lat="47.711955" lon="7.679497">
        <ele>444.915244</ele>
        <time>2021-11-22T13:29:48.669Z</time>
      </trkpt>
      <trkpt lat="47.712100" lon="7.679454">
        <ele>444.365727</ele>
        <time>2021-11-22T13:29:52.564Z</time>
      </trkpt>
      <trkpt lat="47.712883" lon="7.680135">
        <ele>440.994038</ele>
        <time>2021-11-22T13:30:01.437Z</time>
      </trkpt>
      <trkpt lat="47.712975" lon="7.680138">
        <ele>440.652037</ele>
        <time>2021-11-22T13:30:05.398Z</time>
      </trkpt>
      <trkpt lat="47.713027" lon="7.680082">
        <ele>440.413377</ele>
        <time>2021-11-22T13:30:05.979Z</time>
      </trkpt>
      <trkpt lat="47.713040" lon="7.680029">
        <ele>440.272312</ele>
        <time>2021-11-22T13:30:06.317Z</time>
      </trkpt>
      <trkpt lat="47.713062" lon="7.679942">
        <ele>440.039900</ele>
        <time>2021-11-22T13:30:06.824Z</time>
      </trkpt>
      <trkpt lat="47.712582" lon="7.679169">
        <ele>434.594621</ele>
        <time>2021-11-22T13:30:13.116Z</time>
      </trkpt>
      <trkpt lat="47.712428" lon="7.678763">
        <ele>431.626492</ele>
        <time>2021-11-22T13:30:15.921Z</time>
      </trkpt>
      <trkpt lat="47.712374" lon="7.678233">
        <ele>428.212741</ele>
        <time>2021-11-22T13:30:18.982Z</time>
      </trkpt>
      <trkpt lat="47.712502" lon="7.677710">
        <ele>424.668558</ele>
        <time>2021-11-22T13:30:22.114Z</time>
      </trkpt>
      <trkpt lat="47.712612" lon="7.677426">
        <ele>422.581669</ele>
        <time>2021-11-22T13:30:24.007Z</time>
      </trkpt>
      <trkpt lat="47.713251" lon="7.676281">
        <ele>415.289290</ele>
        <time>2021-11-22T13:30:32.758Z</time>
      </trkpt>
      <trkpt lat="47.713654" lon="7.675903">
        <ele>411.860288</ele>
        <time>2021-11-22T13:30:37.161Z</time>
      </trkpt>
      <trkpt lat="47.714388" lon="7.675415">
        <ele>407.200356</ele>
        <time>2021-11-22T13:30:45.110Z</time>
      </trkpt>
      <trkpt lat="47.714651" lon="7.675347">
        <ele>405.957719</ele>
        <time>2021-11-22T13:30:47.949Z</time>
      </trkpt>
      <trkpt lat="47.714924" lon="7.675509">
        <ele>404.589377</ele>
        <time>2021-11-22T13:30:50.677Z</time>
      </trkpt>
      <trkpt lat="47.714962" lon="7.675531">
        <ele>404.399544</ele>
        <time>2021-11-22T13:30:51.516Z</time>
      </trkpt>
      <trkpt lat="47.715676" lon="7.676459">
        <ele>399.546704</ele>
        <time>2021-11-22T13:31:00.334Z</time>
      </trkpt>
      <trkpt lat="47.715913" lon="7.676464">
        <ele>397.910617</ele>
        <time>2021-11-22T13:31:02.541Z</time>
      </trkpt>
      <trkpt lat="47.716031" lon="7.676354">
        <ele>396.949160</ele>
        <time>2021-11-22T13:31:03.758Z</time>
      </trkpt>
      <trkpt lat="47.716069" lon="7.676265">
        <ele>396.459630</ele>
        <time>2021-11-22T13:31:04.387Z</time>
      </trkpt>
      <trkpt lat="47.716346" lon="7.676515">
        <ele>394.222704</ele>
        <time>2021-11-22T13:31:07.299Z</time>
      </trkpt>
      <trkpt lat="47.716518" lon="7.676645">
        <ele>392.890766</ele>
        <time>2021-11-22T13:31:09.050Z</time>
      </trkpt>
      <trkpt lat="47.716743" lon="7.676797">
        <ele>391.184781</ele>
        <time>2021-11-22T13:31:11.219Z</time>
      </trkpt>
      <trkpt lat="47.716907" lon="7.676893">
        <ele>389.968123</ele>
        <time>2021-11-22T13:31:12.758Z</time>
      </trkpt>
      <trkpt lat="47.718230" lon="7.677303">
        <ele>382.376006</ele>
        <time>2021-11-22T13:31:24.900Z</time>
      </trkpt>
      <trkpt lat="47.718555" lon="7.677443">
        <ele>380.557930</ele>
        <time>2021-11-22T13:31:28.256Z</time>
      </trkpt>
      <trkpt lat="47.718753" lon="7.677547">
        <ele>379.429608</ele>
        <time>2021-11-22T13:31:30.538Z</time>
      </trkpt>
      <trkpt lat="47.718827" lon="7.677587">
        <ele>379.006531</ele>
        <time>2021-11-22T13:31:31.398Z</time>
      </trkpt>
      <trkpt lat="47.718891" lon="7.677624">
        <ele>378.814349</ele>
        <time>2021-11-22T13:31:32.112Z</time>
      </trkpt>
      <trkpt lat="47.718939" lon="7.677656">
        <ele>378.819278</ele>
        <time>2021-11-22T13:31:32.728Z</time>
      </trkpt>
      <trkpt lat="47.719020" lon="7.677709">
        <ele>378.827570</ele>
        <time>2021-11-22T13:31:33.785Z</time>
      </trkpt>
      <trkpt lat="47.719062" lon="7.677740">
        <ele>378.831963</ele>
        <time>2021-11-22T13:31:34.291Z</time>
      </trkpt>
      <trkpt lat="47.719146" lon="7.677806">
        <ele>378.840865</ele>
        <time>2021-11-22T13:31:35.397Z</time>
      </trkpt>
      <trkpt lat="47.719246" lon="7.677888">
        <ele>378.851565</ele>
        <time>2021-11-22T13:31:36.717Z</time>
      </trkpt>
      <trkpt lat="47.719426" lon="7.678048">
        <ele>378.871216</ele>
        <time>2021-11-22T13:31:39.446Z</time>
      </trkpt>
      <trkpt lat="47.719509" lon="7.678135">
        <ele>378.880731</ele>
        <time>2021-11-22T13:31:40.689Z</time>
      </trkpt>
      <trkpt lat="47.719771" lon="7.678424">
        <ele>378.911299</ele>
        <time>2021-11-22T13:31:45.712Z</time>
      </trkpt>
      <trkpt lat="47.720330" lon="7.679255">
        <ele>379.156658</ele>
        <time>2021-11-22T13:32:01.985Z</time>
      </trkpt>
      <trkpt lat="47.721193" lon="7.680731">
        <ele>383.095636</ele>
        <time>2021-11-22T13:32:38.264Z</time>
      </trkpt>
      <trkpt lat="47.722225" lon="7.682730">
        <ele>389.204139</ele>
        <time>2021-11-22T13:33:26.783Z</time>
      </trkpt>
      <trkpt lat="47.722474" lon="7.683065">
        <ele>390.482631</ele>
        <time>2021-11-22T13:33:37.842Z</time>
      </trkpt>
      <trkpt lat="47.722975" lon="7.683556">
        <ele>393.217461</ele>
        <time>2021-11-22T13:33:57.960Z</time>
      </trkpt>
      <trkpt lat="47.723101" lon="7.683692">
        <ele>393.981952</ele>
        <time>2021-11-22T13:34:02.622Z</time>
      </trkpt>
      <trkpt lat="47.723212" lon="7.683846">
        <ele>394.727401</ele>
        <time>2021-11-22T13:34:08.362Z</time>
      </trkpt>
      <trkpt lat="47.723398" lon="7.684165">
        <ele>396.121661</ele>
        <time>2021-11-22T13:34:17.242Z</time>
      </trkpt>
      <trkpt lat="47.723871" lon="7.685229">
        <ele>400.390697</ele>
        <time>2021-11-22T13:34:48.047Z</time>
      </trkpt>
      <trkpt lat="47.724581" lon="7.686271">
        <ele>406.247792</ele>
        <time>2021-11-22T13:35:26.769Z</time>
      </trkpt>
      <trkpt lat="47.724651" lon="7.686423">
        <ele>406.975237</ele>
        <time>2021-11-22T13:35:30.829Z</time>
      </trkpt>
      <trkpt lat="47.724679" lon="7.686495">
        <ele>407.303663</ele>
        <time>2021-11-22T13:35:34.548Z</time>
      </trkpt>
      <trkpt lat="47.725350" lon="7.688593">
        <ele>415.417742</ele>
        <time>2021-11-22T13:36:33.147Z</time>
      </trkpt>
      <trkpt lat="47.725568" lon="7.689080">
        <ele>417.311149</ele>
        <time>2021-11-22T13:36:45.168Z</time>
      </trkpt>
      <trkpt lat="47.725724" lon="7.689287">
        <ele>418.317299</ele>
        <time>2021-11-22T13:36:51.373Z</time>
      </trkpt>
      <trkpt lat="47.725900" lon="7.689457">
        <ele>419.323966</ele>
        <time>2021-11-22T13:36:57.169Z</time>
      </trkpt>
      <trkpt lat="47.726075" lon="7.689531">
        <ele>420.159223</ele>
        <time>2021-11-22T13:37:02.210Z</time>
      </trkpt>
      <trkpt lat="47.727124" lon="7.689667">
        <ele>424.993240</ele>
        <time>2021-11-22T13:37:33.722Z</time>
      </trkpt>
      <trkpt lat="47.727386" lon="7.689868">
        <ele>426.346740</ele>
        <time>2021-11-22T13:37:45.396Z</time>
      </trkpt>
      <trkpt lat="47.727668" lon="7.690335">
        <ele>428.925889</ele>
        <time>2021-11-22T13:38:01.954Z</time>
      </trkpt>
      <trkpt lat="47.727737" lon="7.690574">
        <ele>430.396884</ele>
        <time>2021-11-22T13:38:09.782Z</time>
      </trkpt>
      <trkpt lat="47.727798" lon="7.690884">
        <ele>432.223680</ele>
        <time>2021-11-22T13:38:19.059Z</time>
      </trkpt>
      <trkpt lat="47.727877" lon="7.691385">
        <ele>435.134075</ele>
        <time>2021-11-22T13:38:34.515Z</time>
      </trkpt>
      <trkpt lat="47.727892" lon="7.691479">
        <ele>435.680480</ele>
        <time>2021-11-22T13:38:39.379Z</time>
      </trkpt>
      <trkpt lat="47.728028" lon="7.691482">
        <ele>436.824130</ele>
        <time>2021-11-22T13:38:44.824Z</time>
      </trkpt>
      <trkpt lat="47.728550" lon="7.692038">
        <ele>442.223480</ele>
        <time>2021-11-22T13:39:19.942Z</time>
      </trkpt>
      <trkpt lat="47.729173" lon="7.692424">
        <ele>449.245975</ele>
        <time>2021-11-22T13:39:59.494Z</time>
      </trkpt>
      <trkpt lat="47.729538" lon="7.692534">
        <ele>453.179361</ele>
        <time>2021-11-22T13:40:19.412Z</time>
      </trkpt>
      <trkpt lat="47.730168" lon="7.692470">
        <ele>459.848677</ele>
        <time>2021-11-22T13:40:55.895Z</time>
      </trkpt>
      <trkpt lat="47.731467" lon="7.692047">
        <ele>474.725047</ele>
        <time>2021-11-22T13:42:16.364Z</time>
      </trkpt>
      <trkpt lat="47.732035" lon="7.692236">
        <ele>481.289443</ele>
        <time>2021-11-22T13:42:51.509Z</time>
      </trkpt>
      <trkpt lat="47.732682" lon="7.692318">
        <ele>488.223518</ele>
        <time>2021-11-22T13:43:29.718Z</time>
      </trkpt>
      <trkpt lat="47.733429" lon="7.692573">
        <ele>496.364745</ele>
        <time>2021-11-22T13:44:13.497Z</time>
      </trkpt>
      <trkpt lat="47.734836" lon="7.693250">
        <ele>510.144662</ele>
        <time>2021-11-22T13:45:35.424Z</time>
      </trkpt>
      <trkpt lat="47.735208" lon="7.693699">
        <ele>514.345796</ele>
        <time>2021-11-22T13:45:56.622Z</time>
      </trkpt>
      <trkpt lat="47.735569" lon="7.694263">
        <ele>518.173584</ele>
        <time>2021-11-22T13:46:19.552Z</time>
      </trkpt>
      <trkpt lat="47.735657" lon="7.694368">
        <ele>518.810270</ele>
        <time>2021-11-22T13:46:21.818Z</time>
      </trkpt>
      <trkpt lat="47.735806" lon="7.694325">
        <ele>519.666739</ele>
        <time>2021-11-22T13:46:28.273Z</time>
      </trkpt>
      <trkpt lat="47.736006" lon="7.693796">
        <ele>521.969795</ele>
        <time>2021-11-22T13:46:42.958Z</time>
      </trkpt>
      <trkpt lat="47.736141" lon="7.693666">
        <ele>522.877379</ele>
        <time>2021-11-22T13:46:47.326Z</time>
      </trkpt>
      <trkpt lat="47.736364" lon="7.693620">
        <ele>524.147777</ele>
        <time>2021-11-22T13:46:57.052Z</time>
      </trkpt>
      <trkpt lat="47.736411" lon="7.693858">
        <ele>525.089127</ele>
        <time>2021-11-22T13:47:01.786Z</time>
      </trkpt>
      <trkpt lat="47.736385" lon="7.694046">
        <ele>525.817521</ele>
        <time>2021-11-22T13:47:07.095Z</time>
      </trkpt>
      <trkpt lat="47.736448" lon="7.694275">
        <ele>526.756481</ele>
        <time>2021-11-22T13:47:12.207Z</time>
      </trkpt>
      <trkpt lat="47.736866" lon="7.694948">
        <ele>531.280868</ele>
        <time>2021-11-22T13:47:36.575Z</time>
      </trkpt>
      <trkpt lat="47.737252" lon="7.695433">
        <ele>535.041070</ele>
        <time>2021-11-22T13:48:00.405Z</time>
      </trkpt>
      <trkpt lat="47.737589" lon="7.695486">
        <ele>537.562552</ele>
        <time>2021-11-22T13:48:16.756Z</time>
      </trkpt>
      <trkpt lat="47.737954" lon="7.695451">
        <ele>540.284027</ele>
        <time>2021-11-22T13:48:34.744Z</time>
      </trkpt>
      <trkpt lat="47.737999" lon="7.695529">
        <ele>540.775616</ele>
        <time>2021-11-22T13:48:38.207Z</time>
      </trkpt>
      <trkpt lat="47.737970" lon="7.695654">
        <ele>541.405447</ele>
        <time>2021-11-22T13:48:42.523Z</time>
      </trkpt>
      <trkpt lat="47.737629" lon="7.696063">
        <ele>544.508399</ele>
        <time>2021-11-22T13:49:04.251Z</time>
      </trkpt>
      <trkpt lat="47.737633" lon="7.696270">
        <ele>545.494794</ele>
        <time>2021-11-22T13:49:10.834Z</time>
      </trkpt>
      <trkpt lat="47.737993" lon="7.696816">
        <ele>549.136887</ele>
        <time>2021-11-22T13:49:33.021Z</time>
      </trkpt>
      <trkpt lat="47.738324" lon="7.697209">
        <ele>552.136892</ele>
        <time>2021-11-22T13:49:49.150Z</time>
      </trkpt>
      <trkpt lat="47.738696" lon="7.697464">
        <ele>554.335541</ele>
        <time>2021-11-22T13:50:03.317Z</time>
      </trkpt>
      <trkpt lat="47.739762" lon="7.697440">
        <ele>559.195880</ele>
        <time>2021-11-22T13:50:37.137Z</time>
      </trkpt>
      <trkpt lat="47.740676" lon="7.697807">
        <ele>564.052640</ele>
        <time>2021-11-22T13:51:07.925Z</time>
      </trkpt>
      <trkpt lat="47.740961" lon="7.697839">
        <ele>565.669336</ele>
        <time>2021-11-22T13:51:18.296Z</time>
      </trkpt>
      <trkpt lat="47.741175" lon="7.697745">
        <ele>566.931537</ele>
        <time>2021-11-22T13:51:26.657Z</time>
      </trkpt>
      <trkpt lat="47.741327" lon="7.697752">
        <ele>567.791740</ele>
        <time>2021-11-22T13:51:32.607Z</time>
      </trkpt>
      <trkpt lat="47.741391" lon="7.697848">
        <ele>568.305946</ele>
        <time>2021-11-22T13:51:36.114Z</time>
      </trkpt>
      <trkpt lat="47.741399" lon="7.697970">
        <ele>568.772221</ele>
        <time>2021-11-22T13:51:39.348Z</time>
      </trkpt>
      <trkpt lat="47.741324" lon="7.698131">
        <ele>569.517234</ele>
        <time>2021-11-22T13:51:44.726Z</time>
      </trkpt>
      <trkpt lat="47.740817" lon="7.698468">
        <ele>573.109430</ele>
        <time>2021-11-22T13:52:07.886Z</time>
      </trkpt>
      <trkpt lat="47.740408" lon="7.699163">
        <ele>577.922683</ele>
        <time>2021-11-22T13:52:36.465Z</time>
      </trkpt>
      <trkpt lat="47.740330" lon="7.699336">
        <ele>579.008211</ele>
        <time>2021-11-22T13:52:43.046Z</time>
      </trkpt>
      <trkpt lat="47.740325" lon="7.699506">
        <ele>579.895062</ele>
        <time>2021-11-22T13:52:48.732Z</time>
      </trkpt>
      <trkpt lat="47.740416" lon="7.699690">
        <ele>581.085439</ele>
        <time>2021-11-22T13:52:56.105Z</time>
      </trkpt>
      <trkpt lat="47.741212" lon="7.700722">
        <ele>589.485723</ele>
        <time>2021-11-22T13:53:45.834Z</time>
      </trkpt>
      <trkpt lat="47.741650" lon="7.701733">
        <ele>596.101297</ele>
        <time>2021-11-22T13:54:25.208Z</time>
      </trkpt>
      <trkpt lat="47.741803" lon="7.701979">
        <ele>597.944537</ele>
        <time>2021-11-22T13:54:34.850Z</time>
      </trkpt>
      <trkpt lat="47.742153" lon="7.702338">
        <ele>601.228031</ele>
        <time>2021-11-22T13:54:55.982Z</time>
      </trkpt>
      <trkpt lat="47.742254" lon="7.702557">
        <ele>602.475124</ele>
        <time>2021-11-22T13:55:04.478Z</time>
      </trkpt>
      <trkpt lat="47.742274" lon="7.702699">
        <ele>603.156452</ele>
        <time>2021-11-22T13:55:07.764Z</time>
      </trkpt>
      <trkpt lat="47.742255" lon="7.702893">
        <ele>604.077124</ele>
        <time>2021-11-22T13:55:14.670Z</time>
      </trkpt>
      <trkpt lat="47.742197" lon="7.703273">
        <ele>605.907066</ele>
        <time>2021-11-22T13:55:25.224Z</time>
      </trkpt>
      <trkpt lat="47.742241" lon="7.703470">
        <ele>606.881909</ele>
        <time>2021-11-22T13:55:32.757Z</time>
      </trkpt>
      <trkpt lat="47.742306" lon="7.703755">
        <ele>608.295203</ele>
        <time>2021-11-22T13:55:39.618Z</time>
      </trkpt>
      <trkpt lat="47.742351" lon="7.703847">
        <ele>608.829454</ele>
        <time>2021-11-22T13:55:44.349Z</time>
      </trkpt>
      <trkpt lat="47.742487" lon="7.703942">
        <ele>609.878778</ele>
        <time>2021-11-22T13:55:50.464Z</time>
      </trkpt>
      <trkpt lat="47.742707" lon="7.704166">
        <ele>611.740773</ele>
        <time>2021-11-22T13:56:01.369Z</time>
      </trkpt>
      <trkpt lat="47.742991" lon="7.704111">
        <ele>613.304565</ele>
        <time>2021-11-22T13:56:12.239Z</time>
      </trkpt>
      <trkpt lat="47.743273" lon="7.704143">
        <ele>614.487163</ele>
        <time>2021-11-22T13:56:20.123Z</time>
      </trkpt>
      <trkpt lat="47.743335" lon="7.704170">
        <ele>614.757301</ele>
        <time>2021-11-22T13:56:23.610Z</time>
      </trkpt>
      <trkpt lat="47.743460" lon="7.704145">
        <ele>615.284688</ele>
        <time>2021-11-22T13:56:27.683Z</time>
      </trkpt>
      <trkpt lat="47.743553" lon="7.703874">
        <ele>616.140184</ele>
        <time>2021-11-22T13:56:33.240Z</time>
      </trkpt>
      <trkpt lat="47.743554" lon="7.703851">
        <ele>616.204991</ele>
        <time>2021-11-22T13:56:34.165Z</time>
      </trkpt>
      <trkpt lat="47.743568" lon="7.703239">
        <ele>617.926819</ele>
        <time>2021-11-22T13:56:46.654Z</time>
      </trkpt>
      <trkpt lat="47.743556" lon="7.702921">
        <ele>618.822384</ele>
        <time>2021-11-22T13:56:51.516Z</time>
      </trkpt>
      <trkpt lat="47.743541" lon="7.702750">
        <ele>619.307279</ele>
        <time>2021-11-22T13:56:55.692Z</time>
      </trkpt>
      <trkpt lat="47.743572" lon="7.702098">
        <ele>621.186622</ele>
        <time>2021-11-22T13:57:08.119Z</time>
      </trkpt>
      <trkpt lat="47.743650" lon="7.701753">
        <ele>622.253773</ele>
        <time>2021-11-22T13:57:14.501Z</time>
      </trkpt>
      <trkpt lat="47.743907" lon="7.701170">
        <ele>624.297618</ele>
        <time>2021-11-22T13:57:28.286Z</time>
      </trkpt>
      <trkpt lat="47.743960" lon="7.700739">
        <ele>625.582221</ele>
        <time>2021-11-22T13:57:39.236Z</time>
      </trkpt>
      <trkpt lat="47.743830" lon="7.700261">
        <ele>627.093950</ele>
        <time>2021-11-22T13:57:51.832Z</time>
      </trkpt>
      <trkpt lat="47.743501" lon="7.699858">
        <ele>629.432517</ele>
        <time>2021-11-22T13:58:07.386Z</time>
      </trkpt>
      <trkpt lat="47.743467" lon="7.699651">
        <ele>630.377835</ele>
        <time>2021-11-22T13:58:12.448Z</time>
      </trkpt>
      <trkpt lat="47.743532" lon="7.699531">
        <ele>631.061425</ele>
        <time>2021-11-22T13:58:16.171Z</time>
      </trkpt>
      <trkpt lat="47.743838" lon="7.699247">
        <ele>633.441085</ele>
        <time>2021-11-22T13:58:29.101Z</time>
      </trkpt>
      <trkpt lat="47.743878" lon="7.699169">
        <ele>633.876259</ele>
        <time>2021-11-22T13:58:32.071Z</time>
      </trkpt>
      <trkpt lat="47.743916" lon="7.698873">
        <ele>635.213120</ele>
        <time>2021-11-22T13:58:39.047Z</time>
      </trkpt>
      <trkpt lat="47.743818" lon="7.698002">
        <ele>639.130854</ele>
        <time>2021-11-22T13:59:08.734Z</time>
      </trkpt>
      <trkpt lat="47.743973" lon="7.697166">
        <ele>643.098092</ele>
        <time>2021-11-22T13:59:36.957Z</time>
      </trkpt>
      <trkpt lat="47.744009" lon="7.697011">
        <ele>643.853806</ele>
        <time>2021-11-22T13:59:41.001Z</time>
      </trkpt>
      <trkpt lat="47.744049" lon="7.696803">
        <ele>644.850787</ele>
        <time>2021-11-22T13:59:44.956Z</time>
      </trkpt>
      <trkpt lat="47.744088" lon="7.696743">
        <ele>645.235354</ele>
        <time>2021-11-22T13:59:46.917Z</time>
      </trkpt>
      <trkpt lat="47.744096" lon="7.696732">
        <ele>645.310024</ele>
        <time>2021-11-22T13:59:48.385Z</time>
      </trkpt>
      <trkpt lat="47.745102" lon="7.696395">
        <ele>652.243430</ele>
        <time>2021-11-22T14:00:26.979Z</time>
      </trkpt>
      <trkpt lat="47.745485" lon="7.696146">
        <ele>652.825758</ele>
        <time>2021-11-22T14:00:47.350Z</time>
      </trkpt>
      <trkpt lat="47.745547" lon="7.696119">
        <ele>652.915759</ele>
        <time>2021-11-22T14:00:49.713Z</time>
      </trkpt>
      <trkpt lat="47.745624" lon="7.696085">
        <ele>653.027659</ele>
        <time>2021-11-22T14:00:51.609Z</time>
      </trkpt>
      <trkpt lat="47.745709" lon="7.696076">
        <ele>653.146375</ele>
        <time>2021-11-22T14:00:53.984Z</time>
      </trkpt>
      <trkpt lat="47.745790" lon="7.696097">
        <ele>653.260921</ele>
        <time>2021-11-22T14:00:57.271Z</time>
      </trkpt>
      <trkpt lat="47.746167" lon="7.696204">
        <ele>653.795611</ele>
        <time>2021-11-22T14:01:04.392Z</time>
      </trkpt>
      <trkpt lat="47.746355" lon="7.696311">
        <ele>654.076044</ele>
        <time>2021-11-22T14:01:06.421Z</time>
      </trkpt>
      <trkpt lat="47.746411" lon="7.696343">
        <ele>654.159621</ele>
        <time>2021-11-22T14:01:07.273Z</time>
      </trkpt>
      <trkpt lat="47.746486" lon="7.696421">
        <ele>654.287119</ele>
        <time>2021-11-22T14:01:09.336Z</time>
      </trkpt>
      <trkpt lat="47.746567" lon="7.696504">
        <ele>654.424156</ele>
        <time>2021-11-22T14:01:10.371Z</time>
      </trkpt>
      <trkpt lat="47.746832" lon="7.696961">
        <ele>653.059023</ele>
        <time>2021-11-22T14:01:14.204Z</time>
      </trkpt>
      <trkpt lat="47.746957" lon="7.697302">
        <ele>650.863284</ele>
        <time>2021-11-22T14:01:16.671Z</time>
      </trkpt>
      <trkpt lat="47.746984" lon="7.697514">
        <ele>649.643419</ele>
        <time>2021-11-22T14:01:17.909Z</time>
      </trkpt>
      <trkpt lat="47.747127" lon="7.697629">
        <ele>648.276552</ele>
        <time>2021-11-22T14:01:19.404Z</time>
      </trkpt>
      <trkpt lat="47.747754" lon="7.697022">
        <ele>641.986221</ele>
        <time>2021-11-22T14:01:25.832Z</time>
      </trkpt>
      <trkpt lat="47.748375" lon="7.696749">
        <ele>637.449590</ele>
        <time>2021-11-22T14:01:31.312Z</time>
      </trkpt>
      <trkpt lat="47.748583" lon="7.696579">
        <ele>636.048049</ele>
        <time>2021-11-22T14:01:33.368Z</time>
      </trkpt>
      <trkpt lat="47.748597" lon="7.696294">
        <ele>634.913415</ele>
        <time>2021-11-22T14:01:35.065Z</time>
      </trkpt>
      <trkpt lat="47.748261" lon="7.695141">
        <ele>629.923837</ele>
        <time>2021-11-22T14:01:43.197Z</time>
      </trkpt>
      <trkpt lat="47.748359" lon="7.694763">
        <ele>629.581174</ele>
        <time>2021-11-22T14:01:47.249Z</time>
      </trkpt>
      <trkpt lat="47.748494" lon="7.694571">
        <ele>630.608418</ele>
        <time>2021-11-22T14:01:51.500Z</time>
      </trkpt>
      <trkpt lat="47.748894" lon="7.694420">
        <ele>632.877928</ele>
        <time>2021-11-22T14:02:04.382Z</time>
      </trkpt>
      <trkpt lat="47.750109" lon="7.694530">
        <ele>639.992621</ele>
        <time>2021-11-22T14:03:01.777Z</time>
      </trkpt>
      <trkpt lat="47.750585" lon="7.694483">
        <ele>644.170363</ele>
        <time>2021-11-22T14:03:26.905Z</time>
      </trkpt>
      <trkpt lat="47.750756" lon="7.694376">
        <ele>645.795030</ele>
        <time>2021-11-22T14:03:39.624Z</time>
      </trkpt>
      <trkpt lat="47.750816" lon="7.694339">
        <ele>646.363854</ele>
        <time>2021-11-22T14:03:42.211Z</time>
      </trkpt>
      <trkpt lat="47.750881" lon="7.694297">
        <ele>646.984490</ele>
        <time>2021-11-22T14:03:45.279Z</time>
      </trkpt>
      <trkpt lat="47.750949" lon="7.694297">
        <ele>647.579999</ele>
        <time>2021-11-22T14:03:47.936Z</time>
      </trkpt>
      <trkpt lat="47.751042" lon="7.694347">
        <ele>648.446024</ele>
        <time>2021-11-22T14:03:56.684Z</time>
      </trkpt>
      <trkpt lat="47.751236" lon="7.694532">
        <ele>650.464196</ele>
        <time>2021-11-22T14:04:06.283Z</time>
      </trkpt>
      <trkpt lat="47.751634" lon="7.695113">
        <ele>654.627534</ele>
        <time>2021-11-22T14:04:34.355Z</time>
      </trkpt>
      <trkpt lat="47.751802" lon="7.695226">
        <ele>654.657809</ele>
        <time>2021-11-22T14:04:38.127Z</time>
      </trkpt>
      <trkpt lat="47.752003" lon="7.695290">
        <ele>654.691561</ele>
        <time>2021-11-22T14:04:48.766Z</time>
      </trkpt>
      <trkpt lat="47.752444" lon="7.695226">
        <ele>654.764316</ele>
        <time>2021-11-22T14:04:58.526Z</time>
      </trkpt>
      <trkpt lat="47.752782" lon="7.695108">
        <ele>654.821323</ele>
        <time>2021-11-22T14:05:02.259Z</time>
      </trkpt>
      <trkpt lat="47.752827" lon="7.695092">
        <ele>654.828920</ele>
        <time>2021-11-22T14:05:02.667Z</time>
      </trkpt>
      <trkpt lat="47.753628" lon="7.694800">
        <ele>651.000276</ele>
        <time>2021-11-22T14:05:10.453Z</time>
      </trkpt>
      <trkpt lat="47.753693" lon="7.694783">
        <ele>650.233391</ele>
        <time>2021-11-22T14:05:11.032Z</time>
      </trkpt>
      <trkpt lat="47.753801" lon="7.694754">
        <ele>648.958150</ele>
        <time>2021-11-22T14:05:11.982Z</time>
      </trkpt>
      <trkpt lat="47.754528" lon="7.694223">
        <ele>639.546871</ele>
        <time>2021-11-22T14:05:18.733Z</time>
      </trkpt>
      <trkpt lat="47.755165" lon="7.694045">
        <ele>631.758128</ele>
        <time>2021-11-22T14:05:24.142Z</time>
      </trkpt>
      <trkpt lat="47.755213" lon="7.694021">
        <ele>631.093739</ele>
        <time>2021-11-22T14:05:24.560Z</time>
      </trkpt>
      <trkpt lat="47.755250" lon="7.693936">
        <ele>630.200556</ele>
        <time>2021-11-22T14:05:25.117Z</time>
      </trkpt>
      <trkpt lat="47.755207" lon="7.693738">
        <ele>628.365222</ele>
        <time>2021-11-22T14:05:26.333Z</time>
      </trkpt>
      <trkpt lat="47.754769" lon="7.693440">
        <ele>622.046023</ele>
        <time>2021-11-22T14:05:30.396Z</time>
      </trkpt>
      <trkpt lat="47.754304" lon="7.693422">
        <ele>615.943149</ele>
        <time>2021-11-22T14:05:34.267Z</time>
      </trkpt>
      <trkpt lat="47.754258" lon="7.693296">
        <ele>614.678445</ele>
        <time>2021-11-22T14:05:35.095Z</time>
      </trkpt>
      <trkpt lat="47.754282" lon="7.693190">
        <ele>613.691849</ele>
        <time>2021-11-22T14:05:35.746Z</time>
      </trkpt>
      <trkpt lat="47.754627" lon="7.692658">
        <ele>607.609989</ele>
        <time>2021-11-22T14:05:39.932Z</time>
      </trkpt>
      <trkpt lat="47.754782" lon="7.692614">
        <ele>605.819686</ele>
        <time>2021-11-22T14:05:41.302Z</time>
      </trkpt>
      <trkpt lat="47.755744" lon="7.692719">
        <ele>594.875898</ele>
        <time>2021-11-22T14:05:49.546Z</time>
      </trkpt>
      <trkpt lat="47.756037" lon="7.692646">
        <ele>591.505334</ele>
        <time>2021-11-22T14:05:52.053Z</time>
      </trkpt>
      <trkpt lat="47.756102" lon="7.692510">
        <ele>590.232572</ele>
        <time>2021-11-22T14:05:53.010Z</time>
      </trkpt>
      <trkpt lat="47.756101" lon="7.692300">
        <ele>588.696994</ele>
        <time>2021-11-22T14:05:54.200Z</time>
      </trkpt>
      <trkpt lat="47.755855" lon="7.691879">
        <ele>584.647617</ele>
        <time>2021-11-22T14:05:57.385Z</time>
      </trkpt>
      <trkpt lat="47.755781" lon="7.691755">
        <ele>583.443921</ele>
        <time>2021-11-22T14:05:58.315Z</time>
      </trkpt>
      <trkpt lat="47.755697" lon="7.691616">
        <ele>582.087075</ele>
        <time>2021-11-22T14:05:59.408Z</time>
      </trkpt>
      <trkpt lat="47.755657" lon="7.691550">
        <ele>581.441984</ele>
        <time>2021-11-22T14:05:59.903Z</time>
      </trkpt>
      <trkpt lat="47.755383" lon="7.691104">
        <ele>577.055901</ele>
        <time>2021-11-22T14:06:03.402Z</time>
      </trkpt>
      <trkpt lat="47.755213" lon="7.690859">
        <ele>574.499846</ele>
        <time>2021-11-22T14:06:05.431Z</time>
      </trkpt>
      <trkpt lat="47.755153" lon="7.690773">
        <ele>573.600082</ele>
        <time>2021-11-22T14:06:06.132Z</time>
      </trkpt>
      <trkpt lat="47.755141" lon="7.690755">
        <ele>573.416052</ele>
        <time>2021-11-22T14:06:06.290Z</time>
      </trkpt>
      <trkpt lat="47.754987" lon="7.690935">
        <ele>571.301102</ele>
        <time>2021-11-22T14:06:07.976Z</time>
      </trkpt>
      <trkpt lat="47.754903" lon="7.691039">
        <ele>570.271943</ele>
        <time>2021-11-22T14:06:08.919Z</time>
      </trkpt>
      <trkpt lat="47.754614" lon="7.691178">
        <ele>568.067149</ele>
        <time>2021-11-22T14:06:11.534Z</time>
      </trkpt>
      <trkpt lat="47.754318" lon="7.691081">
        <ele>565.866962</ele>
        <time>2021-11-22T14:06:14.185Z</time>
      </trkpt>
      <trkpt lat="47.753915" lon="7.690410">
        <ele>561.475909</ele>
        <time>2021-11-22T14:06:19.674Z</time>
      </trkpt>
      <trkpt lat="47.753235" lon="7.689826">
        <ele>556.284245</ele>
        <time>2021-11-22T14:06:27.024Z</time>
      </trkpt>
      <trkpt lat="47.752818" lon="7.689202">
        <ele>553.237819</ele>
        <time>2021-11-22T14:06:32.571Z</time>
      </trkpt>
      <trkpt lat="47.751950" lon="7.688392">
        <ele>547.836006</ele>
        <time>2021-11-22T14:06:42.286Z</time>
      </trkpt>
      <trkpt lat="47.751723" lon="7.688048">
        <ele>545.478227</ele>
        <time>2021-11-22T14:06:45.337Z</time>
      </trkpt>
      <trkpt lat="47.750887" lon="7.686454">
        <ele>535.589196</ele>
        <time>2021-11-22T14:06:57.379Z</time>
      </trkpt>
      <trkpt lat="47.750747" lon="7.686223">
        <ele>533.852446</ele>
        <time>2021-11-22T14:06:59.194Z</time>
      </trkpt>
      <trkpt lat="47.750583" lon="7.685952">
        <ele>531.722128</ele>
        <time>2021-11-22T14:07:01.322Z</time>
      </trkpt>
      <trkpt lat="47.750087" lon="7.685340">
        <ele>526.121701</ele>
        <time>2021-11-22T14:07:06.932Z</time>
      </trkpt>
      <trkpt lat="47.749482" lon="7.684868">
        <ele>520.184809</ele>
        <time>2021-11-22T14:07:12.869Z</time>
      </trkpt>
      <trkpt lat="47.749327" lon="7.684639">
        <ele>518.772158</ele>
        <time>2021-11-22T14:07:14.788Z</time>
      </trkpt>
      <trkpt lat="47.749151" lon="7.684216">
        <ele>516.986960</ele>
        <time>2021-11-22T14:07:17.825Z</time>
      </trkpt>
      <trkpt lat="47.748669" lon="7.683722">
        <ele>513.862611</ele>
        <time>2021-11-22T14:07:23.258Z</time>
      </trkpt>
      <trkpt lat="47.748453" lon="7.683434">
        <ele>512.314245</ele>
        <time>2021-11-22T14:07:25.968Z</time>
      </trkpt>
      <trkpt lat="47.748294" lon="7.683274">
        <ele>511.289583</ele>
        <time>2021-11-22T14:07:27.777Z</time>
      </trkpt>
      <trkpt lat="47.747874" lon="7.682869">
        <ele>509.158788</ele>
        <time>2021-11-22T14:07:33.708Z</time>
      </trkpt>
      <trkpt lat="47.747654" lon="7.682538">
        <ele>508.168927</ele>
        <time>2021-11-22T14:07:37.272Z</time>
      </trkpt>
      <trkpt lat="47.747272" lon="7.681883">
        <ele>506.324849</ele>
        <time>2021-11-22T14:07:43.006Z</time>
      </trkpt>
      <trkpt lat="47.747219" lon="7.681713">
        <ele>505.926311</ele>
        <time>2021-11-22T14:07:44.430Z</time>
      </trkpt>
      <trkpt lat="47.747106" lon="7.681387">
        <ele>505.146253</ele>
        <time>2021-11-22T14:07:46.749Z</time>
      </trkpt>
      <trkpt lat="47.747024" lon="7.681222">
        <ele>504.709875</ele>
        <time>2021-11-22T14:07:48.365Z</time>
      </trkpt>
      <trkpt lat="47.746965" lon="7.681178">
        <ele>504.501106</ele>
        <time>2021-11-22T14:07:48.979Z</time>
      </trkpt>
      <trkpt lat="47.746799" lon="7.681201">
        <ele>503.913464</ele>
        <time>2021-11-22T14:07:50.573Z</time>
      </trkpt>
      <trkpt lat="47.746576" lon="7.681328">
        <ele>502.997017</ele>
        <time>2021-11-22T14:07:52.999Z</time>
      </trkpt>
      <trkpt lat="47.746488" lon="7.681377">
        <ele>502.636389</ele>
        <time>2021-11-22T14:07:53.886Z</time>
      </trkpt>
      <trkpt lat="47.745956" lon="7.681424">
        <ele>500.591053</ele>
        <time>2021-11-22T14:07:59.566Z</time>
      </trkpt>
      <trkpt lat="47.745767" lon="7.681426">
        <ele>499.865680</ele>
        <time>2021-11-22T14:08:01.394Z</time>
      </trkpt>
      <trkpt lat="47.745600" lon="7.681430">
        <ele>499.224676</ele>
        <time>2021-11-22T14:08:03.065Z</time>
      </trkpt>
      <trkpt lat="47.745373" lon="7.681322">
        <ele>498.309986</ele>
        <time>2021-11-22T14:08:05.263Z</time>
      </trkpt>
      <trkpt lat="47.745121" lon="7.681019">
        <ele>497.093884</ele>
        <time>2021-11-22T14:08:08.239Z</time>
      </trkpt>
      <trkpt lat="47.744693" lon="7.680763">
        <ele>495.493546</ele>
        <time>2021-11-22T14:08:12.757Z</time>
      </trkpt>
      <trkpt lat="47.744265" lon="7.680273">
        <ele>493.619784</ele>
        <time>2021-11-22T14:08:18.411Z</time>
      </trkpt>
      <trkpt lat="47.743580" lon="7.679974">
        <ele>491.143248</ele>
        <time>2021-11-22T14:08:25.847Z</time>
      </trkpt>
      <trkpt lat="47.743125" lon="7.679649">
        <ele>488.575595</ele>
        <time>2021-11-22T14:08:30.906Z</time>
      </trkpt>
      <trkpt lat="47.742594" lon="7.679613">
        <ele>485.857047</ele>
        <time>2021-11-22T14:08:35.845Z</time>
      </trkpt>
      <trkpt lat="47.742094" lon="7.679218">
        <ele>482.961413</ele>
        <time>2021-11-22T14:08:41.065Z</time>
      </trkpt>
      <trkpt lat="47.741945" lon="7.679099">
        <ele>482.096423</ele>
        <time>2021-11-22T14:08:42.592Z</time>
      </trkpt>
      <trkpt lat="47.741815" lon="7.679062">
        <ele>481.197851</ele>
        <time>2021-11-22T14:08:43.816Z</time>
      </trkpt>
      <trkpt lat="47.741607" lon="7.679101">
        <ele>479.646077</ele>
        <time>2021-11-22T14:08:45.689Z</time>
      </trkpt>
      <trkpt lat="47.741388" lon="7.679049">
        <ele>478.004539</ele>
        <time>2021-11-22T14:08:47.685Z</time>
      </trkpt>
      <trkpt lat="47.741083" lon="7.678968">
        <ele>475.711257</ele>
        <time>2021-11-22T14:08:50.463Z</time>
      </trkpt>
      <trkpt lat="47.740304" lon="7.678993">
        <ele>469.943879</ele>
        <time>2021-11-22T14:08:57.337Z</time>
      </trkpt>
      <trkpt lat="47.739598" lon="7.678776">
        <ele>464.347900</ele>
        <time>2021-11-22T14:09:03.719Z</time>
      </trkpt>
      <trkpt lat="47.738830" lon="7.678384">
        <ele>457.946751</ele>
        <time>2021-11-22T14:09:10.926Z</time>
      </trkpt>
      <trkpt lat="47.738153" lon="7.677843">
        <ele>451.807995</ele>
        <time>2021-11-22T14:09:17.719Z</time>
      </trkpt>
      <trkpt lat="47.738044" lon="7.677585">
        <ele>450.141753</ele>
        <time>2021-11-22T14:09:19.498Z</time>
      </trkpt>
      <trkpt lat="47.737835" lon="7.676705">
        <ele>445.037973</ele>
        <time>2021-11-22T14:09:25.012Z</time>
      </trkpt>
      <trkpt lat="47.737543" lon="7.675900">
        <ele>440.036084</ele>
        <time>2021-11-22T14:09:30.508Z</time>
      </trkpt>
      <trkpt lat="47.737531" lon="7.675742">
        <ele>439.248759</ele>
        <time>2021-11-22T14:09:31.399Z</time>
      </trkpt>
      <trkpt lat="47.737512" lon="7.675504">
        <ele>438.109169</ele>
        <time>2021-11-22T14:09:32.905Z</time>
      </trkpt>
      <trkpt lat="47.737413" lon="7.674223">
        <ele>431.978163</ele>
        <time>2021-11-22T14:09:40.587Z</time>
      </trkpt>
      <trkpt lat="47.737350" lon="7.673927">
        <ele>430.501936</ele>
        <time>2021-11-22T14:09:42.521Z</time>
      </trkpt>
      <trkpt lat="47.737279" lon="7.673849">
        <ele>429.877814</ele>
        <time>2021-11-22T14:09:43.390Z</time>
      </trkpt>
      <trkpt lat="47.737209" lon="7.673808">
        <ele>429.345898</ele>
        <time>2021-11-22T14:09:44.016Z</time>
      </trkpt>
      <trkpt lat="47.736984" lon="7.673899">
        <ele>427.697338</ele>
        <time>2021-11-22T14:09:46.270Z</time>
      </trkpt>
      <trkpt lat="47.736789" lon="7.673937">
        <ele>426.693936</ele>
        <time>2021-11-22T14:09:48.057Z</time>
      </trkpt>
      <trkpt lat="47.736734" lon="7.673923">
        <ele>426.496954</ele>
        <time>2021-11-22T14:09:48.588Z</time>
      </trkpt>
      <trkpt lat="47.736648" lon="7.673885">
        <ele>426.180242</ele>
        <time>2021-11-22T14:09:49.443Z</time>
      </trkpt>
      <trkpt lat="47.736564" lon="7.673797">
        <ele>425.817501</ele>
        <time>2021-11-22T14:09:50.389Z</time>
      </trkpt>
      <trkpt lat="47.736539" lon="7.673729">
        <ele>425.633511</ele>
        <time>2021-11-22T14:09:50.842Z</time>
      </trkpt>
      <trkpt lat="47.736520" lon="7.673654">
        <ele>425.443236</ele>
        <time>2021-11-22T14:09:51.390Z</time>
      </trkpt>
      <trkpt lat="47.736513" lon="7.673573">
        <ele>425.249348</ele>
        <time>2021-11-22T14:09:51.931Z</time>
      </trkpt>
      <trkpt lat="47.736528" lon="7.673431">
        <ele>424.908084</ele>
        <time>2021-11-22T14:09:52.894Z</time>
      </trkpt>
      <trkpt lat="47.736594" lon="7.673200">
        <ele>424.312216</ele>
        <time>2021-11-22T14:09:54.458Z</time>
      </trkpt>
      <trkpt lat="47.736625" lon="7.673099">
        <ele>424.048635</ele>
        <time>2021-11-22T14:09:55.239Z</time>
      </trkpt>
      <trkpt lat="47.736651" lon="7.672988">
        <ele>423.769578</ele>
        <time>2021-11-22T14:09:56.024Z</time>
      </trkpt>
      <trkpt lat="47.736660" lon="7.672795">
        <ele>423.310267</ele>
        <time>2021-11-22T14:09:57.370Z</time>
      </trkpt>
      <trkpt lat="47.736583" lon="7.672620">
        <ele>422.813772</ele>
        <time>2021-11-22T14:09:58.719Z</time>
      </trkpt>
      <trkpt lat="47.736527" lon="7.672559">
        <ele>422.568713</ele>
        <time>2021-11-22T14:09:59.437Z</time>
      </trkpt>
      <trkpt lat="47.736467" lon="7.672527">
        <ele>422.343692</ele>
        <time>2021-11-22T14:10:00.197Z</time>
      </trkpt>
      <trkpt lat="47.736412" lon="7.672443">
        <ele>422.065359</ele>
        <time>2021-11-22T14:10:01.279Z</time>
      </trkpt>
      <trkpt lat="47.736378" lon="7.672359">
        <ele>421.832597</ele>
        <time>2021-11-22T14:10:02.083Z</time>
      </trkpt>
      <trkpt lat="47.736301" lon="7.672139">
        <ele>421.243784</ele>
        <time>2021-11-22T14:10:03.928Z</time>
      </trkpt>
      <trkpt lat="47.736218" lon="7.671812">
        <ele>420.792838</ele>
        <time>2021-11-22T14:10:06.903Z</time>
      </trkpt>
      <trkpt lat="47.736124" lon="7.671853">
        <ele>420.860988</ele>
        <time>2021-11-22T14:10:07.980Z</time>
      </trkpt>
      <trkpt lat="47.736106" lon="7.671856">
        <ele>420.873589</ele>
        <time>2021-11-22T14:10:08.170Z</time>
      </trkpt>
      <trkpt lat="47.735983" lon="7.671884">
        <ele>420.960155</ele>
        <time>2021-11-22T14:10:09.937Z</time>
      </trkpt>
      <trkpt lat="47.735941" lon="7.671886">
        <ele>420.989389</ele>
        <time>2021-11-22T14:10:10.626Z</time>
      </trkpt>
      <trkpt lat="47.735853" lon="7.671875">
        <ele>421.050825</ele>
        <time>2021-11-22T14:10:11.800Z</time>
      </trkpt>
      <trkpt lat="47.735792" lon="7.671859">
        <ele>421.093917</ele>
        <time>2021-11-22T14:10:12.643Z</time>
      </trkpt>
      <trkpt lat="47.735709" lon="7.671829">
        <ele>421.153341</ele>
        <time>2021-11-22T14:10:13.803Z</time>
      </trkpt>
      <trkpt lat="47.734596" lon="7.671119">
        <ele>421.987072</ele>
        <time>2021-11-22T14:10:39.299Z</time>
      </trkpt>
      <trkpt lat="47.734105" lon="7.670709">
        <ele>422.134323</ele>
        <time>2021-11-22T14:10:52.305Z</time>
      </trkpt>
      <trkpt lat="47.731824" lon="7.667810">
        <ele>420.013656</ele>
        <time>2021-11-22T14:11:31.792Z</time>
      </trkpt>
      <trkpt lat="47.730821" lon="7.666794">
        <ele>412.459704</ele>
        <time>2021-11-22T14:11:42.700Z</time>
      </trkpt>
      <trkpt lat="47.730575" lon="7.666611">
        <ele>410.733112</ele>
        <time>2021-11-22T14:11:45.120Z</time>
      </trkpt>
      <trkpt lat="47.730164" lon="7.666504">
        <ele>408.367419</ele>
        <time>2021-11-22T14:11:48.813Z</time>
      </trkpt>
      <trkpt lat="47.729500" lon="7.666697">
        <ele>405.937680</ele>
        <time>2021-11-22T14:11:55.122Z</time>
      </trkpt>
      <trkpt lat="47.729061" lon="7.666735">
        <ele>404.358449</ele>
        <time>2021-11-22T14:11:59.626Z</time>
      </trkpt>
      <trkpt lat="47.728663" lon="7.666557">
        <ele>402.865854</ele>
        <time>2021-11-22T14:12:04.356Z</time>
      </trkpt>
      <trkpt lat="47.727957" lon="7.666157">
        <ele>402.551473</ele>
        <time>2021-11-22T14:12:15.827Z</time>
      </trkpt>
      <trkpt lat="47.727684" lon="7.665925">
        <ele>402.715773</ele>
        <time>2021-11-22T14:12:21.984Z</time>
      </trkpt>
      <trkpt lat="47.727177" lon="7.665491">
        <ele>403.021450</ele>
        <time>2021-11-22T14:12:33.922Z</time>
      </trkpt>
      <trkpt lat="47.726505" lon="7.664916">
        <ele>402.838166</ele>
        <time>2021-11-22T14:12:47.253Z</time>
      </trkpt>
      <trkpt lat="47.725821" lon="7.664427">
        <ele>402.262543</ele>
        <time>2021-11-22T14:12:57.892Z</time>
      </trkpt>
      <trkpt lat="47.724376" lon="7.663843">
        <ele>398.217725</ele>
        <time>2021-11-22T14:13:13.594Z</time>
      </trkpt>
      <trkpt lat="47.723986" lon="7.663771">
        <ele>396.673125</ele>
        <time>2021-11-22T14:13:17.404Z</time>
      </trkpt>
      <trkpt lat="47.723741" lon="7.663725">
        <ele>395.702547</ele>
        <time>2021-11-22T14:13:19.664Z</time>
      </trkpt>
      <trkpt lat="47.722824" lon="7.663661">
        <ele>390.426450</ele>
        <time>2021-11-22T14:13:28.067Z</time>
      </trkpt>
      <trkpt lat="47.722506" lon="7.663586">
        <ele>388.367044</ele>
        <time>2021-11-22T14:13:30.991Z</time>
      </trkpt>
      <trkpt lat="47.722413" lon="7.663564">
        <ele>387.764720</ele>
        <time>2021-11-22T14:13:31.810Z</time>
      </trkpt>
      <trkpt lat="47.720621" lon="7.662945">
        <ele>376.364130</ele>
        <time>2021-11-22T14:13:48.517Z</time>
      </trkpt>
      <trkpt lat="47.720325" lon="7.662795">
        <ele>374.465018</ele>
        <time>2021-11-22T14:13:51.415Z</time>
      </trkpt>
      <trkpt lat="47.720118" lon="7.662610">
        <ele>372.998247</ele>
        <time>2021-11-22T14:13:53.674Z</time>
      </trkpt>
      <trkpt lat="47.719750" lon="7.661976">
        <ele>370.131618</ele>
        <time>2021-11-22T14:13:58.939Z</time>
      </trkpt>
      <trkpt lat="47.719569" lon="7.661837">
        <ele>369.143919</ele>
        <time>2021-11-22T14:14:00.827Z</time>
      </trkpt>
      <trkpt lat="47.719334" lon="7.661815">
        <ele>368.002361</ele>
        <time>2021-11-22T14:14:03.045Z</time>
      </trkpt>
      <trkpt lat="47.718314" lon="7.661921">
        <ele>363.163141</ele>
        <time>2021-11-22T14:14:12.853Z</time>
      </trkpt>
      <trkpt lat="47.718154" lon="7.661938">
        <ele>362.548903</ele>
        <time>2021-11-22T14:14:14.401Z</time>
      </trkpt>
      <trkpt lat="47.717339" lon="7.662062">
        <ele>359.411784</ele>
        <time>2021-11-22T14:14:22.471Z</time>
      </trkpt>
      <trkpt lat="47.716824" lon="7.662298">
        <ele>357.348138</ele>
        <time>2021-11-22T14:14:27.813Z</time>
      </trkpt>
      <trkpt lat="47.715688" lon="7.662774">
        <ele>353.411492</ele>
        <time>2021-11-22T14:14:39.694Z</time>
      </trkpt>
      <trkpt lat="47.715478" lon="7.662846">
        <ele>352.709891</ele>
        <time>2021-11-22T14:14:41.864Z</time>
      </trkpt>
      <trkpt lat="47.714740" lon="7.663117">
        <ele>350.364395</ele>
        <time>2021-11-22T14:14:49.630Z</time>
      </trkpt>
      <trkpt lat="47.714721" lon="7.662885">
        <ele>349.957810</ele>
        <time>2021-11-22T14:14:52.002Z</time>
      </trkpt>
      <trkpt lat="47.714720" lon="7.662876">
        <ele>349.941941</ele>
        <time>2021-11-22T14:14:52.080Z</time>
      </trkpt>
      <trkpt lat="47.714694" lon="7.662704">
        <ele>349.635257</ele>
        <time>2021-11-22T14:14:53.830Z</time>
      </trkpt>
      <trkpt lat="47.714641" lon="7.662491">
        <ele>349.240177</ele>
        <time>2021-11-22T14:14:56.082Z</time>
      </trkpt>
      <trkpt lat="47.714574" lon="7.662213">
        <ele>348.726453</ele>
        <time>2021-11-22T14:14:59.025Z</time>
      </trkpt>
      <trkpt lat="47.714546" lon="7.662082">
        <ele>348.487331</ele>
        <time>2021-11-22T14:15:00.365Z</time>
      </trkpt>
      <trkpt lat="47.714533" lon="7.662020">
        <ele>348.374355</ele>
        <time>2021-11-22T14:15:01.013Z</time>
      </trkpt>
      <trkpt lat="47.714505" lon="7.661877">
        <ele>348.115259</ele>
        <time>2021-11-22T14:15:02.595Z</time>
      </trkpt>
      <trkpt lat="47.714482" lon="7.661759">
        <ele>347.901535</ele>
        <time>2021-11-22T14:15:03.843Z</time>
      </trkpt>
      <trkpt lat="47.714378" lon="7.661184">
        <ele>346.865700</ele>
        <time>2021-11-22T14:15:10.048Z</time>
      </trkpt>
      <trkpt lat="47.714369" lon="7.661131">
        <ele>346.770606</ele>
        <time>2021-11-22T14:15:10.584Z</time>
      </trkpt>
      <trkpt lat="47.714351" lon="7.661050">
        <ele>346.622204</ele>
        <time>2021-11-22T14:15:11.466Z</time>
      </trkpt>
      <trkpt lat="47.714341" lon="7.661005">
        <ele>346.539758</ele>
        <time>2021-11-22T14:15:11.937Z</time>
      </trkpt>
      <trkpt lat="47.714296" lon="7.660799">
        <ele>346.192837</ele>
        <time>2021-11-22T14:15:14.298Z</time>
      </trkpt>
      <trkpt lat="47.714286" lon="7.660755">
        <ele>346.160489</ele>
        <time>2021-11-22T14:15:14.809Z</time>
      </trkpt>
      <trkpt lat="47.714211" lon="7.660454">
        <ele>345.936929</ele>
        <time>2021-11-22T14:15:18.172Z</time>
      </trkpt>
      <trkpt lat="47.714194" lon="7.660383">
        <ele>345.884440</ele>
        <time>2021-11-22T14:15:19.019Z</time>
      </trkpt>
      <trkpt lat="47.714173" lon="7.660300">
        <ele>345.822678</ele>
        <time>2021-11-22T14:15:20.004Z</time>
      </trkpt>
      <trkpt lat="47.713982" lon="7.659706">
        <ele>345.364139</ele>
        <time>2021-11-22T14:15:27.198Z</time>
      </trkpt>
      <trkpt lat="47.713892" lon="7.659559">
        <ele>345.225709</ele>
        <time>2021-11-22T14:15:29.338Z</time>
      </trkpt>
      <trkpt lat="47.713738" lon="7.659398">
        <ele>345.030802</ele>
        <time>2021-11-22T14:15:32.712Z</time>
      </trkpt>
      <trkpt lat="47.713577" lon="7.659270">
        <ele>344.841791</ele>
        <time>2021-11-22T14:15:35.813Z</time>
      </trkpt>
      <trkpt lat="47.713644" lon="7.658991">
        <ele>344.635460</ele>
        <time>2021-11-22T14:15:38.583Z</time>
      </trkpt>
      <trkpt lat="47.713838" lon="7.658171">
        <ele>345.148504</ele>
        <time>2021-11-22T14:15:48.022Z</time>
      </trkpt>
      <trkpt lat="47.713938" lon="7.657753">
        <ele>345.916758</ele>
        <time>2021-11-22T14:15:54.228Z</time>
      </trkpt>
      <trkpt lat="47.714041" lon="7.657327">
        <ele>346.700655</ele>
        <time>2021-11-22T14:16:01.609Z</time>
      </trkpt>
      <trkpt lat="47.714084" lon="7.657126">
        <ele>347.065900</ele>
        <time>2021-11-22T14:16:05.235Z</time>
      </trkpt>
      <trkpt lat="47.714118" lon="7.656951">
        <ele>347.381331</ele>
        <time>2021-11-22T14:16:08.626Z</time>
      </trkpt>
      <trkpt lat="47.714137" lon="7.656864">
        <ele>347.539728</ele>
        <time>2021-11-22T14:16:10.540Z</time>
      </trkpt>
      <trkpt lat="47.714198" lon="7.656549">
        <ele>348.107361</ele>
        <time>2021-11-22T14:16:17.546Z</time>
      </trkpt>
      <trkpt lat="47.714292" lon="7.656103">
        <ele>348.916708</ele>
        <time>2021-11-22T14:16:27.786Z</time>
      </trkpt>
      <trkpt lat="47.714534" lon="7.654913">
        <ele>353.032672</ele>
        <time>2021-11-22T14:16:56.486Z</time>
      </trkpt>
      <trkpt lat="47.714614" lon="7.654494">
        <ele>354.495582</ele>
        <time>2021-11-22T14:17:07.433Z</time>
      </trkpt>
      <trkpt lat="47.714662" lon="7.654161">
        <ele>355.639445</ele>
        <time>2021-11-22T14:17:16.002Z</time>
      </trkpt>
      <trkpt lat="47.714682" lon="7.653898">
        <ele>356.528436</ele>
        <time>2021-11-22T14:17:22.607Z</time>
      </trkpt>
      <trkpt lat="47.714697" lon="7.653436">
        <ele>358.016722</ele>
        <time>2021-11-22T14:17:33.634Z</time>
      </trkpt>
      <trkpt lat="47.714717" lon="7.652929">
        <ele>358.815856</ele>
        <time>2021-11-22T14:17:44.968Z</time>
      </trkpt>
      <trkpt lat="47.714749" lon="7.652555">
        <ele>359.409084</ele>
        <time>2021-11-22T14:17:52.699Z</time>
      </trkpt>
      <trkpt lat="47.714780" lon="7.652263">
        <ele>359.874230</ele>
        <time>2021-11-22T14:17:57.957Z</time>
      </trkpt>
      <trkpt lat="47.714818" lon="7.651961">
        <ele>360.357664</ele>
        <time>2021-11-22T14:18:02.604Z</time>
      </trkpt>
      <trkpt lat="47.714879" lon="7.651571">
        <ele>360.987691</ele>
        <time>2021-11-22T14:18:08.236Z</time>
      </trkpt>
      <trkpt lat="47.714952" lon="7.651161">
        <ele>361.655030</ele>
        <time>2021-11-22T14:18:13.238Z</time>
      </trkpt>
      <trkpt lat="47.715085" lon="7.650549">
        <ele>361.705114</ele>
        <time>2021-11-22T14:18:19.966Z</time>
      </trkpt>
      <trkpt lat="47.715172" lon="7.650217">
        <ele>361.190264</ele>
        <time>2021-11-22T14:18:22.927Z</time>
      </trkpt>
      <trkpt lat="47.716165" lon="7.646716">
        <ele>355.680190</ele>
        <time>2021-11-22T14:18:49.127Z</time>
      </trkpt>
      <trkpt lat="47.716410" lon="7.645900">
        <ele>354.396169</ele>
        <time>2021-11-22T14:18:56.414Z</time>
      </trkpt>
      <trkpt lat="47.716537" lon="7.645473">
        <ele>354.091695</ele>
        <time>2021-11-22T14:19:01.213Z</time>
      </trkpt>
      <trkpt lat="47.716742" lon="7.644948">
        <ele>353.695820</ele>
        <time>2021-11-22T14:19:08.173Z</time>
      </trkpt>
      <trkpt lat="47.716819" lon="7.644751">
        <ele>353.547236</ele>
        <time>2021-11-22T14:19:11.350Z</time>
      </trkpt>
      <trkpt lat="47.716998" lon="7.644151">
        <ele>353.119193</ele>
        <time>2021-11-22T14:19:16.484Z</time>
      </trkpt>
      <trkpt lat="47.717012" lon="7.643954">
        <ele>352.990002</ele>
        <time>2021-11-22T14:19:17.968Z</time>
      </trkpt>
      <trkpt lat="47.717002" lon="7.643878">
        <ele>352.939498</ele>
        <time>2021-11-22T14:19:18.678Z</time>
      </trkpt>
      <trkpt lat="47.716981" lon="7.643693">
        <ele>352.817143</ele>
        <time>2021-11-22T14:19:20.123Z</time>
      </trkpt>
      <trkpt lat="47.716828" lon="7.643314">
        <ele>351.863804</ele>
        <time>2021-11-22T14:19:23.275Z</time>
      </trkpt>
      <trkpt lat="47.716534" lon="7.642846">
        <ele>349.428366</ele>
        <time>2021-11-22T14:19:27.554Z</time>
      </trkpt>
      <trkpt lat="47.716370" lon="7.642427">
        <ele>347.584567</ele>
        <time>2021-11-22T14:19:30.584Z</time>
      </trkpt>
      <trkpt lat="47.716346" lon="7.641741">
        <ele>344.971740</ele>
        <time>2021-11-22T14:19:34.778Z</time>
      </trkpt>
      <trkpt lat="47.716460" lon="7.639885">
        <ele>335.782437</ele>
        <time>2021-11-22T14:19:45.772Z</time>
      </trkpt>
      <trkpt lat="47.716434" lon="7.639217">
        <ele>332.079081</ele>
        <time>2021-11-22T14:19:49.735Z</time>
      </trkpt>
      <trkpt lat="47.716258" lon="7.637710">
        <ele>324.207659</ele>
        <time>2021-11-22T14:19:58.808Z</time>
      </trkpt>
      <trkpt lat="47.716209" lon="7.637496">
        <ele>323.138337</ele>
        <time>2021-11-22T14:20:00.139Z</time>
      </trkpt>
      <trkpt lat="47.716159" lon="7.637371">
        <ele>322.450428</ele>
        <time>2021-11-22T14:20:01.021Z</time>
      </trkpt>
      <trkpt lat="47.716111" lon="7.637298">
        <ele>321.967583</ele>
        <time>2021-11-22T14:20:01.630Z</time>
      </trkpt>
      <trkpt lat="47.716084" lon="7.637265">
        <ele>321.721808</ele>
        <time>2021-11-22T14:20:01.974Z</time>
      </trkpt>
      <trkpt lat="47.716030" lon="7.637219">
        <ele>321.284205</ele>
        <time>2021-11-22T14:20:02.521Z</time>
      </trkpt>
      <trkpt lat="47.715891" lon="7.637127">
        <ele>320.214394</ele>
        <time>2021-11-22T14:20:03.902Z</time>
      </trkpt>
      <trkpt lat="47.715838" lon="7.637075">
        <ele>319.767890</ele>
        <time>2021-11-22T14:20:04.450Z</time>
      </trkpt>
      <trkpt lat="47.715759" lon="7.636776">
        <ele>318.248338</ele>
        <time>2021-11-22T14:20:06.406Z</time>
      </trkpt>
      <trkpt lat="47.715748" lon="7.636259">
        <ele>315.801480</ele>
        <time>2021-11-22T14:20:09.578Z</time>
      </trkpt>
      <trkpt lat="47.715754" lon="7.636022">
        <ele>314.870386</ele>
        <time>2021-11-22T14:20:11.055Z</time>
      </trkpt>
      <trkpt lat="47.715756" lon="7.635975">
        <ele>314.760633</ele>
        <time>2021-11-22T14:20:11.368Z</time>
      </trkpt>
      <trkpt lat="47.715762" lon="7.635882">
        <ele>314.542900</ele>
        <time>2021-11-22T14:20:11.998Z</time>
      </trkpt>
      <trkpt lat="47.715790" lon="7.635676">
        <ele>314.053115</ele>
        <time>2021-11-22T14:20:13.294Z</time>
      </trkpt>
      <trkpt lat="47.715856" lon="7.635431">
        <ele>313.438072</ele>
        <time>2021-11-22T14:20:15.024Z</time>
      </trkpt>
      <trkpt lat="47.715884" lon="7.635387">
        <ele>313.296927</ele>
        <time>2021-11-22T14:20:15.453Z</time>
      </trkpt>
      <trkpt lat="47.715831" lon="7.635279">
        <ele>312.985393</ele>
        <time>2021-11-22T14:20:16.470Z</time>
      </trkpt>
      <trkpt lat="47.715805" lon="7.635226">
        <ele>312.832529</ele>
        <time>2021-11-22T14:20:16.944Z</time>
      </trkpt>
      <trkpt lat="47.715778" lon="7.635183">
        <ele>312.695455</ele>
        <time>2021-11-22T14:20:17.391Z</time>
      </trkpt>
      <trkpt lat="47.715642" lon="7.634990">
        <ele>312.044123</ele>
        <time>2021-11-22T14:20:19.156Z</time>
      </trkpt>
      <trkpt lat="47.715360" lon="7.634582">
        <ele>310.680935</ele>
        <time>2021-11-22T14:20:23.206Z</time>
      </trkpt>
      <trkpt lat="47.715240" lon="7.634353">
        <ele>310.004470</ele>
        <time>2021-11-22T14:20:25.314Z</time>
      </trkpt>
      <trkpt lat="47.715183" lon="7.634240">
        <ele>309.675325</ele>
        <time>2021-11-22T14:20:26.373Z</time>
      </trkpt>
      <trkpt lat="47.715022" lon="7.633707">
        <ele>308.547586</ele>
        <time>2021-11-22T14:20:30.670Z</time>
      </trkpt>
      <trkpt lat="47.715016" lon="7.633585">
        <ele>308.392799</ele>
        <time>2021-11-22T14:20:31.595Z</time>
      </trkpt>
      <trkpt lat="47.715014" lon="7.633499">
        <ele>308.283912</ele>
        <time>2021-11-22T14:20:32.223Z</time>
      </trkpt>
      <trkpt lat="47.715007" lon="7.633277">
        <ele>308.002691</ele>
        <time>2021-11-22T14:20:33.906Z</time>
      </trkpt>
      <trkpt lat="47.714978" lon="7.633025">
        <ele>307.679186</ele>
        <time>2021-11-22T14:20:35.833Z</time>
      </trkpt>
      <trkpt lat="47.714915" lon="7.632667">
        <ele>307.210944</ele>
        <time>2021-11-22T14:20:38.640Z</time>
      </trkpt>
      <trkpt lat="47.714827" lon="7.632340">
        <ele>306.765295</ele>
        <time>2021-11-22T14:20:41.324Z</time>
      </trkpt>
      <trkpt lat="47.714733" lon="7.632056">
        <ele>306.364797</ele>
        <time>2021-11-22T14:20:43.798Z</time>
      </trkpt>
      <trkpt lat="47.714706" lon="7.631931">
        <ele>306.198674</ele>
        <time>2021-11-22T14:20:44.751Z</time>
      </trkpt>
      <trkpt lat="47.714684" lon="7.631714">
        <ele>305.920987</ele>
        <time>2021-11-22T14:20:46.317Z</time>
      </trkpt>
      <trkpt lat="47.714692" lon="7.631537">
        <ele>305.696510</ele>
        <time>2021-11-22T14:20:47.662Z</time>
      </trkpt>
      <trkpt lat="47.714695" lon="7.631471">
        <ele>305.612804</ele>
        <time>2021-11-22T14:20:48.143Z</time>
      </trkpt>
      <trkpt lat="47.714718" lon="7.631216">
        <ele>305.348054</ele>
        <time>2021-11-22T14:20:49.990Z</time>
      </trkpt>
      <trkpt lat="47.714728" lon="7.630996">
        <ele>305.178167</ele>
        <time>2021-11-22T14:20:51.600Z</time>
      </trkpt>
      <trkpt lat="47.714706" lon="7.630763">
        <ele>304.996891</ele>
        <time>2021-11-22T14:20:53.357Z</time>
      </trkpt>
      <trkpt lat="47.714567" lon="7.630288">
        <ele>304.597808</ele>
        <time>2021-11-22T14:20:57.343Z</time>
      </trkpt>
      <trkpt lat="47.714398" lon="7.630032">
        <ele>304.321484</ele>
        <time>2021-11-22T14:21:00.223Z</time>
      </trkpt>
      <trkpt lat="47.714188" lon="7.629841">
        <ele>304.039557</ele>
        <time>2021-11-22T14:21:03.189Z</time>
      </trkpt>
      <trkpt lat="47.713468" lon="7.629580">
        <ele>303.508016</ele>
        <time>2021-11-22T14:21:13.235Z</time>
      </trkpt>
      <trkpt lat="47.712919" lon="7.629237">
        <ele>303.951450</ele>
        <time>2021-11-22T14:21:22.280Z</time>
      </trkpt>
      <trkpt lat="47.711642" lon="7.627981">
        <ele>305.927765</ele>
        <time>2021-11-22T14:21:53.245Z</time>
      </trkpt>
      <trkpt lat="47.711145" lon="7.627730">
        <ele>307.203421</ele>
        <time>2021-11-22T14:22:06.759Z</time>
      </trkpt>
      <trkpt lat="47.710391" lon="7.627587">
        <ele>309.050672</ele>
        <time>2021-11-22T14:22:27.448Z</time>
      </trkpt>
      <trkpt lat="47.710074" lon="7.627420">
        <ele>309.366736</ele>
        <time>2021-11-22T14:22:36.732Z</time>
      </trkpt>
      <trkpt lat="47.709932" lon="7.627229">
        <ele>309.530959</ele>
        <time>2021-11-22T14:22:41.615Z</time>
      </trkpt>
      <trkpt lat="47.709431" lon="7.626195">
        <ele>310.266117</ele>
        <time>2021-11-22T14:22:58.564Z</time>
      </trkpt>
      <trkpt lat="47.709093" lon="7.625755">
        <ele>310.568711</ele>
        <time>2021-11-22T14:23:04.353Z</time>
      </trkpt>
      <trkpt lat="47.706171" lon="7.623041">
        <ele>297.217551</ele>
        <time>2021-11-22T14:23:37.798Z</time>
      </trkpt>
      <trkpt lat="47.705704" lon="7.622639">
        <ele>295.504052</ele>
        <time>2021-11-22T14:23:43.097Z</time>
      </trkpt>
      <trkpt lat="47.705652" lon="7.622609">
        <ele>295.344010</ele>
        <time>2021-11-22T14:23:43.629Z</time>
      </trkpt>
      <trkpt lat="47.705167" lon="7.622281">
        <ele>293.815167</ele>
        <time>2021-11-22T14:23:49.037Z</time>
      </trkpt>
      <trkpt lat="47.703895" lon="7.621692">
        <ele>290.794248</ele>
        <time>2021-11-22T14:24:03.613Z</time>
      </trkpt>
      <trkpt lat="47.702840" lon="7.621304">
        <ele>289.323528</ele>
        <time>2021-11-22T14:24:16.755Z</time>
      </trkpt>
      <trkpt lat="47.702263" lon="7.621140">
        <ele>288.806267</ele>
        <time>2021-11-22T14:24:24.038Z</time>
      </trkpt>
      <trkpt lat="47.701980" lon="7.621126">
        <ele>288.617495</ele>
        <time>2021-11-22T14:24:27.567Z</time>
      </trkpt>
      <trkpt lat="47.701898" lon="7.621140">
        <ele>288.562468</ele>
        <time>2021-11-22T14:24:28.700Z</time>
      </trkpt>
      <trkpt lat="47.701775" lon="7.621220">
        <ele>288.472957</ele>
        <time>2021-11-22T14:24:30.403Z</time>
      </trkpt>
      <trkpt lat="47.701564" lon="7.621308">
        <ele>288.326853</ele>
        <time>2021-11-22T14:24:33.271Z</time>
      </trkpt>
      <trkpt lat="47.701345" lon="7.621478">
        <ele>288.162130</ele>
        <time>2021-11-22T14:24:36.464Z</time>
      </trkpt>
      <trkpt lat="47.701026" lon="7.621688">
        <ele>287.929525</ele>
        <time>2021-11-22T14:24:41.108Z</time>
      </trkpt>
      <trkpt lat="47.700612" lon="7.621969">
        <ele>287.844417</ele>
        <time>2021-11-22T14:24:47.264Z</time>
      </trkpt>
      <trkpt lat="47.700506" lon="7.622028">
        <ele>287.834663</ele>
        <time>2021-11-22T14:24:48.842Z</time>
      </trkpt>
      <trkpt lat="47.700069" lon="7.622202">
        <ele>287.795676</ele>
        <time>2021-11-22T14:24:55.013Z</time>
      </trkpt>
      <trkpt lat="47.699833" lon="7.622227">
        <ele>287.775288</ele>
        <time>2021-11-22T14:24:58.445Z</time>
      </trkpt>
      <trkpt lat="47.698108" lon="7.621910">
        <ele>288.168994</ele>
        <time>2021-11-22T14:25:26.745Z</time>
      </trkpt>
      <trkpt lat="47.698008" lon="7.621903">
        <ele>288.209042</ele>
        <time>2021-11-22T14:25:28.511Z</time>
      </trkpt>
      <trkpt lat="47.697872" lon="7.621911">
        <ele>288.263489</ele>
        <time>2021-11-22T14:25:30.970Z</time>
      </trkpt>
      <trkpt lat="47.695671" lon="7.622041">
        <ele>288.766783</ele>
        <time>2021-11-22T14:26:06.978Z</time>
      </trkpt>
      <trkpt lat="47.695217" lon="7.622030">
        <ele>288.188950</ele>
        <time>2021-11-22T14:26:12.640Z</time>
      </trkpt>
      <trkpt lat="47.694657" lon="7.621909">
        <ele>287.387979</ele>
        <time>2021-11-22T14:26:19.171Z</time>
      </trkpt>
      <trkpt lat="47.693441" lon="7.621686">
        <ele>285.621996</ele>
        <time>2021-11-22T14:26:32.549Z</time>
      </trkpt>
      <trkpt lat="47.693055" lon="7.621643">
        <ele>285.043816</ele>
        <time>2021-11-22T14:26:36.792Z</time>
      </trkpt>
      <trkpt lat="47.691657" lon="7.621577">
        <ele>283.719670</ele>
        <time>2021-11-22T14:26:53.563Z</time>
      </trkpt>
      <trkpt lat="47.690988" lon="7.621539">
        <ele>284.022450</ele>
        <time>2021-11-22T14:27:03.789Z</time>
      </trkpt>
      <trkpt lat="47.690389" lon="7.621477">
        <ele>284.294007</ele>
        <time>2021-11-22T14:27:15.840Z</time>
      </trkpt>
      <trkpt lat="47.689900" lon="7.621387">
        <ele>285.633235</ele>
        <time>2021-11-22T14:27:27.339Z</time>
      </trkpt>
      <trkpt lat="47.689448" lon="7.621314">
        <ele>287.259847</ele>
        <time>2021-11-22T14:27:39.614Z</time>
      </trkpt>
      <trkpt lat="47.688215" lon="7.621076">
        <ele>291.853463</ele>
        <time>2021-11-22T14:28:20.792Z</time>
      </trkpt>
      <trkpt lat="47.687402" lon="7.620785">
        <ele>295.318963</ele>
        <time>2021-11-22T14:28:49.419Z</time>
      </trkpt>
      <trkpt lat="47.686950" lon="7.620497">
        <ele>297.357090</ele>
        <time>2021-11-22T14:29:04.471Z</time>
      </trkpt>
      <trkpt lat="47.686071" lon="7.619826">
        <ele>299.012805</ele>
        <time>2021-11-22T14:29:29.065Z</time>
      </trkpt>
      <trkpt lat="47.682798" lon="7.618967">
        <ele>298.404621</ele>
        <time>2021-11-22T14:30:14.391Z</time>
      </trkpt>
      <trkpt lat="47.681722" lon="7.618589">
        <ele>296.451998</ele>
        <time>2021-11-22T14:30:26.073Z</time>
      </trkpt>
      <trkpt lat="47.681159" lon="7.618675">
        <ele>295.467279</ele>
        <time>2021-11-22T14:30:32.145Z</time>
      </trkpt>
      <trkpt lat="47.680528" lon="7.618886">
        <ele>294.350621</ele>
        <time>2021-11-22T14:30:39.363Z</time>
      </trkpt>
      <trkpt lat="47.679798" lon="7.619058">
        <ele>293.074551</ele>
        <time>2021-11-22T14:30:48.142Z</time>
      </trkpt>
      <trkpt lat="47.679295" lon="7.618910">
        <ele>291.837961</ele>
        <time>2021-11-22T14:30:54.336Z</time>
      </trkpt>
      <trkpt lat="47.678330" lon="7.618419">
        <ele>289.320514</ele>
        <time>2021-11-22T14:31:05.209Z</time>
      </trkpt>
      <trkpt lat="47.677907" lon="7.618383">
        <ele>288.231398</ele>
        <time>2021-11-22T14:31:09.329Z</time>
      </trkpt>
      <trkpt lat="47.677305" lon="7.618504">
        <ele>286.510071</ele>
        <time>2021-11-22T14:31:15.086Z</time>
      </trkpt>
      <trkpt lat="47.676817" lon="7.618662">
        <ele>285.094841</ele>
        <time>2021-11-22T14:31:20.027Z</time>
      </trkpt>
      <trkpt lat="47.676291" lon="7.618807">
        <ele>283.578955</ele>
        <time>2021-11-22T14:31:26.162Z</time>
      </trkpt>
      <trkpt lat="47.676021" lon="7.618882">
        <ele>284.309267</ele>
        <time>2021-11-22T14:31:30.483Z</time>
      </trkpt>
      <trkpt lat="47.675702" lon="7.618939">
        <ele>285.445350</ele>
        <time>2021-11-22T14:31:37.894Z</time>
      </trkpt>
      <trkpt lat="47.675645" lon="7.618943">
        <ele>285.647121</ele>
        <time>2021-11-22T14:31:39.099Z</time>
      </trkpt>
      <trkpt lat="47.675365" lon="7.618960">
        <ele>286.637996</ele>
        <time>2021-11-22T14:31:47.807Z</time>
      </trkpt>
      <trkpt lat="47.674482" lon="7.618835">
        <ele>289.774338</ele>
        <time>2021-11-22T14:32:21.688Z</time>
      </trkpt>
      <trkpt lat="47.673661" lon="7.618510">
        <ele>291.852827</ele>
        <time>2021-11-22T14:32:51.992Z</time>
      </trkpt>
      <trkpt lat="47.673172" lon="7.618199">
        <ele>293.142859</ele>
        <time>2021-11-22T14:33:03.687Z</time>
      </trkpt>
      <trkpt lat="47.672709" lon="7.617849">
        <ele>293.859733</ele>
        <time>2021-11-22T14:33:10.233Z</time>
      </trkpt>
      <trkpt lat="47.671681" lon="7.616949">
        <ele>289.246441</ele>
        <time>2021-11-22T14:33:21.853Z</time>
      </trkpt>
      <trkpt lat="47.671272" lon="7.616434">
        <ele>287.170884</ele>
        <time>2021-11-22T14:33:26.834Z</time>
      </trkpt>
      <trkpt lat="47.670772" lon="7.615562">
        <ele>284.075109</ele>
        <time>2021-11-22T14:33:34.169Z</time>
      </trkpt>
      <trkpt lat="47.670361" lon="7.614463">
        <ele>280.677088</ele>
        <time>2021-11-22T14:33:42.537Z</time>
      </trkpt>
      <trkpt lat="47.669560" lon="7.612062">
        <ele>276.240375</ele>
        <time>2021-11-22T14:34:01.748Z</time>
      </trkpt>
      <trkpt lat="47.669317" lon="7.611278">
        <ele>275.604696</ele>
        <time>2021-11-22T14:34:08.458Z</time>
      </trkpt>
      <trkpt lat="47.668819" lon="7.609852">
        <ele>274.909851</ele>
        <time>2021-11-22T14:34:22.299Z</time>
      </trkpt>
      <trkpt lat="47.667874" lon="7.607725">
        <ele>276.287277</ele>
        <time>2021-11-22T14:34:53.657Z</time>
      </trkpt>
      <trkpt lat="47.667641" lon="7.606894">
        <ele>277.314908</ele>
        <time>2021-11-22T14:35:07.394Z</time>
      </trkpt>
      <trkpt lat="47.667444" lon="7.606073">
        <ele>278.880659</ele>
        <time>2021-11-22T14:35:22.150Z</time>
      </trkpt>
      <trkpt lat="47.667266" lon="7.605435">
        <ele>280.121296</ele>
        <time>2021-11-22T14:35:34.731Z</time>
      </trkpt>
      <trkpt lat="47.666992" lon="7.604644">
        <ele>281.687718</ele>
        <time>2021-11-22T14:35:51.326Z</time>
      </trkpt>
      <trkpt lat="47.666721" lon="7.603891">
        <ele>283.000921</ele>
        <time>2021-11-22T14:36:06.434Z</time>
      </trkpt>
      <trkpt lat="47.666538" lon="7.603454">
        <ele>283.792427</ele>
        <time>2021-11-22T14:36:15.124Z</time>
      </trkpt>
      <trkpt lat="47.666177" lon="7.602511">
        <ele>285.460837</ele>
        <time>2021-11-22T14:36:31.373Z</time>
      </trkpt>
      <trkpt lat="47.665996" lon="7.602123">
        <ele>285.772939</ele>
        <time>2021-11-22T14:36:37.426Z</time>
      </trkpt>
      <trkpt lat="47.665811" lon="7.601858">
        <ele>285.940429</ele>
        <time>2021-11-22T14:36:42.241Z</time>
      </trkpt>
      <trkpt lat="47.665456" lon="7.601447">
        <ele>286.233741</ele>
        <time>2021-11-22T14:36:49.785Z</time>
      </trkpt>
      <trkpt lat="47.665362" lon="7.601201">
        <ele>286.357855</ele>
        <time>2021-11-22T14:36:52.884Z</time>
      </trkpt>
      <trkpt lat="47.665304" lon="7.600692">
        <ele>286.584386</ele>
        <time>2021-11-22T14:36:58.490Z</time>
      </trkpt>
      <trkpt lat="47.665270" lon="7.600368">
        <ele>286.728278</ele>
        <time>2021-11-22T14:37:01.988Z</time>
      </trkpt>
      <trkpt lat="47.665149" lon="7.599645">
        <ele>286.826729</ele>
        <time>2021-11-22T14:37:10.026Z</time>
      </trkpt>
      <trkpt lat="47.665035" lon="7.599318">
        <ele>286.854314</ele>
        <time>2021-11-22T14:37:13.854Z</time>
      </trkpt>
      <trkpt lat="47.665014" lon="7.599266">
        <ele>286.858857</ele>
        <time>2021-11-22T14:37:14.518Z</time>
      </trkpt>
      <trkpt lat="47.664950" lon="7.599107">
        <ele>286.872734</ele>
        <time>2021-11-22T14:37:16.435Z</time>
      </trkpt>
      <trkpt lat="47.664852" lon="7.598867">
        <ele>286.893760</ele>
        <time>2021-11-22T14:37:19.247Z</time>
      </trkpt>
      <trkpt lat="47.664694" lon="7.598513">
        <ele>286.925576</ele>
        <time>2021-11-22T14:37:23.527Z</time>
      </trkpt>
      <trkpt lat="47.664490" lon="7.598065">
        <ele>286.966090</ele>
        <time>2021-11-22T14:37:28.928Z</time>
      </trkpt>
      <trkpt lat="47.664218" lon="7.597562">
        <ele>287.155472</ele>
        <time>2021-11-22T14:37:35.068Z</time>
      </trkpt>
      <trkpt lat="47.664002" lon="7.597109">
        <ele>287.366372</ele>
        <time>2021-11-22T14:37:41.152Z</time>
      </trkpt>
      <trkpt lat="47.663925" lon="7.596926">
        <ele>287.448362</ele>
        <time>2021-11-22T14:37:43.269Z</time>
      </trkpt>
      <trkpt lat="47.663895" lon="7.596853">
        <ele>287.480856</ele>
        <time>2021-11-22T14:37:44.423Z</time>
      </trkpt>
      <trkpt lat="47.663776" lon="7.596568">
        <ele>287.608273</ele>
        <time>2021-11-22T14:37:48.113Z</time>
      </trkpt>
      <trkpt lat="47.663749" lon="7.596509">
        <ele>287.635377</ele>
        <time>2021-11-22T14:37:48.785Z</time>
      </trkpt>
      <trkpt lat="47.663610" lon="7.596198">
        <ele>287.777203</ele>
        <time>2021-11-22T14:37:53.888Z</time>
      </trkpt>
      <trkpt lat="47.663508" lon="7.596095">
        <ele>287.846798</ele>
        <time>2021-11-22T14:37:55.936Z</time>
      </trkpt>
      <trkpt lat="47.663392" lon="7.596035">
        <ele>287.916102</ele>
        <time>2021-11-22T14:37:58.391Z</time>
      </trkpt>
      <trkpt lat="47.663183" lon="7.596018">
        <ele>288.141089</ele>
        <time>2021-11-22T14:38:02.365Z</time>
      </trkpt>
      <trkpt lat="47.663051" lon="7.596241">
        <ele>288.558139</ele>
        <time>2021-11-22T14:38:06.344Z</time>
      </trkpt>
      <trkpt lat="47.662494" lon="7.596915">
        <ele>290.056848</ele>
        <time>2021-11-22T14:38:22.049Z</time>
      </trkpt>
      <trkpt lat="47.662391" lon="7.596945">
        <ele>290.275775</ele>
        <time>2021-11-22T14:38:24.717Z</time>
      </trkpt>
      <trkpt lat="47.662279" lon="7.596890">
        <ele>290.521825</ele>
        <time>2021-11-22T14:38:27.197Z</time>
      </trkpt>
      <trkpt lat="47.662034" lon="7.596625">
        <ele>291.154052</ele>
        <time>2021-11-22T14:38:34.966Z</time>
      </trkpt>
      <trkpt lat="47.661744" lon="7.596364">
        <ele>291.927581</ele>
        <time>2021-11-22T14:38:44.508Z</time>
      </trkpt>
      <trkpt lat="47.661309" lon="7.596052">
        <ele>293.513981</ele>
        <time>2021-11-22T14:38:57.438Z</time>
      </trkpt>
      <trkpt lat="47.661262" lon="7.596014">
        <ele>293.689719</ele>
        <time>2021-11-22T14:38:58.840Z</time>
      </trkpt>
      <trkpt lat="47.660991" lon="7.595798">
        <ele>294.699755</ele>
        <time>2021-11-22T14:39:07.706Z</time>
      </trkpt>
      <trkpt lat="47.660758" lon="7.595554">
        <ele>295.636053</ele>
        <time>2021-11-22T14:39:15.367Z</time>
      </trkpt>
      <trkpt lat="47.660717" lon="7.595511">
        <ele>295.800891</ele>
        <time>2021-11-22T14:39:17.101Z</time>
      </trkpt>
      <trkpt lat="47.660395" lon="7.595045">
        <ele>297.277488</ele>
        <time>2021-11-22T14:39:30.229Z</time>
      </trkpt>
      <trkpt lat="47.659787" lon="7.594095">
        <ele>299.335159</ele>
        <time>2021-11-22T14:39:55.424Z</time>
      </trkpt>
      <trkpt lat="47.659499" lon="7.593673">
        <ele>300.221180</ele>
        <time>2021-11-22T14:40:05.597Z</time>
      </trkpt>
      <trkpt lat="47.659225" lon="7.593332">
        <ele>301.004050</ele>
        <time>2021-11-22T14:40:12.848Z</time>
      </trkpt>
      <trkpt lat="47.659150" lon="7.593251">
        <ele>301.207129</ele>
        <time>2021-11-22T14:40:14.320Z</time>
      </trkpt>
      <trkpt lat="47.658671" lon="7.592815">
        <ele>300.767204</ele>
        <time>2021-11-22T14:40:23.023Z</time>
      </trkpt>
      <trkpt lat="47.658366" lon="7.592608">
        <ele>300.052589</ele>
        <time>2021-11-22T14:40:27.016Z</time>
      </trkpt>
      <trkpt lat="47.658033" lon="7.592435">
        <ele>299.300807</ele>
        <time>2021-11-22T14:40:30.878Z</time>
      </trkpt>
      <trkpt lat="47.657870" lon="7.592361">
        <ele>298.937593</ele>
        <time>2021-11-22T14:40:32.568Z</time>
      </trkpt>
      <trkpt lat="47.657276" lon="7.592147">
        <ele>297.480605</ele>
        <time>2021-11-22T14:40:38.512Z</time>
      </trkpt>
      <trkpt lat="47.656541" lon="7.591957">
        <ele>293.895644</ele>
        <time>2021-11-22T14:40:45.580Z</time>
      </trkpt>
      <trkpt lat="47.656109" lon="7.591916">
        <ele>291.815559</ele>
        <time>2021-11-22T14:40:49.644Z</time>
      </trkpt>
      <trkpt lat="47.655420" lon="7.592126">
        <ele>288.605716</ele>
        <time>2021-11-22T14:40:56.265Z</time>
      </trkpt>
      <trkpt lat="47.654725" lon="7.592731">
        <ele>285.702650</ele>
        <time>2021-11-22T14:41:04.025Z</time>
      </trkpt>
      <trkpt lat="47.654668" lon="7.592780">
        <ele>285.465312</ele>
        <time>2021-11-22T14:41:04.706Z</time>
      </trkpt>
      <trkpt lat="47.654425" lon="7.592983">
        <ele>284.460597</ele>
        <time>2021-11-22T14:41:07.571Z</time>
      </trkpt>
      <trkpt lat="47.654122" lon="7.593177">
        <ele>283.271583</ele>
        <time>2021-11-22T14:41:11.035Z</time>
      </trkpt>
      <trkpt lat="47.653885" lon="7.593345">
        <ele>282.517274</ele>
        <time>2021-11-22T14:41:13.838Z</time>
      </trkpt>
      <trkpt lat="47.653698" lon="7.593524">
        <ele>282.213695</ele>
        <time>2021-11-22T14:41:16.248Z</time>
      </trkpt>
      <trkpt lat="47.653366" lon="7.594044">
        <ele>281.555220</ele>
        <time>2021-11-22T14:41:21.751Z</time>
      </trkpt>
      <trkpt lat="47.652964" lon="7.595022">
        <ele>280.502240</ele>
        <time>2021-11-22T14:41:31.334Z</time>
      </trkpt>
      <trkpt lat="47.652858" lon="7.595213">
        <ele>280.274793</ele>
        <time>2021-11-22T14:41:33.547Z</time>
      </trkpt>
      <trkpt lat="47.652780" lon="7.595322">
        <ele>280.114261</ele>
        <time>2021-11-22T14:41:34.940Z</time>
      </trkpt>
      <trkpt lat="47.652496" lon="7.595714">
        <ele>279.437804</ele>
        <time>2021-11-22T14:41:39.961Z</time>
      </trkpt>
      <trkpt lat="47.652432" lon="7.595819">
        <ele>279.271412</ele>
        <time>2021-11-22T14:41:41.137Z</time>
      </trkpt>
      <trkpt lat="47.652266" lon="7.596070">
        <ele>278.858087</ele>
        <time>2021-11-22T14:41:43.895Z</time>
      </trkpt>
      <trkpt lat="47.651722" lon="7.596788">
        <ele>277.588320</ele>
        <time>2021-11-22T14:41:51.908Z</time>
      </trkpt>
      <trkpt lat="47.651649" lon="7.596972">
        <ele>277.337395</ele>
        <time>2021-11-22T14:41:53.392Z</time>
      </trkpt>
      <trkpt lat="47.651568" lon="7.597062">
        <ele>277.160906</ele>
        <time>2021-11-22T14:41:54.442Z</time>
      </trkpt>
      <trkpt lat="47.651470" lon="7.597163">
        <ele>276.872476</ele>
        <time>2021-11-22T14:41:55.659Z</time>
      </trkpt>
      <trkpt lat="47.651193" lon="7.597519">
        <ele>275.662704</ele>
        <time>2021-11-22T14:41:59.375Z</time>
      </trkpt>
      <trkpt lat="47.650966" lon="7.597769">
        <ele>274.729426</ele>
        <time>2021-11-22T14:42:02.241Z</time>
      </trkpt>
      <trkpt lat="47.650798" lon="7.597914">
        <ele>274.087763</ele>
        <time>2021-11-22T14:42:04.179Z</time>
      </trkpt>
      <trkpt lat="47.650627" lon="7.598070">
        <ele>273.425040</ele>
        <time>2021-11-22T14:42:06.202Z</time>
      </trkpt>
      <trkpt lat="47.650348" lon="7.598318">
        <ele>272.351284</ele>
        <time>2021-11-22T14:42:09.392Z</time>
      </trkpt>
      <trkpt lat="47.650048" lon="7.598639">
        <ele>271.130207</ele>
        <time>2021-11-22T14:42:13.053Z</time>
      </trkpt>
      <trkpt lat="47.649402" lon="7.599592">
        <ele>268.793632</ele>
        <time>2021-11-22T14:42:22.358Z</time>
      </trkpt>
      <trkpt lat="47.649321" lon="7.599629">
        <ele>268.576759</ele>
        <time>2021-11-22T14:42:23.199Z</time>
      </trkpt>
      <trkpt lat="47.649322" lon="7.599734">
        <ele>268.395729</ele>
        <time>2021-11-22T14:42:23.975Z</time>
      </trkpt>
      <trkpt lat="47.649072" lon="7.600328">
        <ele>267.188297</ele>
        <time>2021-11-22T14:42:29.278Z</time>
      </trkpt>
      <trkpt lat="47.648274" lon="7.600622">
        <ele>265.848755</ele>
        <time>2021-11-22T14:42:38.640Z</time>
      </trkpt>
      <trkpt lat="47.648012" lon="7.600725">
        <ele>265.529424</ele>
        <time>2021-11-22T14:42:41.777Z</time>
      </trkpt>
      <trkpt lat="47.647878" lon="7.600773">
        <ele>265.367013</ele>
        <time>2021-11-22T14:42:43.396Z</time>
      </trkpt>
      <trkpt lat="47.647517" lon="7.600898">
        <ele>264.930263</ele>
        <time>2021-11-22T14:42:47.902Z</time>
      </trkpt>
      <trkpt lat="47.647362" lon="7.600959">
        <ele>264.741333</ele>
        <time>2021-11-22T14:42:49.876Z</time>
      </trkpt>
      <trkpt lat="47.646615" lon="7.601256">
        <ele>264.368839</ele>
        <time>2021-11-22T14:43:00.082Z</time>
      </trkpt>
      <trkpt lat="47.646542" lon="7.601292">
        <ele>264.366689</ele>
        <time>2021-11-22T14:43:01.117Z</time>
      </trkpt>
      <trkpt lat="47.646444" lon="7.601345">
        <ele>264.363775</ele>
        <time>2021-11-22T14:43:02.615Z</time>
      </trkpt>
      <trkpt lat="47.646348" lon="7.601386">
        <ele>264.360984</ele>
        <time>2021-11-22T14:43:04.027Z</time>
      </trkpt>
      <trkpt lat="47.646239" lon="7.601438">
        <ele>264.357785</ele>
        <time>2021-11-22T14:43:05.762Z</time>
      </trkpt>
      <trkpt lat="47.644863" lon="7.602241">
        <ele>264.672501</ele>
        <time>2021-11-22T14:43:29.756Z</time>
      </trkpt>
      <trkpt lat="47.644518" lon="7.602492">
        <ele>264.913321</ele>
        <time>2021-11-22T14:43:36.539Z</time>
      </trkpt>
      <trkpt lat="47.644463" lon="7.602535">
        <ele>264.952284</ele>
        <time>2021-11-22T14:43:37.630Z</time>
      </trkpt>
      <trkpt lat="47.644009" lon="7.602886">
        <ele>265.273133</ele>
        <time>2021-11-22T14:43:46.793Z</time>
      </trkpt>
      <trkpt lat="47.643665" lon="7.603141">
        <ele>265.502188</ele>
        <time>2021-11-22T14:43:53.625Z</time>
      </trkpt>
      <trkpt lat="47.643452" lon="7.603285">
        <ele>265.617073</ele>
        <time>2021-11-22T14:43:57.741Z</time>
      </trkpt>
      <trkpt lat="47.642943" lon="7.603584">
        <ele>265.885769</ele>
        <time>2021-11-22T14:44:07.218Z</time>
      </trkpt>
      <trkpt lat="47.642696" lon="7.603706">
        <ele>266.013545</ele>
        <time>2021-11-22T14:44:11.609Z</time>
      </trkpt>
      <trkpt lat="47.641529" lon="7.604190">
        <ele>266.351848</ele>
        <time>2021-11-22T14:44:30.741Z</time>
      </trkpt>
      <trkpt lat="47.641096" lon="7.604510">
        <ele>266.360728</ele>
        <time>2021-11-22T14:44:37.695Z</time>
      </trkpt>
      <trkpt lat="47.640934" lon="7.604667">
        <ele>266.364280</ele>
        <time>2021-11-22T14:44:40.660Z</time>
      </trkpt>
      <trkpt lat="47.640812" lon="7.604794">
        <ele>266.367015</ele>
        <time>2021-11-22T14:44:42.645Z</time>
      </trkpt>
      <trkpt lat="47.639408" lon="7.606663">
        <ele>266.699656</ele>
        <time>2021-11-22T14:45:10.320Z</time>
      </trkpt>
      <trkpt lat="47.639169" lon="7.606981">
        <ele>266.771232</ele>
        <time>2021-11-22T14:45:16.203Z</time>
      </trkpt>
      <trkpt lat="47.638964" lon="7.607254">
        <ele>267.106434</ele>
        <time>2021-11-22T14:45:21.555Z</time>
      </trkpt>
      <trkpt lat="47.638641" lon="7.607690">
        <ele>267.674178</ele>
        <time>2021-11-22T14:45:30.347Z</time>
      </trkpt>
      <trkpt lat="47.638391" lon="7.608019">
        <ele>268.108655</ele>
        <time>2021-11-22T14:45:37.385Z</time>
      </trkpt>
      <trkpt lat="47.638218" lon="7.608237">
        <ele>268.403762</ele>
        <time>2021-11-22T14:45:42.424Z</time>
      </trkpt>
      <trkpt lat="47.638005" lon="7.608471">
        <ele>268.748358</ele>
        <time>2021-11-22T14:45:47.908Z</time>
      </trkpt>
      <trkpt lat="47.637415" lon="7.609013">
        <ele>269.333281</ele>
        <time>2021-11-22T14:46:01.815Z</time>
      </trkpt>
      <trkpt lat="47.636957" lon="7.609339">
        <ele>269.602596</ele>
        <time>2021-11-22T14:46:11.429Z</time>
      </trkpt>
      <trkpt lat="47.636728" lon="7.609467">
        <ele>269.732337</ele>
        <time>2021-11-22T14:46:15.570Z</time>
      </trkpt>
      <trkpt lat="47.634806" lon="7.610511">
        <ele>269.641655</ele>
        <time>2021-11-22T14:46:43.441Z</time>
      </trkpt>
      <trkpt lat="47.634379" lon="7.610795">
        <ele>269.506362</ele>
        <time>2021-11-22T14:46:50.276Z</time>
      </trkpt>
      <trkpt lat="47.634273" lon="7.610887">
        <ele>269.478330</ele>
        <time>2021-11-22T14:46:51.969Z</time>
      </trkpt>
      <trkpt lat="47.634058" lon="7.611101">
        <ele>269.419233</ele>
        <time>2021-11-22T14:46:55.366Z</time>
      </trkpt>
      <trkpt lat="47.633748" lon="7.611470">
        <ele>269.328515</ele>
        <time>2021-11-22T14:47:00.698Z</time>
      </trkpt>
      <trkpt lat="47.633603" lon="7.611677">
        <ele>269.282585</ele>
        <time>2021-11-22T14:47:03.378Z</time>
      </trkpt>
      <trkpt lat="47.633526" lon="7.611754">
        <ele>269.261390</ele>
        <time>2021-11-22T14:47:04.763Z</time>
      </trkpt>
      <trkpt lat="47.633397" lon="7.611916">
        <ele>269.222813</ele>
        <time>2021-11-22T14:47:07.182Z</time>
      </trkpt>
      <trkpt lat="47.633232" lon="7.612127">
        <ele>269.173091</ele>
        <time>2021-11-22T14:47:10.320Z</time>
      </trkpt>
      <trkpt lat="47.633155" lon="7.612262">
        <ele>269.145884</ele>
        <time>2021-11-22T14:47:12.145Z</time>
      </trkpt>
      <trkpt lat="47.633048" lon="7.612433">
        <ele>269.112588</ele>
        <time>2021-11-22T14:47:14.447Z</time>
      </trkpt>
      <trkpt lat="47.632972" lon="7.612614">
        <ele>269.098642</ele>
        <time>2021-11-22T14:47:16.582Z</time>
      </trkpt>
      <trkpt lat="47.632938" lon="7.612693">
        <ele>269.092512</ele>
        <time>2021-11-22T14:47:17.591Z</time>
      </trkpt>
      <trkpt lat="47.632842" lon="7.613002">
        <ele>269.070262</ele>
        <time>2021-11-22T14:47:21.158Z</time>
      </trkpt>
      <trkpt lat="47.632837" lon="7.613024">
        <ele>269.068743</ele>
        <time>2021-11-22T14:47:21.404Z</time>
      </trkpt>
      <trkpt lat="47.632792" lon="7.613223">
        <ele>269.055017</ele>
        <time>2021-11-22T14:47:23.434Z</time>
      </trkpt>
      <trkpt lat="47.632717" lon="7.613553">
        <ele>269.032243</ele>
        <time>2021-11-22T14:47:26.735Z</time>
      </trkpt>
      <trkpt lat="47.632582" lon="7.614157">
        <ele>268.990629</ele>
        <time>2021-11-22T14:47:32.477Z</time>
      </trkpt>
      <trkpt lat="47.632560" lon="7.614255">
        <ele>268.983874</ele>
        <time>2021-11-22T14:47:33.443Z</time>
      </trkpt>
      <trkpt lat="47.632429" lon="7.614867">
        <ele>268.941883</ele>
        <time>2021-11-22T14:47:39.806Z</time>
      </trkpt>
      <trkpt lat="47.632363" lon="7.615130">
        <ele>268.986298</ele>
        <time>2021-11-22T14:47:42.817Z</time>
      </trkpt>
      <trkpt lat="47.632296" lon="7.615321">
        <ele>269.025981</ele>
        <time>2021-11-22T14:47:45.016Z</time>
      </trkpt>
      <trkpt lat="47.632243" lon="7.615459">
        <ele>269.055254</ele>
        <time>2021-11-22T14:47:46.673Z</time>
      </trkpt>
      <trkpt lat="47.632110" lon="7.615712">
        <ele>269.114389</ele>
        <time>2021-11-22T14:47:49.992Z</time>
      </trkpt>
      <trkpt lat="47.632016" lon="7.615844">
        <ele>269.149781</ele>
        <time>2021-11-22T14:47:51.977Z</time>
      </trkpt>
      <trkpt lat="47.631609" lon="7.616292">
        <ele>269.288366</ele>
        <time>2021-11-22T14:47:59.731Z</time>
      </trkpt>
      <trkpt lat="47.630957" lon="7.617005">
        <ele>269.952951</ele>
        <time>2021-11-22T14:48:13.047Z</time>
      </trkpt>
      <trkpt lat="47.630701" lon="7.617331">
        <ele>270.569254</ele>
        <time>2021-11-22T14:48:20.008Z</time>
      </trkpt>
      <trkpt lat="47.630400" lon="7.617763">
        <ele>271.334291</ele>
        <time>2021-11-22T14:48:29.898Z</time>
      </trkpt>
      <trkpt lat="47.630129" lon="7.618190">
        <ele>272.056441</ele>
        <time>2021-11-22T14:48:39.693Z</time>
      </trkpt>
      <trkpt lat="47.630096" lon="7.618244">
        <ele>272.146190</ele>
        <time>2021-11-22T14:48:40.897Z</time>
      </trkpt>
      <trkpt lat="47.630010" lon="7.618382">
        <ele>272.377606</ele>
        <time>2021-11-22T14:48:44.005Z</time>
      </trkpt>
      <trkpt lat="47.629876" lon="7.618589">
        <ele>272.735147</ele>
        <time>2021-11-22T14:48:48.962Z</time>
      </trkpt>
      <trkpt lat="47.629669" lon="7.618908">
        <ele>273.452605</ele>
        <time>2021-11-22T14:48:56.453Z</time>
      </trkpt>
      <trkpt lat="47.629418" lon="7.619291">
        <ele>274.318137</ele>
        <time>2021-11-22T14:49:05.602Z</time>
      </trkpt>
      <trkpt lat="47.629380" lon="7.619346">
        <ele>274.445752</ele>
        <time>2021-11-22T14:49:07.089Z</time>
      </trkpt>
      <trkpt lat="47.628982" lon="7.618779">
        <ele>275.772158</ele>
        <time>2021-11-22T14:49:20.834Z</time>
      </trkpt>
      <trkpt lat="47.628827" lon="7.618557">
        <ele>276.290055</ele>
        <time>2021-11-22T14:49:26.279Z</time>
      </trkpt>
      <trkpt lat="47.628470" lon="7.618044">
        <ele>277.345537</ele>
        <time>2021-11-22T14:49:37.501Z</time>
      </trkpt>
      <trkpt lat="47.628322" lon="7.618006">
        <ele>277.593103</ele>
        <time>2021-11-22T14:49:40.656Z</time>
      </trkpt>
      <trkpt lat="47.628283" lon="7.617949">
        <ele>277.683330</ele>
        <time>2021-11-22T14:49:41.948Z</time>
      </trkpt>
      <trkpt lat="47.628250" lon="7.617896">
        <ele>277.763484</ele>
        <time>2021-11-22T14:49:42.836Z</time>
      </trkpt>
      <trkpt lat="47.628259" lon="7.617740">
        <ele>277.937404</ele>
        <time>2021-11-22T14:49:44.706Z</time>
      </trkpt>
      <trkpt lat="47.627070" lon="7.616020">
        <ele>280.480311</ele>
        <time>2021-11-22T14:50:19.992Z</time>
      </trkpt>
      <trkpt lat="47.625791" lon="7.614156">
        <ele>281.563519</ele>
        <time>2021-11-22T14:50:54.645Z</time>
      </trkpt>
      <trkpt lat="47.625517" lon="7.613705">
        <ele>281.003945</ele>
        <time>2021-11-22T14:50:59.741Z</time>
      </trkpt>
      <trkpt lat="47.625286" lon="7.613484">
        <ele>280.628108</ele>
        <time>2021-11-22T14:51:03.198Z</time>
      </trkpt>
      <trkpt lat="47.625060" lon="7.613525">
        <ele>280.316777</ele>
        <time>2021-11-22T14:51:05.523Z</time>
      </trkpt>
      <trkpt lat="47.625033" lon="7.613568">
        <ele>280.262616</ele>
        <time>2021-11-22T14:51:05.892Z</time>
      </trkpt>
      <trkpt lat="47.624986" lon="7.613694">
        <ele>280.129897</ele>
        <time>2021-11-22T14:51:08.051Z</time>
      </trkpt>
      <trkpt lat="47.624971" lon="7.613711">
        <ele>280.104087</ele>
        <time>2021-11-22T14:51:08.213Z</time>
      </trkpt>
      <trkpt lat="47.624531" lon="7.613606">
        <ele>279.215553</ele>
        <time>2021-11-22T14:51:12.671Z</time>
      </trkpt>
      <trkpt lat="47.623813" lon="7.613762">
        <ele>276.441632</ele>
        <time>2021-11-22T14:51:19.731Z</time>
      </trkpt>
      <trkpt lat="47.622343" lon="7.613958">
        <ele>271.730610</ele>
        <time>2021-11-22T14:51:34.210Z</time>
      </trkpt>
      <trkpt lat="47.622266" lon="7.613895">
        <ele>271.552917</ele>
        <time>2021-11-22T14:51:35.051Z</time>
      </trkpt>
      <trkpt lat="47.622217" lon="7.613878">
        <ele>271.451226</ele>
        <time>2021-11-22T14:51:35.585Z</time>
      </trkpt>
      <trkpt lat="47.622042" lon="7.614030">
        <ele>271.041442</ele>
        <time>2021-11-22T14:51:37.988Z</time>
      </trkpt>
      <trkpt lat="47.622008" lon="7.614026">
        <ele>270.972520</ele>
        <time>2021-11-22T14:51:38.329Z</time>
      </trkpt>
      <trkpt lat="47.621935" lon="7.614021">
        <ele>270.824844</ele>
        <time>2021-11-22T14:51:39.060Z</time>
      </trkpt>
      <trkpt lat="47.621890" lon="7.614025">
        <ele>270.733745</ele>
        <time>2021-11-22T14:51:39.565Z</time>
      </trkpt>
      <trkpt lat="47.621881" lon="7.614051">
        <ele>270.693935</ele>
        <time>2021-11-22T14:51:39.811Z</time>
      </trkpt>
      <trkpt lat="47.621893" lon="7.614337">
        <ele>270.303632</ele>
        <time>2021-11-22T14:51:42.279Z</time>
      </trkpt>
      <trkpt lat="47.621860" lon="7.614384">
        <ele>270.211192</ele>
        <time>2021-11-22T14:51:42.783Z</time>
      </trkpt>
      <trkpt lat="47.621271" lon="7.615693">
        <ele>269.588559</ele>
        <time>2021-11-22T14:51:57.323Z</time>
      </trkpt>
      <trkpt lat="47.620829" lon="7.616001">
        <ele>270.001353</ele>
        <time>2021-11-22T14:52:07.148Z</time>
      </trkpt>
      <trkpt lat="47.620672" lon="7.616094">
        <ele>270.144256</ele>
        <time>2021-11-22T14:52:10.385Z</time>
      </trkpt>
      <trkpt lat="47.620294" lon="7.616298">
        <ele>270.484273</ele>
        <time>2021-11-22T14:52:18.445Z</time>
      </trkpt>
      <trkpt lat="47.619999" lon="7.616450">
        <ele>270.789048</ele>
        <time>2021-11-22T14:52:25.246Z</time>
      </trkpt>
      <trkpt lat="47.619854" lon="7.616526">
        <ele>270.979383</ele>
        <time>2021-11-22T14:52:28.711Z</time>
      </trkpt>
      <trkpt lat="47.619286" lon="7.616863">
        <ele>271.736523</ele>
        <time>2021-11-22T14:52:41.864Z</time>
      </trkpt>
      <trkpt lat="47.619056" lon="7.617081">
        <ele>272.074329</ele>
        <time>2021-11-22T14:52:46.974Z</time>
      </trkpt>
      <trkpt lat="47.618911" lon="7.617202">
        <ele>272.280236</ele>
        <time>2021-11-22T14:52:50.357Z</time>
      </trkpt>
      <trkpt lat="47.618654" lon="7.617344">
        <ele>272.619666</ele>
        <time>2021-11-22T14:52:55.253Z</time>
      </trkpt>
      <trkpt lat="47.618238" lon="7.617454">
        <ele>272.964339</ele>
        <time>2021-11-22T14:53:05.212Z</time>
      </trkpt>
      <trkpt lat="47.616954" lon="7.617830">
        <ele>273.456471</ele>
        <time>2021-11-22T14:53:33.617Z</time>
      </trkpt>
      <trkpt lat="47.616623" lon="7.617938">
        <ele>273.602070</ele>
        <time>2021-11-22T14:53:40.010Z</time>
      </trkpt>
      <trkpt lat="47.616528" lon="7.617996">
        <ele>273.674020</ele>
        <time>2021-11-22T14:53:42.068Z</time>
      </trkpt>
      <trkpt lat="47.616392" lon="7.618080">
        <ele>273.777196</ele>
        <time>2021-11-22T14:53:44.989Z</time>
      </trkpt>
      <trkpt lat="47.616352" lon="7.618112">
        <ele>273.809025</ele>
        <time>2021-11-22T14:53:45.906Z</time>
      </trkpt>
      <trkpt lat="47.615857" lon="7.618503">
        <ele>274.201792</ele>
        <time>2021-11-22T14:53:58.792Z</time>
      </trkpt>
      <trkpt lat="47.615417" lon="7.618824">
        <ele>274.545205</ele>
        <time>2021-11-22T14:54:08.394Z</time>
      </trkpt>
      <trkpt lat="47.615170" lon="7.619210">
        <ele>274.796477</ele>
        <time>2021-11-22T14:54:15.447Z</time>
      </trkpt>
      <trkpt lat="47.615076" lon="7.619311">
        <ele>274.848929</ele>
        <time>2021-11-22T14:54:17.560Z</time>
      </trkpt>
      <trkpt lat="47.614973" lon="7.619421">
        <ele>274.891374</ele>
        <time>2021-11-22T14:54:20.115Z</time>
      </trkpt>
      <trkpt lat="47.614948" lon="7.619440">
        <ele>274.900769</ele>
        <time>2021-11-22T14:54:20.596Z</time>
      </trkpt>
      <trkpt lat="47.614867" lon="7.619502">
        <ele>274.931252</ele>
        <time>2021-11-22T14:54:22.212Z</time>
      </trkpt>
      <trkpt lat="47.614634" lon="7.619625">
        <ele>275.013962</ele>
        <time>2021-11-22T14:54:26.616Z</time>
      </trkpt>
      <trkpt lat="47.614082" lon="7.619775">
        <ele>275.201643</ele>
        <time>2021-11-22T14:54:35.474Z</time>
      </trkpt>
      <trkpt lat="47.613739" lon="7.619888">
        <ele>275.319150</ele>
        <time>2021-11-22T14:54:40.990Z</time>
      </trkpt>
      <trkpt lat="47.613306" lon="7.620006">
        <ele>275.371433</ele>
        <time>2021-11-22T14:54:47.215Z</time>
      </trkpt>
      <trkpt lat="47.613071" lon="7.620138">
        <ele>275.266735</ele>
        <time>2021-11-22T14:54:50.481Z</time>
      </trkpt>
      <trkpt lat="47.612876" lon="7.620285">
        <ele>275.175597</ele>
        <time>2021-11-22T14:54:53.303Z</time>
      </trkpt>
      <trkpt lat="47.611976" lon="7.620755">
        <ele>274.778048</ele>
        <time>2021-11-22T14:55:05.731Z</time>
      </trkpt>
      <trkpt lat="47.611143" lon="7.621251">
        <ele>274.536276</ele>
        <time>2021-11-22T14:55:18.306Z</time>
      </trkpt>
      <trkpt lat="47.610991" lon="7.621328">
        <ele>274.502048</ele>
        <time>2021-11-22T14:55:20.564Z</time>
      </trkpt>
      <trkpt lat="47.610833" lon="7.621400">
        <ele>274.466826</ele>
        <time>2021-11-22T14:55:23.058Z</time>
      </trkpt>
      <trkpt lat="47.610272" lon="7.621626">
        <ele>274.342948</ele>
        <time>2021-11-22T14:55:31.407Z</time>
      </trkpt>
      <trkpt lat="47.610099" lon="7.621643">
        <ele>274.306002</ele>
        <time>2021-11-22T14:55:33.920Z</time>
      </trkpt>
      <trkpt lat="47.610016" lon="7.621629">
        <ele>274.288080</ele>
        <time>2021-11-22T14:55:35.061Z</time>
      </trkpt>
      <trkpt lat="47.609880" lon="7.621619">
        <ele>274.257966</ele>
        <time>2021-11-22T14:55:36.886Z</time>
      </trkpt>
      <trkpt lat="47.609332" lon="7.621638">
        <ele>274.136744</ele>
        <time>2021-11-22T14:55:44.390Z</time>
      </trkpt>
      <trkpt lat="47.608424" lon="7.622293">
        <ele>273.913453</ele>
        <time>2021-11-22T14:55:57.954Z</time>
      </trkpt>
      <trkpt lat="47.606775" lon="7.623330">
        <ele>274.641221</ele>
        <time>2021-11-22T14:56:28.001Z</time>
      </trkpt>
      <trkpt lat="47.606585" lon="7.623488">
        <ele>274.754601</ele>
        <time>2021-11-22T14:56:31.957Z</time>
      </trkpt>
      <trkpt lat="47.606418" lon="7.623610">
        <ele>274.863658</ele>
        <time>2021-11-22T14:56:35.571Z</time>
      </trkpt>
      <trkpt lat="47.605691" lon="7.623980">
        <ele>275.313930</ele>
        <time>2021-11-22T14:56:49.861Z</time>
      </trkpt>
      <trkpt lat="47.604272" lon="7.624287">
        <ele>275.574715</ele>
        <time>2021-11-22T14:57:12.177Z</time>
      </trkpt>
      <trkpt lat="47.603748" lon="7.624409">
        <ele>275.453172</ele>
        <time>2021-11-22T14:57:19.087Z</time>
      </trkpt>
      <trkpt lat="47.603442" lon="7.624462">
        <ele>275.382576</ele>
        <time>2021-11-22T14:57:23.165Z</time>
      </trkpt>
      <trkpt lat="47.603174" lon="7.624532">
        <ele>275.330805</ele>
        <time>2021-11-22T14:57:26.815Z</time>
      </trkpt>
      <trkpt lat="47.603035" lon="7.624589">
        <ele>275.364709</ele>
        <time>2021-11-22T14:57:28.640Z</time>
      </trkpt>
      <trkpt lat="47.602801" lon="7.624730">
        <ele>275.424088</ele>
        <time>2021-11-22T14:57:32.128Z</time>
      </trkpt>
      <trkpt lat="47.602393" lon="7.625100">
        <ele>275.536517</ele>
        <time>2021-11-22T14:57:38.808Z</time>
      </trkpt>
      <trkpt lat="47.601909" lon="7.625561">
        <ele>275.671747</ele>
        <time>2021-11-22T14:57:48.353Z</time>
      </trkpt>
      <trkpt lat="47.601485" lon="7.625959">
        <ele>275.998490</ele>
        <time>2021-11-22T14:57:57.816Z</time>
      </trkpt>
      <trkpt lat="47.601049" lon="7.626371">
        <ele>276.732626</ele>
        <time>2021-11-22T14:58:08.556Z</time>
      </trkpt>
      <trkpt lat="47.600619" lon="7.626774">
        <ele>277.454951</ele>
        <time>2021-11-22T14:58:19.451Z</time>
      </trkpt>
      <trkpt lat="47.600407" lon="7.626982">
        <ele>277.815917</ele>
        <time>2021-11-22T14:58:24.991Z</time>
      </trkpt>
      <trkpt lat="47.600166" lon="7.627247">
        <ele>278.241954</ele>
        <time>2021-11-22T14:58:31.392Z</time>
      </trkpt>
      <trkpt lat="47.599867" lon="7.627559">
        <ele>278.605072</ele>
        <time>2021-11-22T14:58:38.876Z</time>
      </trkpt>
      <trkpt lat="47.599437" lon="7.627995">
        <ele>279.093124</ele>
        <time>2021-11-22T14:58:49.067Z</time>
      </trkpt>
      <trkpt lat="47.599159" lon="7.628310">
        <ele>279.420921</ele>
        <time>2021-11-22T14:58:55.359Z</time>
      </trkpt>
      <trkpt lat="47.598981" lon="7.628529">
        <ele>279.637620</ele>
        <time>2021-11-22T14:58:59.542Z</time>
      </trkpt>
      <trkpt lat="47.598396" lon="7.629284">
        <ele>280.021805</ele>
        <time>2021-11-22T14:59:12.121Z</time>
      </trkpt>
      <trkpt lat="47.598092" lon="7.629668">
        <ele>280.055733</ele>
        <time>2021-11-22T14:59:18.034Z</time>
      </trkpt>
      <trkpt lat="47.597745" lon="7.630065">
        <ele>280.092969</ele>
        <time>2021-11-22T14:59:24.265Z</time>
      </trkpt>
      <trkpt lat="47.597572" lon="7.630229">
        <ele>280.110414</ele>
        <time>2021-11-22T14:59:27.214Z</time>
      </trkpt>
      <trkpt lat="47.597237" lon="7.630571">
        <ele>280.155859</ele>
        <time>2021-11-22T14:59:33.120Z</time>
      </trkpt>
      <trkpt lat="47.597078" lon="7.630698">
        <ele>280.208377</ele>
        <time>2021-11-22T14:59:35.897Z</time>
      </trkpt>
      <trkpt lat="47.596934" lon="7.630802">
        <ele>280.254954</ele>
        <time>2021-11-22T14:59:38.370Z</time>
      </trkpt>
      <trkpt lat="47.596531" lon="7.631005">
        <ele>280.378722</ele>
        <time>2021-11-22T14:59:45.341Z</time>
      </trkpt>
      <trkpt lat="47.595923" lon="7.631253">
        <ele>280.562094</ele>
        <time>2021-11-22T14:59:55.584Z</time>
      </trkpt>
      <trkpt lat="47.595894" lon="7.631265">
        <ele>280.570849</ele>
        <time>2021-11-22T14:59:56.142Z</time>
      </trkpt>
      <trkpt lat="47.595873" lon="7.631280">
        <ele>280.577627</ele>
        <time>2021-11-22T14:59:56.532Z</time>
      </trkpt>
      <trkpt lat="47.595252" lon="7.631748">
        <ele>280.845712</ele>
        <time>2021-11-22T15:00:08.016Z</time>
      </trkpt>
      <trkpt lat="47.595202" lon="7.631819">
        <ele>280.877148</ele>
        <time>2021-11-22T15:00:09.168Z</time>
      </trkpt>
      <trkpt lat="47.595013" lon="7.631985">
        <ele>280.976894</ele>
        <time>2021-11-22T15:00:12.859Z</time>
      </trkpt>
      <trkpt lat="47.594815" lon="7.632123">
        <ele>281.076238</ele>
        <time>2021-11-22T15:00:16.642Z</time>
      </trkpt>
      <trkpt lat="47.594788" lon="7.632141">
        <ele>281.089680</ele>
        <time>2021-11-22T15:00:17.130Z</time>
      </trkpt>
      <trkpt lat="47.594743" lon="7.632152">
        <ele>281.110390</ele>
        <time>2021-11-22T15:00:17.962Z</time>
      </trkpt>
      <trkpt lat="47.594672" lon="7.632150">
        <ele>281.142636</ele>
        <time>2021-11-22T15:00:19.203Z</time>
      </trkpt>
      <trkpt lat="47.594605" lon="7.632126">
        <ele>281.173934</ele>
        <time>2021-11-22T15:00:20.477Z</time>
      </trkpt>
      <trkpt lat="47.594484" lon="7.632038">
        <ele>281.235131</ele>
        <time>2021-11-22T15:00:22.783Z</time>
      </trkpt>
      <trkpt lat="47.594327" lon="7.631926">
        <ele>281.314243</ele>
        <time>2021-11-22T15:00:25.780Z</time>
      </trkpt>
      <trkpt lat="47.594232" lon="7.631854">
        <ele>281.362689</ele>
        <time>2021-11-22T15:00:27.587Z</time>
      </trkpt>
      <trkpt lat="47.594129" lon="7.631776">
        <ele>281.415205</ele>
        <time>2021-11-22T15:00:29.416Z</time>
      </trkpt>
      <trkpt lat="47.594067" lon="7.631905">
        <ele>281.463714</ele>
        <time>2021-11-22T15:00:31.180Z</time>
      </trkpt>
      <trkpt lat="47.593945" lon="7.632160">
        <ele>281.496700</ele>
        <time>2021-11-22T15:00:34.415Z</time>
      </trkpt>
      <trkpt lat="47.593668" lon="7.632732">
        <ele>281.541488</ele>
        <time>2021-11-22T15:00:41.609Z</time>
      </trkpt>
      <trkpt lat="47.593569" lon="7.632922">
        <ele>281.556759</ele>
        <time>2021-11-22T15:00:44.015Z</time>
      </trkpt>
      <trkpt lat="47.593357" lon="7.633366">
        <ele>281.591360</ele>
        <time>2021-11-22T15:00:49.334Z</time>
      </trkpt>
      <trkpt lat="47.593264" lon="7.633642">
        <ele>281.610984</ele>
        <time>2021-11-22T15:00:52.431Z</time>
      </trkpt>
      <trkpt lat="47.593191" lon="7.633915">
        <ele>281.629662</ele>
        <time>2021-11-22T15:00:55.390Z</time>
      </trkpt>
      <trkpt lat="47.593146" lon="7.634554">
        <ele>281.626166</ele>
        <time>2021-11-22T15:01:02.054Z</time>
      </trkpt>
      <trkpt lat="47.593040" lon="7.635203">
        <ele>281.577378</ele>
        <time>2021-11-22T15:01:08.848Z</time>
      </trkpt>
      <trkpt lat="47.593020" lon="7.635250">
        <ele>281.573318</ele>
        <time>2021-11-22T15:01:09.515Z</time>
      </trkpt>
      <trkpt lat="47.592984" lon="7.635276">
        <ele>281.568980</ele>
        <time>2021-11-22T15:01:10.046Z</time>
      </trkpt>
      <trkpt lat="47.592438" lon="7.635358">
        <ele>281.509525</ele>
        <time>2021-11-22T15:01:18.218Z</time>
      </trkpt>
      <trkpt lat="47.592405" lon="7.635387">
        <ele>281.505369</ele>
        <time>2021-11-22T15:01:18.673Z</time>
      </trkpt>
      <trkpt lat="47.592363" lon="7.635505">
        <ele>281.495621</ele>
        <time>2021-11-22T15:01:20.174Z</time>
      </trkpt>
      <trkpt lat="47.592151" lon="7.636264">
        <ele>281.167623</ele>
        <time>2021-11-22T15:01:27.906Z</time>
      </trkpt>
      <trkpt lat="47.592004" lon="7.636793">
        <ele>280.549062</ele>
        <time>2021-11-22T15:01:32.507Z</time>
      </trkpt>
      <trkpt lat="47.591939" lon="7.636981">
        <ele>280.320656</ele>
        <time>2021-11-22T15:01:34.151Z</time>
      </trkpt>
      <trkpt lat="47.591826" lon="7.637265">
        <ele>279.964162</ele>
        <time>2021-11-22T15:01:36.787Z</time>
      </trkpt>
      <trkpt lat="47.591793" lon="7.637341">
        <ele>279.866439</ele>
        <time>2021-11-22T15:01:37.385Z</time>
      </trkpt>
      <trkpt lat="47.591581" lon="7.637948">
        <ele>279.127412</ele>
        <time>2021-11-22T15:01:42.420Z</time>
      </trkpt>
      <trkpt lat="47.591568" lon="7.637986">
        <ele>279.081346</ele>
        <time>2021-11-22T15:01:42.747Z</time>
      </trkpt>
      <trkpt lat="47.591560" lon="7.638083">
        <ele>278.975695</ele>
        <time>2021-11-22T15:01:43.464Z</time>
      </trkpt>
      <trkpt lat="47.591561" lon="7.638177">
        <ele>278.874055</ele>
        <time>2021-11-22T15:01:44.175Z</time>
      </trkpt>
      <trkpt lat="47.591582" lon="7.638302">
        <ele>278.734784</ele>
        <time>2021-11-22T15:01:45.011Z</time>
      </trkpt>
      <trkpt lat="47.591888" lon="7.639181">
        <ele>277.115665</ele>
        <time>2021-11-22T15:01:52.195Z</time>
      </trkpt>
      <trkpt lat="47.592081" lon="7.639698">
        <ele>276.089350</ele>
        <time>2021-11-22T15:01:56.297Z</time>
      </trkpt>
      <trkpt lat="47.592111" lon="7.639788">
        <ele>275.914986</ele>
        <time>2021-11-22T15:01:57.020Z</time>
      </trkpt>
      <trkpt lat="47.592123" lon="7.639880">
        <ele>275.752240</ele>
        <time>2021-11-22T15:01:57.672Z</time>
      </trkpt>
      <trkpt lat="47.592162" lon="7.640337">
        <ele>274.952192</ele>
        <time>2021-11-22T15:02:00.858Z</time>
      </trkpt>
      <trkpt lat="47.592180" lon="7.640409">
        <ele>274.818826</ele>
        <time>2021-11-22T15:02:01.386Z</time>
      </trkpt>
      <trkpt lat="47.592197" lon="7.640454">
        <ele>274.729243</ele>
        <time>2021-11-22T15:02:01.777Z</time>
      </trkpt>
      <trkpt lat="47.592211" lon="7.640492">
        <ele>274.654039</ele>
        <time>2021-11-22T15:02:02.108Z</time>
      </trkpt>
      <trkpt lat="47.592231" lon="7.640536">
        <ele>274.561883</ele>
        <time>2021-11-22T15:02:02.515Z</time>
      </trkpt>
      <trkpt lat="47.592272" lon="7.640612">
        <ele>274.392850</ele>
        <time>2021-11-22T15:02:03.308Z</time>
      </trkpt>
      <trkpt lat="47.592273" lon="7.640617">
        <ele>274.383793</ele>
        <time>2021-11-22T15:02:03.349Z</time>
      </trkpt>
      <trkpt lat="47.592322" lon="7.640775">
        <ele>274.081754</ele>
        <time>2021-11-22T15:02:04.536Z</time>
      </trkpt>
      <trkpt lat="47.592339" lon="7.640861">
        <ele>273.930128</ele>
        <time>2021-11-22T15:02:05.176Z</time>
      </trkpt>
      <trkpt lat="47.592341" lon="7.640976">
        <ele>273.789979</ele>
        <time>2021-11-22T15:02:05.992Z</time>
      </trkpt>
      <trkpt lat="47.592311" lon="7.641437">
        <ele>273.225741</ele>
        <time>2021-11-22T15:02:09.264Z</time>
      </trkpt>
      <trkpt lat="47.592291" lon="7.641581">
        <ele>273.046626</ele>
        <time>2021-11-22T15:02:10.309Z</time>
      </trkpt>
      <trkpt lat="47.592277" lon="7.641676">
        <ele>272.928158</ele>
        <time>2021-11-22T15:02:11.142Z</time>
      </trkpt>
      <trkpt lat="47.592236" lon="7.641777">
        <ele>272.784540</ele>
        <time>2021-11-22T15:02:11.967Z</time>
      </trkpt>
      <trkpt lat="47.592141" lon="7.642236">
        <ele>272.199605</ele>
        <time>2021-11-22T15:02:15.684Z</time>
      </trkpt>
      <trkpt lat="47.592138" lon="7.642302">
        <ele>272.119015</ele>
        <time>2021-11-22T15:02:16.138Z</time>
      </trkpt>
      <trkpt lat="47.592144" lon="7.642395">
        <ele>272.005197</ele>
        <time>2021-11-22T15:02:16.900Z</time>
      </trkpt>
      <trkpt lat="47.592147" lon="7.642526">
        <ele>271.845509</ele>
        <time>2021-11-22T15:02:17.867Z</time>
      </trkpt>
      <trkpt lat="47.592139" lon="7.642591">
        <ele>271.765012</ele>
        <time>2021-11-22T15:02:18.387Z</time>
      </trkpt>
      <trkpt lat="47.592109" lon="7.642817">
        <ele>271.484396</ele>
        <time>2021-11-22T15:02:20.273Z</time>
      </trkpt>
      <trkpt lat="47.592099" lon="7.642873">
        <ele>271.413821</ele>
        <time>2021-11-22T15:02:20.747Z</time>
      </trkpt>
      <trkpt lat="47.592096" lon="7.642889">
        <ele>271.393589</ele>
        <time>2021-11-22T15:02:20.903Z</time>
      </trkpt>
      <trkpt lat="47.592075" lon="7.643001">
        <ele>271.251965</ele>
        <time>2021-11-22T15:02:21.839Z</time>
      </trkpt>
      <trkpt lat="47.592059" lon="7.643113">
        <ele>271.112489</ele>
        <time>2021-11-22T15:02:22.678Z</time>
      </trkpt>
      <trkpt lat="47.592040" lon="7.643345">
        <ele>270.827769</ele>
        <time>2021-11-22T15:02:24.577Z</time>
      </trkpt>
      <trkpt lat="47.592040" lon="7.643441">
        <ele>270.710813</ele>
        <time>2021-11-22T15:02:25.328Z</time>
      </trkpt>
      <trkpt lat="47.592051" lon="7.643610">
        <ele>270.624868</ele>
        <time>2021-11-22T15:02:26.602Z</time>
      </trkpt>
      <trkpt lat="47.592160" lon="7.644024">
        <ele>270.434575</ele>
        <time>2021-11-22T15:02:30.163Z</time>
      </trkpt>
      <trkpt lat="47.592590" lon="7.645087">
        <ele>269.903831</ele>
        <time>2021-11-22T15:02:40.810Z</time>
      </trkpt>
      <trkpt lat="47.592604" lon="7.645155">
        <ele>269.873388</ele>
        <time>2021-11-22T15:02:41.840Z</time>
      </trkpt>
      <trkpt lat="47.592612" lon="7.645242">
        <ele>269.835793</ele>
        <time>2021-11-22T15:02:42.659Z</time>
      </trkpt>
      <trkpt lat="47.592615" lon="7.645321">
        <ele>269.801914</ele>
        <time>2021-11-22T15:02:43.387Z</time>
      </trkpt>
      <trkpt lat="47.592608" lon="7.645397">
        <ele>269.769071</ele>
        <time>2021-11-22T15:02:44.018Z</time>
      </trkpt>
      <trkpt lat="47.592592" lon="7.645495">
        <ele>269.725898</ele>
        <time>2021-11-22T15:02:44.897Z</time>
      </trkpt>
      <trkpt lat="47.592575" lon="7.645573">
        <ele>269.690800</ele>
        <time>2021-11-22T15:02:45.686Z</time>
      </trkpt>
      <trkpt lat="47.592558" lon="7.645627">
        <ele>269.665284</ele>
        <time>2021-11-22T15:02:46.419Z</time>
      </trkpt>
      <trkpt lat="47.592527" lon="7.645695">
        <ele>269.630140</ele>
        <time>2021-11-22T15:02:47.417Z</time>
      </trkpt>
      <trkpt lat="47.592527" lon="7.645695">
        <ele>269.630140</ele>
        <time>2021-11-22T15:02:47.419Z</time>
      </trkpt>
      <trkpt lat="47.592507" lon="7.645734">
        <ele>269.609162</ele>
        <time>2021-11-22T15:02:47.878Z</time>
      </trkpt>
      <trkpt lat="47.592240" lon="7.646267">
        <ele>269.425510</ele>
        <time>2021-11-22T15:02:54.847Z</time>
      </trkpt>
      <trkpt lat="47.592219" lon="7.646306">
        <ele>269.413760</ele>
        <time>2021-11-22T15:02:55.305Z</time>
      </trkpt>
      <trkpt lat="47.592188" lon="7.646275">
        <ele>269.400707</ele>
        <time>2021-11-22T15:02:55.826Z</time>
      </trkpt>
      <trkpt lat="47.592086" lon="7.646139">
        <ele>269.352818</ele>
        <time>2021-11-22T15:02:57.959Z</time>
      </trkpt>
      <trkpt lat="47.592050" lon="7.646095">
        <ele>269.336531</ele>
        <time>2021-11-22T15:02:58.570Z</time>
      </trkpt>
      <trkpt lat="47.591154" lon="7.645003">
        <ele>268.931626</ele>
        <time>2021-11-22T15:03:13.878Z</time>
      </trkpt>
      <trkpt lat="47.591141" lon="7.644987">
        <ele>268.925728</ele>
        <time>2021-11-22T15:03:14.103Z</time>
      </trkpt>
      <trkpt lat="47.590669" lon="7.644422">
        <ele>268.777784</ele>
        <time>2021-11-22T15:03:22.051Z</time>
      </trkpt>
      <trkpt lat="47.589605" lon="7.643151">
        <ele>268.502831</ele>
        <time>2021-11-22T15:03:41.403Z</time>
      </trkpt>
      <trkpt lat="47.589439" lon="7.642956">
        <ele>268.524360</ele>
        <time>2021-11-22T15:03:44.815Z</time>
      </trkpt>
      <trkpt lat="47.589372" lon="7.642899">
        <ele>268.532213</ele>
        <time>2021-11-22T15:03:46.103Z</time>
      </trkpt>
      <trkpt lat="47.589069" lon="7.642493">
        <ele>268.573729</ele>
        <time>2021-11-22T15:03:52.676Z</time>
      </trkpt>
      <trkpt lat="47.588260" lon="7.641096">
        <ele>268.525643</ele>
        <time>2021-11-22T15:04:11.911Z</time>
      </trkpt>
      <trkpt lat="47.586685" lon="7.638092">
        <ele>266.952545</ele>
        <time>2021-11-22T15:04:45.074Z</time>
      </trkpt>
      <trkpt lat="47.586552" lon="7.637873">
        <ele>266.793422</ele>
        <time>2021-11-22T15:04:47.469Z</time>
      </trkpt>
      <trkpt lat="47.586539" lon="7.637889">
        <ele>266.779896</ele>
        <time>2021-11-22T15:04:49.365Z</time>
      </trkpt>
      <trkpt lat="47.586472" lon="7.637973">
        <ele>266.709652</ele>
        <time>2021-11-22T15:04:58.610Z</time>
      </trkpt>
      <trkpt lat="47.586127" lon="7.638478">
        <ele>266.336134</ele>
        <time>2021-11-22T15:05:50.896Z</time>
      </trkpt>
      <trkpt lat="47.586090" lon="7.638505">
        <ele>266.313644</ele>
        <time>2021-11-22T15:05:55.072Z</time>
      </trkpt>
      <trkpt lat="47.586094" lon="7.638577">
        <ele>266.287071</ele>
        <time>2021-11-22T15:06:00.351Z</time>
      </trkpt>
      <trkpt lat="47.586088" lon="7.638684">
        <ele>266.247577</ele>
        <time>2021-11-22T15:06:08.220Z</time>
      </trkpt>
      <trkpt lat="47.585643" lon="7.640577">
        <ele>265.510193</ele>
        <time>2021-11-22T15:08:34.106Z</time>
      </trkpt>
      <trkpt lat="47.585624" lon="7.640660">
        <ele>265.477953</ele>
        <time>2021-11-22T15:08:40.796Z</time>
      </trkpt>
      <trkpt lat="47.585609" lon="7.640735">
        <ele>265.449178</ele>
        <time>2021-11-22T15:08:46.730Z</time>
      </trkpt>
      <trkpt lat="47.585609" lon="7.640735">
        <ele>265.449178</ele>
        <time>2021-11-22T15:08:46.743Z</time>
      </trkpt>
      <trkpt lat="47.585359" lon="7.642334">
        <ele>266.658187</ele>
        <time>2021-11-22T15:10:54.209Z</time>
      </trkpt>
      <trkpt lat="47.585354" lon="7.642462">
        <ele>266.769045</ele>
        <time>2021-11-22T15:11:04.373Z</time>
      </trkpt>
      <trkpt lat="47.585336" lon="7.642883">
        <ele>267.133786</ele>
        <time>2021-11-22T15:11:37.977Z</time>
      </trkpt>
      <trkpt lat="47.585326" lon="7.643892">
        <ele>268.420322</ele>
        <time>2021-11-22T15:12:59.265Z</time>
      </trkpt>
      <trkpt lat="47.585328" lon="7.643994">
        <ele>268.624827</ele>
        <time>2021-11-22T15:13:01.282Z</time>
      </trkpt>
      <trkpt lat="47.585335" lon="7.644075">
        <ele>268.788487</ele>
        <time>2021-11-22T15:13:02.916Z</time>
      </trkpt>
      <trkpt lat="47.585331" lon="7.644822">
        <ele>270.285602</ele>
        <time>2021-11-22T15:13:18.659Z</time>
      </trkpt>
      <trkpt lat="47.585208" lon="7.646213">
        <ele>273.109055</ele>
        <time>2021-11-22T15:13:50.622Z</time>
      </trkpt>
      <trkpt lat="47.585228" lon="7.646594">
        <ele>274.024699</ele>
        <time>2021-11-22T15:13:59.930Z</time>
      </trkpt>
      <trkpt lat="47.585361" lon="7.647766">
        <ele>276.872297</ele>
        <time>2021-11-22T15:14:28.377Z</time>
      </trkpt>
      <trkpt lat="47.585377" lon="7.647940">
        <ele>277.293060</ele>
        <time>2021-11-22T15:14:32.499Z</time>
      </trkpt>
      <trkpt lat="47.585369" lon="7.648060">
        <ele>277.581983</ele>
        <time>2021-11-22T15:14:35.626Z</time>
      </trkpt>
      <trkpt lat="47.585252" lon="7.648497">
        <ele>278.708514</ele>
        <time>2021-11-22T15:14:46.192Z</time>
      </trkpt>
      <trkpt lat="47.585161" lon="7.648839">
        <ele>279.526916</ele>
        <time>2021-11-22T15:14:54.289Z</time>
      </trkpt>
      <trkpt lat="47.585063" lon="7.649185">
        <ele>280.082652</ele>
        <time>2021-11-22T15:15:01.057Z</time>
      </trkpt>
      <trkpt lat="47.585015" lon="7.649351">
        <ele>280.350120</ele>
        <time>2021-11-22T15:15:04.198Z</time>
      </trkpt>
      <trkpt lat="47.584886" lon="7.649803">
        <ele>281.076946</ele>
        <time>2021-11-22T15:15:12.408Z</time>
      </trkpt>
      <trkpt lat="47.584856" lon="7.649890">
        <ele>281.221646</ele>
        <time>2021-11-22T15:15:13.936Z</time>
      </trkpt>
      <trkpt lat="47.584850" lon="7.649909">
        <ele>281.252714</ele>
        <time>2021-11-22T15:15:14.289Z</time>
      </trkpt>
      <trkpt lat="47.584842" lon="7.649930">
        <ele>281.288431</ele>
        <time>2021-11-22T15:15:14.731Z</time>
      </trkpt>
      <trkpt lat="47.584812" lon="7.650016">
        <ele>281.431814</ele>
        <time>2021-11-22T15:15:16.549Z</time>
      </trkpt>
      <trkpt lat="47.584784" lon="7.650175">
        <ele>281.675172</ele>
        <time>2021-11-22T15:15:18.932Z</time>
      </trkpt>
      <trkpt lat="47.584811" lon="7.650714">
        <ele>282.475582</ele>
        <time>2021-11-22T15:15:27.083Z</time>
      </trkpt>
      <trkpt lat="47.584829" lon="7.651141">
        <ele>283.109165</ele>
        <time>2021-11-22T15:15:33.137Z</time>
      </trkpt>
      <trkpt lat="47.584828" lon="7.651274">
        <ele>283.306139</ele>
        <time>2021-11-22T15:15:36.826Z</time>
      </trkpt>
      <trkpt lat="47.584812" lon="7.651403">
        <ele>283.427327</ele>
        <time>2021-11-22T15:15:40.628Z</time>
      </trkpt>
      <trkpt lat="47.584795" lon="7.651535">
        <ele>283.510530</ele>
        <time>2021-11-22T15:15:44.442Z</time>
      </trkpt>
      <trkpt lat="47.584772" lon="7.651673">
        <ele>283.598541</ele>
        <time>2021-11-22T15:15:46.232Z</time>
      </trkpt>
      <trkpt lat="47.584640" lon="7.652138">
        <ele>283.910899</ele>
        <time>2021-11-22T15:15:52.584Z</time>
      </trkpt>
      <trkpt lat="47.584548" lon="7.652398">
        <ele>284.092682</ele>
        <time>2021-11-22T15:15:55.990Z</time>
      </trkpt>
      <trkpt lat="47.584453" lon="7.652670">
        <ele>284.282327</ele>
        <time>2021-11-22T15:15:59.844Z</time>
      </trkpt>
      <trkpt lat="47.584433" lon="7.652727">
        <ele>284.322108</ele>
        <time>2021-11-22T15:16:00.600Z</time>
      </trkpt>
      <trkpt lat="47.584419" lon="7.652765">
        <ele>284.348916</ele>
        <time>2021-11-22T15:16:01.080Z</time>
      </trkpt>
      <trkpt lat="47.584405" lon="7.652808">
        <ele>284.378479</ele>
        <time>2021-11-22T15:16:01.685Z</time>
      </trkpt>
      <trkpt lat="47.584372" lon="7.652901">
        <ele>284.443541</ele>
        <time>2021-11-22T15:16:03.008Z</time>
      </trkpt>
      <trkpt lat="47.584311" lon="7.653057">
        <ele>284.555184</ele>
        <time>2021-11-22T15:16:05.258Z</time>
      </trkpt>
      <trkpt lat="47.584265" lon="7.653075">
        <ele>284.598855</ele>
        <time>2021-11-22T15:16:06.120Z</time>
      </trkpt>
      <trkpt lat="47.583914" lon="7.653210">
        <ele>284.931712</ele>
        <time>2021-11-22T15:16:12.516Z</time>
      </trkpt>
      <trkpt lat="47.583768" lon="7.653263">
        <ele>285.031165</ele>
        <time>2021-11-22T15:16:15.203Z</time>
      </trkpt>
      <trkpt lat="47.583768" lon="7.653263">
        <ele>285.031165</ele>
        <time>2021-11-22T15:16:15.234Z</time>
      </trkpt>
      <trkpt lat="47.583768" lon="7.653263">
        <ele>285.031165</ele>
        <time>2021-11-22T15:16:15.265Z</time>
      </trkpt>
      <trkpt lat="47.583620" lon="7.653317">
        <ele>285.048092</ele>
        <time>2021-11-22T15:16:18.070Z</time>
      </trkpt>
      <trkpt lat="47.583580" lon="7.653203">
        <ele>285.057718</ele>
        <time>2021-11-22T15:16:19.597Z</time>
      </trkpt>
      <trkpt lat="47.583294" lon="7.652488">
        <ele>285.119988</ele>
        <time>2021-11-22T15:16:28.610Z</time>
      </trkpt>
      <trkpt lat="47.583125" lon="7.652270">
        <ele>285.144866</ele>
        <time>2021-11-22T15:16:31.714Z</time>
      </trkpt>
      <trkpt lat="47.582925" lon="7.652099">
        <ele>285.170507</ele>
        <time>2021-11-22T15:16:34.959Z</time>
      </trkpt>
      <trkpt lat="47.582649" lon="7.651865">
        <ele>285.205817</ele>
        <time>2021-11-22T15:16:39.353Z</time>
      </trkpt>
      <trkpt lat="47.582569" lon="7.651788">
        <ele>285.216410</ele>
        <time>2021-11-22T15:16:40.679Z</time>
      </trkpt>
      <trkpt lat="47.582386" lon="7.651596">
        <ele>285.227604</ele>
        <time>2021-11-22T15:16:43.766Z</time>
      </trkpt>
      <trkpt lat="47.582139" lon="7.651252">
        <ele>285.232374</ele>
        <time>2021-11-22T15:16:48.558Z</time>
      </trkpt>
      <trkpt lat="47.581664" lon="7.650574">
        <ele>285.241656</ele>
        <time>2021-11-22T15:16:58.675Z</time>
      </trkpt>
      <trkpt lat="47.581330" lon="7.650129">
        <ele>285.247978</ele>
        <time>2021-11-22T15:17:05.477Z</time>
      </trkpt>
      <trkpt lat="47.580923" lon="7.649586">
        <ele>285.251384</ele>
        <time>2021-11-22T15:17:13.959Z</time>
      </trkpt>
      <trkpt lat="47.580690" lon="7.649275">
        <ele>285.251802</ele>
        <time>2021-11-22T15:17:18.593Z</time>
      </trkpt>
      <trkpt lat="47.580600" lon="7.649166">
        <ele>285.251957</ele>
        <time>2021-11-22T15:17:20.666Z</time>
      </trkpt>
      <trkpt lat="47.580497" lon="7.649043">
        <ele>285.252133</ele>
        <time>2021-11-22T15:17:22.462Z</time>
      </trkpt>
      <trkpt lat="47.580390" lon="7.648947">
        <ele>285.252299</ele>
        <time>2021-11-22T15:17:24.257Z</time>
      </trkpt>
      <trkpt lat="47.580196" lon="7.648842">
        <ele>285.252575</ele>
        <time>2021-11-22T15:17:27.372Z</time>
      </trkpt>
      <trkpt lat="47.579842" lon="7.648645">
        <ele>285.253079</ele>
        <time>2021-11-22T15:17:32.829Z</time>
      </trkpt>
      <trkpt lat="47.579401" lon="7.648402">
        <ele>285.090190</ele>
        <time>2021-11-22T15:17:39.790Z</time>
      </trkpt>
      <trkpt lat="47.578549" lon="7.647926">
        <ele>284.561778</ele>
        <time>2021-11-22T15:17:51.935Z</time>
      </trkpt>
      <trkpt lat="47.578355" lon="7.647814">
        <ele>284.440953</ele>
        <time>2021-11-22T15:17:54.414Z</time>
      </trkpt>
      <trkpt lat="47.578240" lon="7.647750">
        <ele>284.369664</ele>
        <time>2021-11-22T15:17:56.154Z</time>
      </trkpt>
      <trkpt lat="47.578212" lon="7.647592">
        <ele>284.305708</ele>
        <time>2021-11-22T15:17:57.908Z</time>
      </trkpt>
      <trkpt lat="47.578172" lon="7.647371">
        <ele>284.216127</ele>
        <time>2021-11-22T15:18:00.468Z</time>
      </trkpt>
      <trkpt lat="47.578114" lon="7.647072">
        <ele>283.997549</ele>
        <time>2021-11-22T15:18:04.120Z</time>
      </trkpt>
      <trkpt lat="47.577955" lon="7.646248">
        <ele>283.380034</ele>
        <time>2021-11-22T15:18:14.200Z</time>
      </trkpt>
      <trkpt lat="47.577871" lon="7.645828">
        <ele>283.064397</ele>
        <time>2021-11-22T15:18:19.163Z</time>
      </trkpt>
      <trkpt lat="47.577819" lon="7.645639">
        <ele>282.917328</ele>
        <time>2021-11-22T15:18:21.745Z</time>
      </trkpt>
      <trkpt lat="47.577778" lon="7.645521">
        <ele>282.821692</ele>
        <time>2021-11-22T15:18:23.095Z</time>
      </trkpt>
      <trkpt lat="47.577733" lon="7.645418">
        <ele>282.733274</ele>
        <time>2021-11-22T15:18:24.491Z</time>
      </trkpt>
      <trkpt lat="47.577119" lon="7.644545">
        <ele>281.849858</ele>
        <time>2021-11-22T15:18:39.537Z</time>
      </trkpt>
      <trkpt lat="47.577068" lon="7.644471">
        <ele>281.777790</ele>
        <time>2021-11-22T15:18:40.772Z</time>
      </trkpt>
      <trkpt lat="47.577053" lon="7.644408">
        <ele>281.732277</ele>
        <time>2021-11-22T15:18:41.484Z</time>
      </trkpt>
      <trkpt lat="47.577053" lon="7.644408">
        <ele>281.732277</ele>
        <time>2021-11-22T15:18:41.488Z</time>
      </trkpt>
      <trkpt lat="47.577020" lon="7.644357">
        <ele>281.684135</ele>
        <time>2021-11-22T15:18:42.125Z</time>
      </trkpt>
      <trkpt lat="47.576984" lon="7.644345">
        <ele>281.646872</ele>
        <time>2021-11-22T15:18:42.581Z</time>
      </trkpt>
      <trkpt lat="47.576840" lon="7.644326">
        <ele>281.500879</ele>
        <time>2021-11-22T15:18:44.475Z</time>
      </trkpt>
      <trkpt lat="47.576834" lon="7.644207">
        <ele>281.419584</ele>
        <time>2021-11-22T15:18:45.478Z</time>
      </trkpt>
      <trkpt lat="47.576806" lon="7.644093">
        <ele>281.336935</ele>
        <time>2021-11-22T15:18:46.397Z</time>
      </trkpt>
      <trkpt lat="47.576675" lon="7.643893">
        <ele>281.147028</ele>
        <time>2021-11-22T15:18:48.821Z</time>
      </trkpt>
      <trkpt lat="47.575918" lon="7.642896">
        <ele>279.546963</ele>
        <time>2021-11-22T15:19:01.319Z</time>
      </trkpt>
      <trkpt lat="47.575929" lon="7.642857">
        <ele>279.470323</ele>
        <time>2021-11-22T15:19:01.599Z</time>
      </trkpt>
      <trkpt lat="47.575598" lon="7.642288">
        <ele>278.108122</ele>
        <time>2021-11-22T15:19:06.992Z</time>
      </trkpt>
      <trkpt lat="47.575016" lon="7.641467">
        <ele>275.948895</ele>
        <time>2021-11-22T15:19:14.999Z</time>
      </trkpt>
      <trkpt lat="47.574995" lon="7.641437">
        <ele>275.870513</ele>
        <time>2021-11-22T15:19:15.262Z</time>
      </trkpt>
      <trkpt lat="47.574636" lon="7.640933">
        <ele>274.508099</ele>
        <time>2021-11-22T15:19:20.163Z</time>
      </trkpt>
      <trkpt lat="47.574537" lon="7.640780">
        <ele>274.111967</ele>
        <time>2021-11-22T15:19:21.595Z</time>
      </trkpt>
      <trkpt lat="47.574263" lon="7.640424">
        <ele>273.102787</ele>
        <time>2021-11-22T15:19:25.284Z</time>
      </trkpt>
      <trkpt lat="47.572931" lon="7.638578">
        <ele>269.315026</ele>
        <time>2021-11-22T15:19:45.306Z</time>
      </trkpt>
      <trkpt lat="47.572773" lon="7.638380">
        <ele>269.019872</ele>
        <time>2021-11-22T15:19:47.965Z</time>
      </trkpt>
      <trkpt lat="47.572427" lon="7.637970">
        <ele>268.387944</ele>
        <time>2021-11-22T15:19:53.516Z</time>
      </trkpt>
      <trkpt lat="47.572206" lon="7.637673">
        <ele>268.013813</ele>
        <time>2021-11-22T15:19:57.212Z</time>
      </trkpt>
      <trkpt lat="47.571982" lon="7.637364">
        <ele>267.752566</ele>
        <time>2021-11-22T15:20:01.006Z</time>
      </trkpt>
      <trkpt lat="47.571861" lon="7.637212">
        <ele>267.617153</ele>
        <time>2021-11-22T15:20:02.925Z</time>
      </trkpt>
      <trkpt lat="47.571753" lon="7.637078">
        <ele>267.496907</ele>
        <time>2021-11-22T15:20:04.690Z</time>
      </trkpt>
      <trkpt lat="47.571578" lon="7.636839">
        <ele>267.293748</ele>
        <time>2021-11-22T15:20:07.599Z</time>
      </trkpt>
      <trkpt lat="47.571283" lon="7.636434">
        <ele>266.950454</ele>
        <time>2021-11-22T15:20:12.555Z</time>
      </trkpt>
      <trkpt lat="47.571014" lon="7.636055">
        <ele>266.633594</ele>
        <time>2021-11-22T15:20:17.302Z</time>
      </trkpt>
      <trkpt lat="47.570302" lon="7.635051">
        <ele>265.892288</ele>
        <time>2021-11-22T15:20:30.056Z</time>
      </trkpt>
      <trkpt lat="47.570259" lon="7.635033">
        <ele>265.859043</ele>
        <time>2021-11-22T15:20:30.601Z</time>
      </trkpt>
      <trkpt lat="47.570189" lon="7.635029">
        <ele>265.806923</ele>
        <time>2021-11-22T15:20:31.549Z</time>
      </trkpt>
      <trkpt lat="47.570134" lon="7.634958">
        <ele>265.752656</ele>
        <time>2021-11-22T15:20:32.482Z</time>
      </trkpt>
      <trkpt lat="47.570039" lon="7.634831">
        <ele>265.657470</ele>
        <time>2021-11-22T15:20:34.094Z</time>
      </trkpt>
      <trkpt lat="47.569914" lon="7.634657">
        <ele>265.529881</ele>
        <time>2021-11-22T15:20:36.287Z</time>
      </trkpt>
      <trkpt lat="47.569443" lon="7.634003">
        <ele>265.058646</ele>
        <time>2021-11-22T15:20:44.287Z</time>
      </trkpt>
      <trkpt lat="47.569381" lon="7.633887">
        <ele>264.988345</ele>
        <time>2021-11-22T15:20:45.521Z</time>
      </trkpt>
      <trkpt lat="47.569365" lon="7.633738">
        <ele>264.916671</ele>
        <time>2021-11-22T15:20:46.761Z</time>
      </trkpt>
      <trkpt lat="47.569280" lon="7.633767">
        <ele>264.855258</ele>
        <time>2021-11-22T15:20:47.873Z</time>
      </trkpt>
      <trkpt lat="47.569194" lon="7.633796">
        <ele>264.793159</ele>
        <time>2021-11-22T15:20:48.977Z</time>
      </trkpt>
      <trkpt lat="47.568916" lon="7.633890">
        <ele>264.592392</ele>
        <time>2021-11-22T15:20:52.530Z</time>
      </trkpt>
      <trkpt lat="47.568755" lon="7.633945">
        <ele>264.476062</ele>
        <time>2021-11-22T15:20:54.566Z</time>
      </trkpt>
      <trkpt lat="47.568664" lon="7.633976">
        <ele>264.410318</ele>
        <time>2021-11-22T15:20:55.688Z</time>
      </trkpt>
      <trkpt lat="47.568506" lon="7.634074">
        <ele>264.289723</ele>
        <time>2021-11-22T15:20:57.843Z</time>
      </trkpt>
      <trkpt lat="47.568426" lon="7.634116">
        <ele>264.229966</ele>
        <time>2021-11-22T15:20:59.294Z</time>
      </trkpt>
      <trkpt lat="47.567896" lon="7.634414">
        <ele>263.934908</ele>
        <time>2021-11-22T15:21:10.014Z</time>
      </trkpt>
      <trkpt lat="47.567554" lon="7.634720">
        <ele>263.898823</ele>
        <time>2021-11-22T15:21:18.373Z</time>
      </trkpt>
      <trkpt lat="47.567470" lon="7.634813">
        <ele>263.889352</ele>
        <time>2021-11-22T15:21:20.338Z</time>
      </trkpt>
      <trkpt lat="47.567447" lon="7.634839">
        <ele>263.886739</ele>
        <time>2021-11-22T15:21:20.970Z</time>
      </trkpt>
      <trkpt lat="47.567360" lon="7.634990">
        <ele>263.874637</ele>
        <time>2021-11-22T15:21:23.598Z</time>
      </trkpt>
      <trkpt lat="47.567291" lon="7.635141">
        <ele>263.863522</ele>
        <time>2021-11-22T15:21:26.131Z</time>
      </trkpt>
      <trkpt lat="47.567202" lon="7.635336">
        <ele>263.849173</ele>
        <time>2021-11-22T15:21:29.287Z</time>
      </trkpt>
      <trkpt lat="47.567127" lon="7.635520">
        <ele>263.836071</ele>
        <time>2021-11-22T15:21:32.117Z</time>
      </trkpt>
      <trkpt lat="47.566975" lon="7.635896">
        <ele>263.809357</ele>
        <time>2021-11-22T15:21:38.233Z</time>
      </trkpt>
      <trkpt lat="47.566893" lon="7.636097">
        <ele>263.795041</ele>
        <time>2021-11-22T15:21:41.496Z</time>
      </trkpt>
      <trkpt lat="47.566839" lon="7.636231">
        <ele>263.779283</ele>
        <time>2021-11-22T15:21:43.774Z</time>
      </trkpt>
      <trkpt lat="47.566788" lon="7.636368">
        <ele>263.742972</ele>
        <time>2021-11-22T15:21:45.842Z</time>
      </trkpt>
      <trkpt lat="47.566774" lon="7.636453">
        <ele>263.722668</ele>
        <time>2021-11-22T15:21:47.046Z</time>
      </trkpt>
      <trkpt lat="47.566766" lon="7.636540">
        <ele>263.702292</ele>
        <time>2021-11-22T15:21:48.369Z</time>
      </trkpt>
      <trkpt lat="47.566514" lon="7.636519">
        <ele>263.615483</ele>
        <time>2021-11-22T15:21:52.127Z</time>
      </trkpt>
      <trkpt lat="47.566084" lon="7.636483">
        <ele>263.467355</ele>
        <time>2021-11-22T15:21:58.493Z</time>
      </trkpt>
      <trkpt lat="47.566043" lon="7.636480">
        <ele>263.453236</ele>
        <time>2021-11-22T15:21:59.118Z</time>
      </trkpt>
      <trkpt lat="47.565914" lon="7.636469">
        <ele>263.408795</ele>
        <time>2021-11-22T15:22:00.881Z</time>
      </trkpt>
      <trkpt lat="47.565890" lon="7.636467">
        <ele>263.400527</ele>
        <time>2021-11-22T15:22:01.218Z</time>
      </trkpt>
      <trkpt lat="47.565789" lon="7.636459">
        <ele>263.365740</ele>
        <time>2021-11-22T15:22:02.501Z</time>
      </trkpt>
      <trkpt lat="47.565748" lon="7.636455">
        <ele>263.351608</ele>
        <time>2021-11-22T15:22:03.071Z</time>
      </trkpt>
      <trkpt lat="47.565321" lon="7.636419">
        <ele>263.204510</ele>
        <time>2021-11-22T15:22:08.376Z</time>
      </trkpt>
      <trkpt lat="47.564986" lon="7.636389">
        <ele>262.870291</ele>
        <time>2021-11-22T15:22:12.389Z</time>
      </trkpt>
      <trkpt lat="47.564924" lon="7.636372">
        <ele>262.789336</ele>
        <time>2021-11-22T15:22:13.136Z</time>
      </trkpt>
      <trkpt lat="47.564863" lon="7.636347">
        <ele>262.708076</ele>
        <time>2021-11-22T15:22:13.969Z</time>
      </trkpt>
      <trkpt lat="47.564136" lon="7.635747">
        <ele>261.639674</ele>
        <time>2021-11-22T15:22:24.596Z</time>
      </trkpt>
      <trkpt lat="47.563800" lon="7.635461">
        <ele>261.142177</ele>
        <time>2021-11-22T15:22:28.672Z</time>
      </trkpt>
      <trkpt lat="47.562895" lon="7.634844">
        <ele>259.638782</ele>
        <time>2021-11-22T15:22:39.766Z</time>
      </trkpt>
      <trkpt lat="47.562491" lon="7.634562">
        <ele>258.936330</ele>
        <time>2021-11-22T15:22:45.069Z</time>
      </trkpt>
      <trkpt lat="47.562356" lon="7.634468">
        <ele>258.701704</ele>
        <time>2021-11-22T15:22:46.689Z</time>
      </trkpt>
      <trkpt lat="47.562299" lon="7.634770">
        <ele>258.368848</ele>
        <time>2021-11-22T15:22:49.248Z</time>
      </trkpt>
      <trkpt lat="47.562290" lon="7.634813">
        <ele>258.321061</ele>
        <time>2021-11-22T15:22:49.573Z</time>
      </trkpt>
      <trkpt lat="47.562278" lon="7.634866">
        <ele>258.261723</ele>
        <time>2021-11-22T15:22:49.980Z</time>
      </trkpt>
      <trkpt lat="47.562267" lon="7.634913">
        <ele>258.208920</ele>
        <time>2021-11-22T15:22:50.485Z</time>
      </trkpt>
      <trkpt lat="47.562211" lon="7.635159">
        <ele>258.011531</ele>
        <time>2021-11-22T15:22:52.516Z</time>
      </trkpt>
      <trkpt lat="47.562196" lon="7.635223">
        <ele>257.997466</ele>
        <time>2021-11-22T15:22:53.053Z</time>
      </trkpt>
      <trkpt lat="47.562186" lon="7.635270">
        <ele>257.987236</ele>
        <time>2021-11-22T15:22:53.469Z</time>
      </trkpt>
      <trkpt lat="47.562076" lon="7.635765">
        <ele>257.879046</ele>
        <time>2021-11-22T15:22:57.619Z</time>
      </trkpt>
      <trkpt lat="47.561882" lon="7.636362">
        <ele>257.741487</ele>
        <time>2021-11-22T15:23:03.315Z</time>
      </trkpt>
      <trkpt lat="47.561822" lon="7.636510">
        <ele>257.705644</ele>
        <time>2021-11-22T15:23:05.073Z</time>
      </trkpt>
      <trkpt lat="47.561782" lon="7.636596">
        <ele>257.683960</ele>
        <time>2021-11-22T15:23:06.414Z</time>
      </trkpt>
      <trkpt lat="47.561686" lon="7.636795">
        <ele>257.633176</ele>
        <time>2021-11-22T15:23:09.912Z</time>
      </trkpt>
      <trkpt lat="47.561175" lon="7.637862">
        <ele>257.666093</ele>
        <time>2021-11-22T15:23:24.071Z</time>
      </trkpt>
      <trkpt lat="47.560897" lon="7.638442">
        <ele>257.907354</ele>
        <time>2021-11-22T15:23:31.605Z</time>
      </trkpt>
      <trkpt lat="47.560694" lon="7.638827">
        <ele>258.073048</ele>
        <time>2021-11-22T15:23:37.379Z</time>
      </trkpt>
      <trkpt lat="47.560246" lon="7.639588">
        <ele>258.440943</ele>
        <time>2021-11-22T15:23:49.087Z</time>
      </trkpt>
      <trkpt lat="47.559838" lon="7.640255">
        <ele>258.971622</ele>
        <time>2021-11-22T15:23:59.675Z</time>
      </trkpt>
      <trkpt lat="47.559349" lon="7.641052">
        <ele>259.606603</ele>
        <time>2021-11-22T15:24:14.228Z</time>
      </trkpt>
      <trkpt lat="47.559035" lon="7.641573">
        <ele>259.961739</ele>
        <time>2021-11-22T15:24:22.872Z</time>
      </trkpt>
      <trkpt lat="47.558885" lon="7.641826">
        <ele>259.990097</ele>
        <time>2021-11-22T15:24:26.547Z</time>
      </trkpt>
      <trkpt lat="47.558729" lon="7.642083">
        <ele>260.019204</ele>
        <time>2021-11-22T15:24:30.632Z</time>
      </trkpt>
      <trkpt lat="47.558518" lon="7.642425">
        <ele>260.058224</ele>
        <time>2021-11-22T15:24:35.703Z</time>
      </trkpt>
      <trkpt lat="47.558364" lon="7.642637">
        <ele>260.084452</ele>
        <time>2021-11-22T15:24:38.706Z</time>
      </trkpt>
      <trkpt lat="47.557834" lon="7.643162">
        <ele>260.164000</ele>
        <time>2021-11-22T15:24:48.447Z</time>
      </trkpt>
      <trkpt lat="47.556072" lon="7.644403">
        <ele>258.424076</ele>
        <time>2021-11-22T15:25:12.061Z</time>
      </trkpt>
      <trkpt lat="47.555961" lon="7.644481">
        <ele>258.334581</ele>
        <time>2021-11-22T15:25:13.544Z</time>
      </trkpt>
      <trkpt lat="47.555716" lon="7.644654">
        <ele>258.136869</ele>
        <time>2021-11-22T15:25:16.722Z</time>
      </trkpt>
      <trkpt lat="47.555704" lon="7.644698">
        <ele>258.113537</ele>
        <time>2021-11-22T15:25:17.105Z</time>
      </trkpt>
      <trkpt lat="47.555705" lon="7.644761">
        <ele>258.082555</ele>
        <time>2021-11-22T15:25:17.720Z</time>
      </trkpt>
      <trkpt lat="47.555880" lon="7.645218">
        <ele>257.824225</ele>
        <time>2021-11-22T15:25:22.155Z</time>
      </trkpt>
      <trkpt lat="47.555943" lon="7.645361">
        <ele>257.740266</ele>
        <time>2021-11-22T15:25:23.761Z</time>
      </trkpt>
      <trkpt lat="47.555473" lon="7.645969">
        <ele>257.285749</ele>
        <time>2021-11-22T15:25:45.492Z</time>
      </trkpt>
      <trkpt lat="47.555430" lon="7.646034">
        <ele>257.240999</ele>
        <time>2021-11-22T15:25:46.443Z</time>
      </trkpt>
      <trkpt lat="47.555334" lon="7.646275">
        <ele>257.158354</ele>
        <time>2021-11-22T15:25:48.781Z</time>
      </trkpt>
      <trkpt lat="47.555319" lon="7.646310">
        <ele>257.161824</ele>
        <time>2021-11-22T15:25:49.158Z</time>
      </trkpt>
      <trkpt lat="47.555260" lon="7.646449">
        <ele>257.175567</ele>
        <time>2021-11-22T15:25:50.928Z</time>
      </trkpt>
      <trkpt lat="47.554979" lon="7.646846">
        <ele>257.223716</ele>
        <time>2021-11-22T15:25:56.765Z</time>
      </trkpt>
      <trkpt lat="47.554475" lon="7.647537">
        <ele>257.308870</ele>
        <time>2021-11-22T15:26:07.079Z</time>
      </trkpt>
      <trkpt lat="47.554118" lon="7.648113">
        <ele>257.377268</ele>
        <time>2021-11-22T15:26:16.120Z</time>
      </trkpt>
      <trkpt lat="47.553958" lon="7.648375">
        <ele>257.502903</ele>
        <time>2021-11-22T15:26:20.135Z</time>
      </trkpt>
      <trkpt lat="47.553714" lon="7.648774">
        <ele>257.694350</ele>
        <time>2021-11-22T15:26:26.109Z</time>
      </trkpt>
      <trkpt lat="47.553648" lon="7.648907">
        <ele>257.753048</ele>
        <time>2021-11-22T15:26:27.987Z</time>
      </trkpt>
      <trkpt lat="47.553146" lon="7.649919">
        <ele>258.199622</ele>
        <time>2021-11-22T15:26:42.300Z</time>
      </trkpt>
      <trkpt lat="47.552587" lon="7.651166">
        <ele>258.791159</ele>
        <time>2021-11-22T15:27:00.271Z</time>
      </trkpt>
      <trkpt lat="47.552183" lon="7.652241">
        <ele>259.291749</ele>
        <time>2021-11-22T15:27:14.483Z</time>
      </trkpt>
      <trkpt lat="47.552106" lon="7.652480">
        <ele>259.399496</ele>
        <time>2021-11-22T15:27:17.403Z</time>
      </trkpt>
      <trkpt lat="47.552114" lon="7.652563">
        <ele>259.424600</ele>
        <time>2021-11-22T15:27:18.371Z</time>
      </trkpt>
      <trkpt lat="47.552074" lon="7.652610">
        <ele>259.445599</ele>
        <time>2021-11-22T15:27:19.272Z</time>
      </trkpt>
      <trkpt lat="47.551932" lon="7.653017">
        <ele>259.572791</ele>
        <time>2021-11-22T15:27:24.348Z</time>
      </trkpt>
      <trkpt lat="47.551870" lon="7.653156">
        <ele>259.619045</ele>
        <time>2021-11-22T15:27:26.251Z</time>
      </trkpt>
      <trkpt lat="47.551661" lon="7.653577">
        <ele>259.764132</ele>
        <time>2021-11-22T15:27:32.054Z</time>
      </trkpt>
      <trkpt lat="47.551583" lon="7.653791">
        <ele>259.831651</ele>
        <time>2021-11-22T15:27:34.685Z</time>
      </trkpt>
      <trkpt lat="47.550937" lon="7.657286">
        <ele>260.883250</ele>
        <time>2021-11-22T15:28:15.258Z</time>
      </trkpt>
      <trkpt lat="47.550899" lon="7.657475">
        <ele>260.937390</ele>
        <time>2021-11-22T15:28:17.626Z</time>
      </trkpt>
      <trkpt lat="47.550868" lon="7.657668">
        <ele>260.965093</ele>
        <time>2021-11-22T15:28:19.726Z</time>
      </trkpt>
      <trkpt lat="47.550853" lon="7.657854">
        <ele>260.991250</ele>
        <time>2021-11-22T15:28:21.631Z</time>
      </trkpt>
      <trkpt lat="47.550745" lon="7.659104">
        <ele>261.167224</ele>
        <time>2021-11-22T15:28:34.764Z</time>
      </trkpt>
      <trkpt lat="47.550675" lon="7.659854">
        <ele>261.272950</ele>
        <time>2021-11-22T15:28:42.618Z</time>
      </trkpt>
      <trkpt lat="47.550671" lon="7.660018">
        <ele>261.295865</ele>
        <time>2021-11-22T15:28:44.263Z</time>
      </trkpt>
      <trkpt lat="47.550667" lon="7.660245">
        <ele>261.335327</ele>
        <time>2021-11-22T15:28:46.597Z</time>
      </trkpt>
      <trkpt lat="47.550660" lon="7.660475">
        <ele>261.378896</ele>
        <time>2021-11-22T15:28:49.053Z</time>
      </trkpt>
      <trkpt lat="47.549673" lon="7.667139">
        <ele>262.258057</ele>
        <time>2021-11-22T15:30:02.856Z</time>
      </trkpt>
      <trkpt lat="47.549432" lon="7.668426">
        <ele>261.822302</ele>
        <time>2021-11-22T15:30:14.445Z</time>
      </trkpt>
      <trkpt lat="47.549386" lon="7.668719">
        <ele>261.596870</ele>
        <time>2021-11-22T15:30:16.676Z</time>
      </trkpt>
      <trkpt lat="47.549361" lon="7.668877">
        <ele>261.475256</ele>
        <time>2021-11-22T15:30:18.090Z</time>
      </trkpt>
      <trkpt lat="47.549326" lon="7.669106">
        <ele>261.299301</ele>
        <time>2021-11-22T15:30:19.896Z</time>
      </trkpt>
      <trkpt lat="47.549302" lon="7.669267">
        <ele>261.175742</ele>
        <time>2021-11-22T15:30:21.082Z</time>
      </trkpt>
      <trkpt lat="47.549257" lon="7.669586">
        <ele>260.931521</ele>
        <time>2021-11-22T15:30:23.743Z</time>
      </trkpt>
      <trkpt lat="47.548962" lon="7.670528">
        <ele>260.208158</ele>
        <time>2021-11-22T15:30:32.222Z</time>
      </trkpt>
      <trkpt lat="47.548929" lon="7.670643">
        <ele>260.175503</ele>
        <time>2021-11-22T15:30:33.129Z</time>
      </trkpt>
      <trkpt lat="47.548906" lon="7.670686">
        <ele>260.161166</ele>
        <time>2021-11-22T15:30:33.504Z</time>
      </trkpt>
      <trkpt lat="47.548720" lon="7.670938">
        <ele>260.063583</ele>
        <time>2021-11-22T15:30:37.298Z</time>
      </trkpt>
      <trkpt lat="47.548674" lon="7.671062">
        <ele>260.026608</ele>
        <time>2021-11-22T15:30:38.371Z</time>
      </trkpt>
      <trkpt lat="47.548598" lon="7.671036">
        <ele>259.996410</ele>
        <time>2021-11-22T15:30:39.684Z</time>
      </trkpt>
      <trkpt lat="47.548474" lon="7.671088">
        <ele>259.946516</ele>
        <time>2021-11-22T15:30:41.548Z</time>
      </trkpt>
      <trkpt lat="47.548409" lon="7.671192">
        <ele>259.909476</ele>
        <time>2021-11-22T15:30:42.724Z</time>
      </trkpt>
      <trkpt lat="47.548386" lon="7.671284">
        <ele>259.883839</ele>
        <time>2021-11-22T15:30:43.467Z</time>
      </trkpt>
      <trkpt lat="47.547991" lon="7.671160">
        <ele>259.727515</ele>
        <time>2021-11-22T15:30:49.125Z</time>
      </trkpt>
      <trkpt lat="47.547947" lon="7.671147">
        <ele>259.710144</ele>
        <time>2021-11-22T15:30:49.914Z</time>
      </trkpt>
      <trkpt lat="47.547490" lon="7.672735">
        <ele>259.798185</ele>
        <time>2021-11-22T15:31:08.471Z</time>
      </trkpt>
      <trkpt lat="47.547314" lon="7.673384">
        <ele>259.964692</ele>
        <time>2021-11-22T15:31:16.185Z</time>
      </trkpt>
      <trkpt lat="47.547157" lon="7.674035">
        <ele>260.129268</ele>
        <time>2021-11-22T15:31:23.594Z</time>
      </trkpt>
      <trkpt lat="47.547130" lon="7.674170">
        <ele>260.162788</ele>
        <time>2021-11-22T15:31:25.402Z</time>
      </trkpt>
      <trkpt lat="47.546219" lon="7.677720">
        <ele>261.978774</ele>
        <time>2021-11-22T15:32:10.122Z</time>
      </trkpt>
      <trkpt lat="47.546195" lon="7.677846">
        <ele>262.059380</ele>
        <time>2021-11-22T15:32:11.462Z</time>
      </trkpt>
      <trkpt lat="47.546177" lon="7.677946">
        <ele>262.123100</ele>
        <time>2021-11-22T15:32:12.913Z</time>
      </trkpt>
      <trkpt lat="47.545897" lon="7.679076">
        <ele>262.864224</ele>
        <time>2021-11-22T15:32:28.828Z</time>
      </trkpt>
      <trkpt lat="47.545501" lon="7.680150">
        <ele>263.689361</ele>
        <time>2021-11-22T15:32:44.519Z</time>
      </trkpt>
      <trkpt lat="47.545417" lon="7.680396">
        <ele>263.877444</ele>
        <time>2021-11-22T15:32:48.334Z</time>
      </trkpt>
      <trkpt lat="47.545322" lon="7.680711">
        <ele>264.112824</ele>
        <time>2021-11-22T15:32:52.477Z</time>
      </trkpt>
      <trkpt lat="47.544970" lon="7.682061">
        <ele>265.014290</ele>
        <time>2021-11-22T15:33:10.555Z</time>
      </trkpt>
      <trkpt lat="47.544988" lon="7.682143">
        <ele>265.057696</ele>
        <time>2021-11-22T15:33:11.539Z</time>
      </trkpt>
      <trkpt lat="47.544842" lon="7.682691">
        <ele>265.354258</ele>
        <time>2021-11-22T15:33:18.503Z</time>
      </trkpt>
      <trkpt lat="47.544706" lon="7.683296">
        <ele>265.675249</ele>
        <time>2021-11-22T15:33:25.880Z</time>
      </trkpt>
      <trkpt lat="47.544626" lon="7.683667">
        <ele>265.871302</ele>
        <time>2021-11-22T15:33:30.393Z</time>
      </trkpt>
      <trkpt lat="47.544559" lon="7.684001">
        <ele>266.046699</ele>
        <time>2021-11-22T15:33:34.687Z</time>
      </trkpt>
      <trkpt lat="47.544493" lon="7.684340">
        <ele>266.205284</ele>
        <time>2021-11-22T15:33:39.052Z</time>
      </trkpt>
      <trkpt lat="47.544439" lon="7.684615">
        <ele>266.324619</ele>
        <time>2021-11-22T15:33:42.740Z</time>
      </trkpt>
      <trkpt lat="47.544438" lon="7.684734">
        <ele>266.374207</ele>
        <time>2021-11-22T15:33:44.239Z</time>
      </trkpt>
      <trkpt lat="47.544434" lon="7.684888">
        <ele>266.438422</ele>
        <time>2021-11-22T15:33:46.424Z</time>
      </trkpt>
      <trkpt lat="47.544310" lon="7.686004">
        <ele>266.909687</ele>
        <time>2021-11-22T15:33:59.970Z</time>
      </trkpt>
      <trkpt lat="47.544128" lon="7.687068">
        <ele>267.203171</ele>
        <time>2021-11-22T15:34:11.451Z</time>
      </trkpt>
      <trkpt lat="47.544057" lon="7.687517">
        <ele>267.174956</ele>
        <time>2021-11-22T15:34:16.087Z</time>
      </trkpt>
      <trkpt lat="47.543979" lon="7.687928">
        <ele>267.148835</ele>
        <time>2021-11-22T15:34:20.271Z</time>
      </trkpt>
      <trkpt lat="47.543887" lon="7.688428">
        <ele>267.117128</ele>
        <time>2021-11-22T15:34:25.295Z</time>
      </trkpt>
      <trkpt lat="47.543849" lon="7.688664">
        <ele>267.102284</ele>
        <time>2021-11-22T15:34:27.731Z</time>
      </trkpt>
      <trkpt lat="47.543756" lon="7.689554">
        <ele>267.101309</ele>
        <time>2021-11-22T15:34:35.691Z</time>
      </trkpt>
      <trkpt lat="47.543747" lon="7.689674">
        <ele>267.122595</ele>
        <time>2021-11-22T15:34:37.007Z</time>
      </trkpt>
      <trkpt lat="47.543719" lon="7.690293">
        <ele>267.231968</ele>
        <time>2021-11-22T15:34:43.382Z</time>
      </trkpt>
      <trkpt lat="47.543718" lon="7.690373">
        <ele>267.246074</ele>
        <time>2021-11-22T15:34:44.228Z</time>
      </trkpt>
      <trkpt lat="47.543695" lon="7.691028">
        <ele>267.361705</ele>
        <time>2021-11-22T15:34:51.743Z</time>
      </trkpt>
      <trkpt lat="47.543669" lon="7.691801">
        <ele>267.498152</ele>
        <time>2021-11-22T15:35:00.944Z</time>
      </trkpt>
      <trkpt lat="47.543652" lon="7.692147">
        <ele>267.534518</ele>
        <time>2021-11-22T15:35:04.521Z</time>
      </trkpt>
      <trkpt lat="47.543627" lon="7.692460">
        <ele>267.541629</ele>
        <time>2021-11-22T15:35:08.109Z</time>
      </trkpt>
      <trkpt lat="47.543515" lon="7.693372">
        <ele>267.562541</ele>
        <time>2021-11-22T15:35:17.766Z</time>
      </trkpt>
      <trkpt lat="47.543315" lon="7.694525">
        <ele>267.589398</ele>
        <time>2021-11-22T15:35:29.338Z</time>
      </trkpt>
      <trkpt lat="47.543147" lon="7.695557">
        <ele>267.475466</ele>
        <time>2021-11-22T15:35:38.617Z</time>
      </trkpt>
      <trkpt lat="47.542960" lon="7.696989">
        <ele>267.305424</ele>
        <time>2021-11-22T15:35:52.755Z</time>
      </trkpt>
      <trkpt lat="47.542902" lon="7.697537">
        <ele>267.367744</ele>
        <time>2021-11-22T15:35:58.751Z</time>
      </trkpt>
      <trkpt lat="47.542740" lon="7.698914">
        <ele>267.727364</ele>
        <time>2021-11-22T15:36:14.501Z</time>
      </trkpt>
      <trkpt lat="47.542682" lon="7.699476">
        <ele>267.873639</ele>
        <time>2021-11-22T15:36:20.988Z</time>
      </trkpt>
      <trkpt lat="47.542651" lon="7.699916">
        <ele>267.976882</ele>
        <time>2021-11-22T15:36:25.989Z</time>
      </trkpt>
      <trkpt lat="47.542660" lon="7.700609">
        <ele>268.067768</ele>
        <time>2021-11-22T15:36:33.712Z</time>
      </trkpt>
      <trkpt lat="47.542766" lon="7.702209">
        <ele>268.278574</ele>
        <time>2021-11-22T15:36:50.113Z</time>
      </trkpt>
      <trkpt lat="47.542785" lon="7.702499">
        <ele>268.314620</ele>
        <time>2021-11-22T15:36:53.009Z</time>
      </trkpt>
      <trkpt lat="47.542833" lon="7.702609">
        <ele>268.307252</ele>
        <time>2021-11-22T15:36:54.253Z</time>
      </trkpt>
      <trkpt lat="47.542922" lon="7.702619">
        <ele>268.299814</ele>
        <time>2021-11-22T15:36:55.665Z</time>
      </trkpt>
      <trkpt lat="47.542979" lon="7.703226">
        <ele>268.265341</ele>
        <time>2021-11-22T15:37:02.024Z</time>
      </trkpt>
      <trkpt lat="47.543030" lon="7.703676">
        <ele>268.239673</ele>
        <time>2021-11-22T15:37:06.552Z</time>
      </trkpt>
      <trkpt lat="47.543146" lon="7.704707">
        <ele>268.180878</ele>
        <time>2021-11-22T15:37:16.676Z</time>
      </trkpt>
      <trkpt lat="47.543153" lon="7.704762">
        <ele>268.177729</ele>
        <time>2021-11-22T15:37:17.205Z</time>
      </trkpt>
      <trkpt lat="47.543166" lon="7.704863">
        <ele>268.171945</ele>
        <time>2021-11-22T15:37:18.135Z</time>
      </trkpt>
      <trkpt lat="47.543179" lon="7.704985">
        <ele>268.162680</ele>
        <time>2021-11-22T15:37:19.746Z</time>
      </trkpt>
      <trkpt lat="47.543192" lon="7.705107">
        <ele>268.114087</ele>
        <time>2021-11-22T15:37:21.344Z</time>
      </trkpt>
      <trkpt lat="47.543280" lon="7.705893">
        <ele>267.800629</ele>
        <time>2021-11-22T15:37:28.525Z</time>
      </trkpt>
      <trkpt lat="47.543360" lon="7.706664">
        <ele>267.493734</ele>
        <time>2021-11-22T15:37:35.585Z</time>
      </trkpt>
      <trkpt lat="47.543343" lon="7.707367">
        <ele>267.216978</ele>
        <time>2021-11-22T15:37:41.803Z</time>
      </trkpt>
      <trkpt lat="47.543080" lon="7.709103">
        <ele>265.713461</ele>
        <time>2021-11-22T15:37:56.171Z</time>
      </trkpt>
      <trkpt lat="47.542885" lon="7.709631">
        <ele>265.159606</ele>
        <time>2021-11-22T15:38:00.775Z</time>
      </trkpt>
      <trkpt lat="47.542797" lon="7.709757">
        <ele>264.992764</ele>
        <time>2021-11-22T15:38:02.099Z</time>
      </trkpt>
      <trkpt lat="47.542709" lon="7.709872">
        <ele>264.832791</ele>
        <time>2021-11-22T15:38:03.438Z</time>
      </trkpt>
      <trkpt lat="47.542638" lon="7.709956">
        <ele>264.708920</ele>
        <time>2021-11-22T15:38:04.526Z</time>
      </trkpt>
      <trkpt lat="47.542559" lon="7.710042">
        <ele>264.544860</ele>
        <time>2021-11-22T15:38:05.581Z</time>
      </trkpt>
      <trkpt lat="47.542559" lon="7.710042">
        <ele>264.544860</ele>
        <time>2021-11-22T15:38:05.585Z</time>
      </trkpt>
      <trkpt lat="47.542559" lon="7.710042">
        <ele>264.544860</ele>
        <time>2021-11-22T15:38:05.622Z</time>
      </trkpt>
      <trkpt lat="47.542526" lon="7.710079">
        <ele>264.469337</ele>
        <time>2021-11-22T15:38:06.050Z</time>
      </trkpt>
      <trkpt lat="47.542440" lon="7.710127">
        <ele>264.301633</ele>
        <time>2021-11-22T15:38:07.121Z</time>
      </trkpt>
      <trkpt lat="47.542315" lon="7.710174">
        <ele>264.066297</ele>
        <time>2021-11-22T15:38:08.601Z</time>
      </trkpt>
      <trkpt lat="47.542178" lon="7.710226">
        <ele>263.808220</ele>
        <time>2021-11-22T15:38:10.109Z</time>
      </trkpt>
      <trkpt lat="47.541354" lon="7.710467">
        <ele>262.275536</ele>
        <time>2021-11-22T15:38:19.284Z</time>
      </trkpt>
      <trkpt lat="47.540817" lon="7.710444">
        <ele>261.343449</ele>
        <time>2021-11-22T15:38:25.278Z</time>
      </trkpt>
      <trkpt lat="47.540498" lon="7.710323">
        <ele>261.073240</ele>
        <time>2021-11-22T15:38:29.302Z</time>
      </trkpt>
      <trkpt lat="47.540428" lon="7.710280">
        <ele>261.011057</ele>
        <time>2021-11-22T15:38:30.162Z</time>
      </trkpt>
      <trkpt lat="47.540229" lon="7.710170">
        <ele>260.836764</ele>
        <time>2021-11-22T15:38:32.909Z</time>
      </trkpt>
      <trkpt lat="47.539719" lon="7.709665">
        <ele>260.333380</ele>
        <time>2021-11-22T15:38:40.739Z</time>
      </trkpt>
      <trkpt lat="47.539646" lon="7.709593">
        <ele>260.261414</ele>
        <time>2021-11-22T15:38:41.915Z</time>
      </trkpt>
      <trkpt lat="47.539636" lon="7.709576">
        <ele>260.248924</ele>
        <time>2021-11-22T15:38:42.118Z</time>
      </trkpt>
      <trkpt lat="47.539021" lon="7.708561">
        <ele>259.795842</ele>
        <time>2021-11-22T15:38:54.751Z</time>
      </trkpt>
      <trkpt lat="47.538687" lon="7.707698">
        <ele>259.647785</ele>
        <time>2021-11-22T15:39:04.401Z</time>
      </trkpt>
      <trkpt lat="47.538663" lon="7.707476">
        <ele>259.614323</ele>
        <time>2021-11-22T15:39:06.579Z</time>
      </trkpt>
      <trkpt lat="47.538403" lon="7.706790">
        <ele>259.506856</ele>
        <time>2021-11-22T15:39:13.850Z</time>
      </trkpt>
      <trkpt lat="47.538239" lon="7.706913">
        <ele>259.495927</ele>
        <time>2021-11-22T15:39:16.366Z</time>
      </trkpt>
      <trkpt lat="47.536551" lon="7.708325">
        <ele>260.044727</ele>
        <time>2021-11-22T15:39:55.185Z</time>
      </trkpt>
      <trkpt lat="47.536506" lon="7.708376">
        <ele>260.139464</ele>
        <time>2021-11-22T15:39:56.744Z</time>
      </trkpt>
      <trkpt lat="47.536244" lon="7.708596">
        <ele>260.643019</ele>
        <time>2021-11-22T15:40:03.813Z</time>
      </trkpt>
      <trkpt lat="47.536866" lon="7.710249">
        <ele>262.855883</ele>
        <time>2021-11-22T15:40:43.076Z</time>
      </trkpt>
      <trkpt lat="47.536654" lon="7.710426">
        <ele>263.347517</ele>
        <time>2021-11-22T15:40:50.665Z</time>
      </trkpt>
      <trkpt lat="47.536503" lon="7.710555">
        <ele>263.699669</ele>
        <time>2021-11-22T15:41:11.646Z</time>
      </trkpt>
      <trkpt lat="47.536434" lon="7.710627">
        <ele>263.870180</ele>
        <time>2021-11-22T15:41:14.204Z</time>
      </trkpt>
      <trkpt lat="47.536351" lon="7.710783">
        <ele>264.141076</ele>
        <time>2021-11-22T15:41:18.207Z</time>
      </trkpt>
      <trkpt lat="47.536587" lon="7.711300">
        <ele>264.992259</ele>
        <time>2021-11-22T15:41:30.293Z</time>
      </trkpt>
      <trkpt lat="47.536914" lon="7.712167">
        <ele>265.989339</ele>
        <time>2021-11-22T15:41:48.368Z</time>
      </trkpt>
      <trkpt lat="47.536944" lon="7.712258">
        <ele>265.964179</ele>
        <time>2021-11-22T15:41:49.933Z</time>
      </trkpt>
      <trkpt lat="47.537049" lon="7.712536">
        <ele>265.885037</ele>
        <time>2021-11-22T15:41:54.364Z</time>
      </trkpt>
      <trkpt lat="47.537078" lon="7.712647">
        <ele>265.855467</ele>
        <time>2021-11-22T15:41:55.807Z</time>
      </trkpt>
      <trkpt lat="47.537200" lon="7.713102">
        <ele>265.733835</ele>
        <time>2021-11-22T15:42:01.340Z</time>
      </trkpt>
      <trkpt lat="47.537252" lon="7.713332">
        <ele>265.673574</ele>
        <time>2021-11-22T15:42:04.113Z</time>
      </trkpt>
      <trkpt lat="47.537287" lon="7.713488">
        <ele>265.632733</ele>
        <time>2021-11-22T15:42:05.967Z</time>
      </trkpt>
      <trkpt lat="47.537373" lon="7.713866">
        <ele>265.533631</ele>
        <time>2021-11-22T15:42:10.492Z</time>
      </trkpt>
      <trkpt lat="47.537410" lon="7.714028">
        <ele>265.491143</ele>
        <time>2021-11-22T15:42:12.454Z</time>
      </trkpt>
      <trkpt lat="47.537437" lon="7.714141">
        <ele>265.461362</ele>
        <time>2021-11-22T15:42:13.812Z</time>
      </trkpt>
      <trkpt lat="47.537445" lon="7.714177">
        <ele>265.451946</ele>
        <time>2021-11-22T15:42:14.268Z</time>
      </trkpt>
      <trkpt lat="47.537574" lon="7.714861">
        <ele>265.543496</ele>
        <time>2021-11-22T15:42:23.421Z</time>
      </trkpt>
      <trkpt lat="47.537628" lon="7.715098">
        <ele>265.636997</ele>
        <time>2021-11-22T15:42:26.739Z</time>
      </trkpt>
      <trkpt lat="47.537691" lon="7.715385">
        <ele>265.749807</ele>
        <time>2021-11-22T15:42:31.322Z</time>
      </trkpt>
      <trkpt lat="47.537682" lon="7.715689">
        <ele>265.863552</ele>
        <time>2021-11-22T15:42:35.428Z</time>
      </trkpt>
      <trkpt lat="47.537665" lon="7.715878">
        <ele>265.934825</ele>
        <time>2021-11-22T15:42:38.268Z</time>
      </trkpt>
      <trkpt lat="47.537708" lon="7.716118">
        <ele>266.027644</ele>
        <time>2021-11-22T15:42:41.898Z</time>
      </trkpt>
      <trkpt lat="47.537786" lon="7.716325">
        <ele>266.116258</ele>
        <time>2021-11-22T15:42:45.469Z</time>
      </trkpt>
      <trkpt lat="47.537834" lon="7.716383">
        <ele>266.150556</ele>
        <time>2021-11-22T15:42:47.408Z</time>
      </trkpt>
      <trkpt lat="47.537984" lon="7.716489">
        <ele>266.242578</ele>
        <time>2021-11-22T15:42:51.529Z</time>
      </trkpt>
      <trkpt lat="47.537987" lon="7.716490">
        <ele>266.244281</ele>
        <time>2021-11-22T15:42:51.766Z</time>
      </trkpt>
      <trkpt lat="47.538102" lon="7.716534">
        <ele>266.310046</ele>
        <time>2021-11-22T15:42:54.615Z</time>
      </trkpt>
      <trkpt lat="47.538239" lon="7.716580">
        <ele>266.406754</ele>
        <time>2021-11-22T15:42:59.049Z</time>
      </trkpt>
      <trkpt lat="47.538459" lon="7.717007">
        <ele>267.010956</ele>
        <time>2021-11-22T15:43:09.513Z</time>
      </trkpt>
      <trkpt lat="47.538708" lon="7.717692">
        <ele>267.886063</ele>
        <time>2021-11-22T15:43:24.327Z</time>
      </trkpt>
      <trkpt lat="47.538787" lon="7.718061">
        <ele>268.321497</ele>
        <time>2021-11-22T15:43:31.935Z</time>
      </trkpt>
      <trkpt lat="47.538796" lon="7.718297">
        <ele>268.587380</ele>
        <time>2021-11-22T15:43:36.004Z</time>
      </trkpt>
      <trkpt lat="47.538843" lon="7.718730">
        <ele>269.080685</ele>
        <time>2021-11-22T15:43:43.737Z</time>
      </trkpt>
      <trkpt lat="47.538928" lon="7.719478">
        <ele>269.654907</ele>
        <time>2021-11-22T15:43:55.704Z</time>
      </trkpt>
      <trkpt lat="47.538952" lon="7.719661">
        <ele>269.759873</ele>
        <time>2021-11-22T15:43:58.560Z</time>
      </trkpt>
      <trkpt lat="47.538974" lon="7.719868">
        <ele>269.877861</ele>
        <time>2021-11-22T15:44:01.563Z</time>
      </trkpt>
      <trkpt lat="47.539020" lon="7.720107">
        <ele>270.017793</ele>
        <time>2021-11-22T15:44:05.609Z</time>
      </trkpt>
      <trkpt lat="47.539077" lon="7.720239">
        <ele>270.106021</ele>
        <time>2021-11-22T15:44:07.934Z</time>
      </trkpt>
      <trkpt lat="47.539274" lon="7.720867">
        <ele>270.495928</ele>
        <time>2021-11-22T15:44:18.639Z</time>
      </trkpt>
      <trkpt lat="47.539484" lon="7.721575">
        <ele>270.941800</ele>
        <time>2021-11-22T15:44:31.361Z</time>
      </trkpt>
      <trkpt lat="47.539552" lon="7.721771">
        <ele>271.089071</ele>
        <time>2021-11-22T15:44:34.843Z</time>
      </trkpt>
      <trkpt lat="47.539552" lon="7.721771">
        <ele>271.089071</ele>
        <time>2021-11-22T15:44:34.846Z</time>
      </trkpt>
      <trkpt lat="47.539552" lon="7.721771">
        <ele>271.089071</ele>
        <time>2021-11-22T15:44:34.877Z</time>
      </trkpt>
      <trkpt lat="47.539330" lon="7.721781">
        <ele>271.308939</ele>
        <time>2021-11-22T15:44:39.187Z</time>
      </trkpt>
      <trkpt lat="47.539026" lon="7.721794">
        <ele>271.610007</ele>
        <time>2021-11-22T15:44:44.788Z</time>
      </trkpt>
      <trkpt lat="47.538548" lon="7.721812">
        <ele>272.083352</ele>
        <time>2021-11-22T15:44:53.991Z</time>
      </trkpt>
      <trkpt lat="47.538162" lon="7.721802">
        <ele>272.465528</ele>
        <time>2021-11-22T15:45:01.699Z</time>
      </trkpt>
      <trkpt lat="47.537750" lon="7.721731">
        <ele>272.743851</ele>
        <time>2021-11-22T15:45:11.302Z</time>
      </trkpt>
      <trkpt lat="47.537550" lon="7.721693">
        <ele>272.823517</ele>
        <time>2021-11-22T15:45:14.988Z</time>
      </trkpt>
      <trkpt lat="47.537550" lon="7.721693">
        <ele>272.823517</ele>
        <time>2021-11-22T15:45:14.994Z</time>
      </trkpt>
      <trkpt lat="47.537539" lon="7.721893">
        <ele>272.877041</ele>
        <time>2021-11-22T15:45:19.216Z</time>
      </trkpt>
      <trkpt lat="47.537870" lon="7.722718">
        <ele>273.133022</ele>
        <time>2021-11-22T15:45:28.917Z</time>
      </trkpt>
      <trkpt lat="47.537956" lon="7.722967">
        <ele>273.207625</ele>
        <time>2021-11-22T15:45:31.012Z</time>
      </trkpt>
      <trkpt lat="47.538163" lon="7.723558">
        <ele>273.406651</ele>
        <time>2021-11-22T15:45:37.249Z</time>
      </trkpt>
      <trkpt lat="47.538218" lon="7.723728">
        <ele>273.514916</ele>
        <time>2021-11-22T15:45:43.348Z</time>
      </trkpt>
      <trkpt lat="47.538235" lon="7.723781">
        <ele>273.548616</ele>
        <time>2021-11-22T15:45:43.856Z</time>
      </trkpt>
      <trkpt lat="47.538245" lon="7.723814">
        <ele>273.569390</ele>
        <time>2021-11-22T15:45:44.056Z</time>
      </trkpt>
      <trkpt lat="47.538309" lon="7.724021">
        <ele>273.700146</ele>
        <time>2021-11-22T15:45:45.742Z</time>
      </trkpt>
      <trkpt lat="47.538367" lon="7.724211">
        <ele>273.819902</ele>
        <time>2021-11-22T15:45:52.678Z</time>
      </trkpt>
      <trkpt lat="47.538545" lon="7.724720">
        <ele>274.149116</ele>
        <time>2021-11-22T15:46:00.576Z</time>
      </trkpt>
      <trkpt lat="47.538991" lon="7.726086">
        <ele>275.397418</ele>
        <time>2021-11-22T15:46:23.671Z</time>
      </trkpt>
      <trkpt lat="47.539334" lon="7.727155">
        <ele>278.146301</ele>
        <time>2021-11-22T15:46:49.661Z</time>
      </trkpt>
      <trkpt lat="47.539469" lon="7.727605">
        <ele>279.289959</ele>
        <time>2021-11-22T15:47:02.149Z</time>
      </trkpt>
      <trkpt lat="47.539460" lon="7.727657">
        <ele>279.414633</ele>
        <time>2021-11-22T15:47:03.459Z</time>
      </trkpt>
      <trkpt lat="47.539460" lon="7.727657">
        <ele>279.414633</ele>
        <time>2021-11-22T15:47:03.509Z</time>
      </trkpt>
      <trkpt lat="47.539446" lon="7.727722">
        <ele>279.573090</ele>
        <time>2021-11-22T15:47:05.369Z</time>
      </trkpt>
      <trkpt lat="47.539426" lon="7.727765">
        <ele>279.694364</ele>
        <time>2021-11-22T15:47:06.806Z</time>
      </trkpt>
      <trkpt lat="47.539384" lon="7.727813">
        <ele>279.876861</ele>
        <time>2021-11-22T15:47:08.792Z</time>
      </trkpt>
      <trkpt lat="47.539067" lon="7.728082">
        <ele>281.141693</ele>
        <time>2021-11-22T15:47:21.375Z</time>
      </trkpt>
      <trkpt lat="47.538783" lon="7.728228">
        <ele>282.344165</ele>
        <time>2021-11-22T15:47:32.143Z</time>
      </trkpt>
      <trkpt lat="47.538627" lon="7.728269">
        <ele>282.977913</ele>
        <time>2021-11-22T15:47:36.916Z</time>
      </trkpt>
      <trkpt lat="47.538549" lon="7.728263">
        <ele>283.290335</ele>
        <time>2021-11-22T15:47:40.067Z</time>
      </trkpt>
      <trkpt lat="47.538538" lon="7.728334">
        <ele>283.487046</ele>
        <time>2021-11-22T15:47:41.827Z</time>
      </trkpt>
      <trkpt lat="47.538527" lon="7.728380">
        <ele>283.618826</ele>
        <time>2021-11-22T15:47:43.008Z</time>
      </trkpt>
      <trkpt lat="47.538474" lon="7.728435">
        <ele>283.877676</ele>
        <time>2021-11-22T15:47:45.460Z</time>
      </trkpt>
      <trkpt lat="47.538188" lon="7.728631">
        <ele>285.138183</ele>
        <time>2021-11-22T15:47:55.965Z</time>
      </trkpt>
      <trkpt lat="47.538156" lon="7.728744">
        <ele>285.469088</ele>
        <time>2021-11-22T15:47:58.635Z</time>
      </trkpt>
      <trkpt lat="47.538211" lon="7.729041">
        <ele>286.300735</ele>
        <time>2021-11-22T15:48:05.351Z</time>
      </trkpt>
      <trkpt lat="47.538275" lon="7.729744">
        <ele>288.216300</ele>
        <time>2021-11-22T15:48:20.884Z</time>
      </trkpt>
      <trkpt lat="47.538339" lon="7.730082">
        <ele>288.325339</ele>
        <time>2021-11-22T15:48:27.213Z</time>
      </trkpt>
      <trkpt lat="47.538512" lon="7.730958">
        <ele>288.453963</ele>
        <time>2021-11-22T15:48:40.740Z</time>
      </trkpt>
      <trkpt lat="47.538887" lon="7.732454">
        <ele>288.568722</ele>
        <time>2021-11-22T15:48:59.999Z</time>
      </trkpt>
      <trkpt lat="47.539178" lon="7.733656">
        <ele>287.931054</ele>
        <time>2021-11-22T15:49:15.067Z</time>
      </trkpt>
      <trkpt lat="47.539263" lon="7.733885">
        <ele>287.800554</ele>
        <time>2021-11-22T15:49:18.186Z</time>
      </trkpt>
      <trkpt lat="47.539305" lon="7.734151">
        <ele>287.664138</ele>
        <time>2021-11-22T15:49:21.411Z</time>
      </trkpt>
      <trkpt lat="47.540032" lon="7.737141">
        <ele>287.027443</ele>
        <time>2021-11-22T15:50:01.839Z</time>
      </trkpt>
      <trkpt lat="47.540388" lon="7.739213">
        <ele>288.459816</ele>
        <time>2021-11-22T15:50:37.877Z</time>
      </trkpt>
      <trkpt lat="47.540394" lon="7.739259">
        <ele>288.494338</ele>
        <time>2021-11-22T15:50:39.546Z</time>
      </trkpt>
      <trkpt lat="47.540387" lon="7.739372">
        <ele>288.577952</ele>
        <time>2021-11-22T15:50:41.403Z</time>
      </trkpt>
      <trkpt lat="47.540372" lon="7.739490">
        <ele>288.666428</ele>
        <time>2021-11-22T15:50:43.226Z</time>
      </trkpt>
      <trkpt lat="47.540374" lon="7.739620">
        <ele>288.762242</ele>
        <time>2021-11-22T15:50:45.294Z</time>
      </trkpt>
      <trkpt lat="47.540438" lon="7.740453">
        <ele>289.247914</ele>
        <time>2021-11-22T15:50:59.793Z</time>
      </trkpt>
      <trkpt lat="47.540552" lon="7.742240">
        <ele>290.143586</ele>
        <time>2021-11-22T15:51:27.684Z</time>
      </trkpt>
      <trkpt lat="47.540589" lon="7.742558">
        <ele>290.300205</ele>
        <time>2021-11-22T15:51:32.218Z</time>
      </trkpt>
      <trkpt lat="47.540617" lon="7.742875">
        <ele>290.295799</ele>
        <time>2021-11-22T15:51:36.598Z</time>
      </trkpt>
      <trkpt lat="47.540738" lon="7.743641">
        <ele>290.284956</ele>
        <time>2021-11-22T15:51:47.119Z</time>
      </trkpt>
      <trkpt lat="47.540913" lon="7.744421">
        <ele>290.273627</ele>
        <time>2021-11-22T15:51:57.800Z</time>
      </trkpt>
      <trkpt lat="47.541019" lon="7.744859">
        <ele>290.267214</ele>
        <time>2021-11-22T15:52:03.964Z</time>
      </trkpt>
      <trkpt lat="47.541038" lon="7.744940">
        <ele>290.266032</ele>
        <time>2021-11-22T15:52:05.078Z</time>
      </trkpt>
      <trkpt lat="47.541130" lon="7.745083">
        <ele>290.262957</ele>
        <time>2021-11-22T15:52:08.156Z</time>
      </trkpt>
      <trkpt lat="47.541148" lon="7.745144">
        <ele>290.260928</ele>
        <time>2021-11-22T15:52:09.058Z</time>
      </trkpt>
      <trkpt lat="47.541160" lon="7.745250">
        <ele>290.257653</ele>
        <time>2021-11-22T15:52:10.462Z</time>
      </trkpt>
      <trkpt lat="47.541167" lon="7.745463">
        <ele>290.251154</ele>
        <time>2021-11-22T15:52:13.451Z</time>
      </trkpt>
      <trkpt lat="47.541432" lon="7.746552">
        <ele>290.215879</ele>
        <time>2021-11-22T15:52:29.225Z</time>
      </trkpt>
      <trkpt lat="47.541511" lon="7.746885">
        <ele>290.205123</ele>
        <time>2021-11-22T15:52:33.790Z</time>
      </trkpt>
      <trkpt lat="47.541583" lon="7.747186">
        <ele>290.195391</ele>
        <time>2021-11-22T15:52:38.045Z</time>
      </trkpt>
      <trkpt lat="47.541758" lon="7.747784">
        <ele>290.179499</ele>
        <time>2021-11-22T15:52:46.665Z</time>
      </trkpt>
      <trkpt lat="47.542132" lon="7.748742">
        <ele>290.165239</ele>
        <time>2021-11-22T15:53:02.155Z</time>
      </trkpt>
      <trkpt lat="47.542347" lon="7.749227">
        <ele>290.157763</ele>
        <time>2021-11-22T15:53:10.528Z</time>
      </trkpt>
      <trkpt lat="47.542390" lon="7.749307">
        <ele>290.156445</ele>
        <time>2021-11-22T15:53:11.822Z</time>
      </trkpt>
      <trkpt lat="47.542614" lon="7.749755">
        <ele>290.149262</ele>
        <time>2021-11-22T15:53:17.209Z</time>
      </trkpt>
      <trkpt lat="47.543033" lon="7.750614">
        <ele>289.796739</ele>
        <time>2021-11-22T15:53:27.016Z</time>
      </trkpt>
      <trkpt lat="47.543115" lon="7.750826">
        <ele>289.708025</ele>
        <time>2021-11-22T15:53:29.243Z</time>
      </trkpt>
      <trkpt lat="47.543222" lon="7.751091">
        <ele>289.595911</ele>
        <time>2021-11-22T15:53:33.127Z</time>
      </trkpt>
      <trkpt lat="47.543222" lon="7.751091">
        <ele>289.595911</ele>
        <time>2021-11-22T15:53:33.132Z</time>
      </trkpt>
      <trkpt lat="47.543319" lon="7.751355">
        <ele>289.486779</ele>
        <time>2021-11-22T15:53:35.942Z</time>
      </trkpt>
      <trkpt lat="47.543798" lon="7.753068">
        <ele>288.120008</ele>
        <time>2021-11-22T15:53:51.415Z</time>
      </trkpt>
      <trkpt lat="47.544022" lon="7.753705">
        <ele>287.366486</ele>
        <time>2021-11-22T15:53:57.109Z</time>
      </trkpt>
      <trkpt lat="47.545021" lon="7.756243">
        <ele>282.568660</ele>
        <time>2021-11-22T15:54:18.214Z</time>
      </trkpt>
      <trkpt lat="47.545260" lon="7.756637">
        <ele>281.559156</ele>
        <time>2021-11-22T15:54:21.706Z</time>
      </trkpt>
      <trkpt lat="47.545304" lon="7.756852">
        <ele>281.118767</ele>
        <time>2021-11-22T15:54:23.155Z</time>
      </trkpt>
      <trkpt lat="47.545326" lon="7.756949">
        <ele>280.910206</ele>
        <time>2021-11-22T15:54:24.165Z</time>
      </trkpt>
      <trkpt lat="47.545360" lon="7.757065">
        <ele>280.652456</ele>
        <time>2021-11-22T15:54:25.425Z</time>
      </trkpt>
      <trkpt lat="47.545429" lon="7.757231">
        <ele>280.255125</ele>
        <time>2021-11-22T15:54:26.666Z</time>
      </trkpt>
      <trkpt lat="47.545677" lon="7.757815">
        <ele>278.848906</ele>
        <time>2021-11-22T15:54:31.330Z</time>
      </trkpt>
      <trkpt lat="47.545911" lon="7.758393">
        <ele>277.475240</ele>
        <time>2021-11-22T15:54:35.953Z</time>
      </trkpt>
      <trkpt lat="47.546264" lon="7.759224">
        <ele>275.866221</ele>
        <time>2021-11-22T15:54:42.978Z</time>
      </trkpt>
      <trkpt lat="47.546312" lon="7.759326">
        <ele>275.859865</ele>
        <time>2021-11-22T15:54:43.972Z</time>
      </trkpt>
      <trkpt lat="47.546552" lon="7.759727">
        <ele>275.832471</ele>
        <time>2021-11-22T15:54:48.609Z</time>
      </trkpt>
      <trkpt lat="47.546804" lon="7.760164">
        <ele>275.803091</ele>
        <time>2021-11-22T15:54:54.147Z</time>
      </trkpt>
      <trkpt lat="47.546870" lon="7.760301">
        <ele>275.794488</ele>
        <time>2021-11-22T15:54:56.148Z</time>
      </trkpt>
      <trkpt lat="47.546948" lon="7.760482">
        <ele>275.783511</ele>
        <time>2021-11-22T15:54:58.701Z</time>
      </trkpt>
      <trkpt lat="47.546989" lon="7.760612">
        <ele>275.776176</ele>
        <time>2021-11-22T15:55:00.365Z</time>
      </trkpt>
      <trkpt lat="47.547194" lon="7.761352">
        <ele>275.839185</ele>
        <time>2021-11-22T15:55:10.829Z</time>
      </trkpt>
      <trkpt lat="47.547577" lon="7.762307">
        <ele>277.008547</ele>
        <time>2021-11-22T15:55:26.868Z</time>
      </trkpt>
      <trkpt lat="47.547596" lon="7.762344">
        <ele>277.057487</ele>
        <time>2021-11-22T15:55:27.632Z</time>
      </trkpt>
      <trkpt lat="47.547778" lon="7.762713">
        <ele>277.538574</ele>
        <time>2021-11-22T15:55:34.423Z</time>
      </trkpt>
      <trkpt lat="47.547848" lon="7.762928">
        <ele>277.789850</ele>
        <time>2021-11-22T15:55:38.021Z</time>
      </trkpt>
      <trkpt lat="47.547909" lon="7.763208">
        <ele>278.099568</ele>
        <time>2021-11-22T15:55:42.636Z</time>
      </trkpt>
      <trkpt lat="47.548565" lon="7.765680">
        <ele>280.114159</ele>
        <time>2021-11-22T15:56:19.222Z</time>
      </trkpt>
      <trkpt lat="47.548990" lon="7.767248">
        <ele>279.692233</ele>
        <time>2021-11-22T15:56:34.579Z</time>
      </trkpt>
      <trkpt lat="47.549184" lon="7.768021">
        <ele>279.216591</ele>
        <time>2021-11-22T15:56:40.962Z</time>
      </trkpt>
      <trkpt lat="47.549363" lon="7.768846">
        <ele>278.707615</ele>
        <time>2021-11-22T15:56:47.625Z</time>
      </trkpt>
      <trkpt lat="47.549678" lon="7.770148">
        <ele>277.865224</ele>
        <time>2021-11-22T15:56:59.209Z</time>
      </trkpt>
      <trkpt lat="47.549714" lon="7.770276">
        <ele>277.780768</ele>
        <time>2021-11-22T15:57:00.337Z</time>
      </trkpt>
      <trkpt lat="47.549845" lon="7.770734">
        <ele>277.477809</ele>
        <time>2021-11-22T15:57:04.715Z</time>
      </trkpt>
      <trkpt lat="47.550069" lon="7.771373">
        <ele>277.167412</ele>
        <time>2021-11-22T15:57:11.164Z</time>
      </trkpt>
      <trkpt lat="47.550199" lon="7.772076">
        <ele>276.983898</ele>
        <time>2021-11-22T15:57:18.001Z</time>
      </trkpt>
      <trkpt lat="47.550203" lon="7.772543">
        <ele>276.866314</ele>
        <time>2021-11-22T15:57:22.390Z</time>
      </trkpt>
      <trkpt lat="47.550061" lon="7.773283">
        <ele>276.672624</ele>
        <time>2021-11-22T15:57:29.639Z</time>
      </trkpt>
      <trkpt lat="47.550090" lon="7.773646">
        <ele>276.578652</ele>
        <time>2021-11-22T15:57:32.918Z</time>
      </trkpt>
      <trkpt lat="47.550320" lon="7.774602">
        <ele>276.242932</ele>
        <time>2021-11-22T15:57:41.794Z</time>
      </trkpt>
      <trkpt lat="47.550505" lon="7.775364">
        <ele>275.975065</ele>
        <time>2021-11-22T15:57:48.856Z</time>
      </trkpt>
      <trkpt lat="47.550598" lon="7.775828">
        <ele>275.814957</ele>
        <time>2021-11-22T15:57:53.174Z</time>
      </trkpt>
      <trkpt lat="47.550607" lon="7.775871">
        <ele>275.800065</ele>
        <time>2021-11-22T15:57:53.597Z</time>
      </trkpt>
      <trkpt lat="47.550782" lon="7.776690">
        <ele>275.792859</ele>
        <time>2021-11-22T15:58:01.573Z</time>
      </trkpt>
      <trkpt lat="47.550963" lon="7.777797">
        <ele>275.967075</ele>
        <time>2021-11-22T15:58:13.659Z</time>
      </trkpt>
      <trkpt lat="47.550982" lon="7.777915">
        <ele>275.985629</ele>
        <time>2021-11-22T15:58:15.192Z</time>
      </trkpt>
      <trkpt lat="47.551085" lon="7.779125">
        <ele>276.206888</ele>
        <time>2021-11-22T15:58:29.632Z</time>
      </trkpt>
      <trkpt lat="47.551208" lon="7.780694">
        <ele>276.589995</ele>
        <time>2021-11-22T15:58:47.028Z</time>
      </trkpt>
      <trkpt lat="47.551270" lon="7.781390">
        <ele>276.760161</ele>
        <time>2021-11-22T15:58:54.382Z</time>
      </trkpt>
      <trkpt lat="47.551198" lon="7.781475">
        <ele>276.789773</ele>
        <time>2021-11-22T15:58:56.335Z</time>
      </trkpt>
      <trkpt lat="47.551230" lon="7.781831">
        <ele>276.867743</ele>
        <time>2021-11-22T15:59:00.022Z</time>
      </trkpt>
      <trkpt lat="47.551302" lon="7.782671">
        <ele>277.051572</ele>
        <time>2021-11-22T15:59:08.649Z</time>
      </trkpt>
      <trkpt lat="47.551381" lon="7.783632">
        <ele>277.261747</ele>
        <time>2021-11-22T15:59:19.206Z</time>
      </trkpt>
      <trkpt lat="47.551439" lon="7.784323">
        <ele>277.574962</ele>
        <time>2021-11-22T15:59:27.395Z</time>
      </trkpt>
      <trkpt lat="47.551437" lon="7.784657">
        <ele>277.803914</ele>
        <time>2021-11-22T15:59:31.750Z</time>
      </trkpt>
      <trkpt lat="47.551410" lon="7.784675">
        <ele>277.833984</ele>
        <time>2021-11-22T15:59:32.294Z</time>
      </trkpt>
      <trkpt lat="47.551373" lon="7.784740">
        <ele>277.892269</ele>
        <time>2021-11-22T15:59:33.295Z</time>
      </trkpt>
      <trkpt lat="47.551366" lon="7.784786">
        <ele>277.924592</ele>
        <time>2021-11-22T15:59:33.785Z</time>
      </trkpt>
      <trkpt lat="47.551371" lon="7.784835">
        <ele>277.958561</ele>
        <time>2021-11-22T15:59:34.397Z</time>
      </trkpt>
      <trkpt lat="47.551420" lon="7.784918">
        <ele>278.034148</ele>
        <time>2021-11-22T15:59:35.740Z</time>
      </trkpt>
      <trkpt lat="47.551452" lon="7.784931">
        <ele>278.067847</ele>
        <time>2021-11-22T15:59:36.364Z</time>
      </trkpt>
      <trkpt lat="47.551479" lon="7.784929">
        <ele>278.095302</ele>
        <time>2021-11-22T15:59:36.876Z</time>
      </trkpt>
      <trkpt lat="47.551498" lon="7.785081">
        <ele>278.201264</ele>
        <time>2021-11-22T15:59:39.059Z</time>
      </trkpt>
      <trkpt lat="47.551672" lon="7.787603">
        <ele>279.922485</ele>
        <time>2021-11-22T16:00:12.749Z</time>
      </trkpt>
      <trkpt lat="47.551690" lon="7.787827">
        <ele>280.073814</ele>
        <time>2021-11-22T16:00:15.597Z</time>
      </trkpt>
      <trkpt lat="47.551694" lon="7.787879">
        <ele>280.108924</ele>
        <time>2021-11-22T16:00:16.275Z</time>
      </trkpt>
      <trkpt lat="47.551712" lon="7.788013">
        <ele>280.200580</ele>
        <time>2021-11-22T16:00:18.079Z</time>
      </trkpt>
      <trkpt lat="47.551858" lon="7.788906">
        <ele>280.816966</ele>
        <time>2021-11-22T16:00:29.350Z</time>
      </trkpt>
      <trkpt lat="47.552036" lon="7.789826">
        <ele>281.306955</ele>
        <time>2021-11-22T16:00:40.605Z</time>
      </trkpt>
      <trkpt lat="47.552135" lon="7.790302">
        <ele>281.540834</ele>
        <time>2021-11-22T16:00:46.371Z</time>
      </trkpt>
      <trkpt lat="47.552201" lon="7.791031">
        <ele>281.886203</ele>
        <time>2021-11-22T16:00:54.975Z</time>
      </trkpt>
      <trkpt lat="47.552182" lon="7.792040">
        <ele>282.336523</ele>
        <time>2021-11-22T16:01:07.428Z</time>
      </trkpt>
      <trkpt lat="47.552180" lon="7.792294">
        <ele>282.437783</ele>
        <time>2021-11-22T16:01:10.501Z</time>
      </trkpt>
      <trkpt lat="47.552184" lon="7.792540">
        <ele>282.535876</ele>
        <time>2021-11-22T16:01:12.923Z</time>
      </trkpt>
      <trkpt lat="47.552198" lon="7.792976">
        <ele>282.709878</ele>
        <time>2021-11-22T16:01:17.232Z</time>
      </trkpt>
      <trkpt lat="47.552216" lon="7.793160">
        <ele>282.783994</ele>
        <time>2021-11-22T16:01:19.282Z</time>
      </trkpt>
      <trkpt lat="47.552233" lon="7.793294">
        <ele>282.838346</ele>
        <time>2021-11-22T16:01:21.002Z</time>
      </trkpt>
      <trkpt lat="47.552292" lon="7.793607">
        <ele>282.967894</ele>
        <time>2021-11-22T16:01:24.032Z</time>
      </trkpt>
      <trkpt lat="47.552369" lon="7.793872">
        <ele>283.082907</ele>
        <time>2021-11-22T16:01:27.772Z</time>
      </trkpt>
      <trkpt lat="47.552384" lon="7.793915">
        <ele>283.102202</ele>
        <time>2021-11-22T16:01:28.134Z</time>
      </trkpt>
      <trkpt lat="47.552494" lon="7.794200">
        <ele>283.233078</ele>
        <time>2021-11-22T16:01:32.311Z</time>
      </trkpt>
      <trkpt lat="47.552532" lon="7.794285">
        <ele>283.293902</ele>
        <time>2021-11-22T16:01:33.711Z</time>
      </trkpt>
      <trkpt lat="47.552644" lon="7.794507">
        <ele>283.692391</ele>
        <time>2021-11-22T16:01:37.411Z</time>
      </trkpt>
      <trkpt lat="47.552763" lon="7.794750">
        <ele>284.124034</ele>
        <time>2021-11-22T16:01:41.981Z</time>
      </trkpt>
      <trkpt lat="47.552786" lon="7.794796">
        <ele>284.206340</ele>
        <time>2021-11-22T16:01:42.501Z</time>
      </trkpt>
      <trkpt lat="47.552826" lon="7.794894">
        <ele>284.370997</ele>
        <time>2021-11-22T16:01:44.286Z</time>
      </trkpt>
      <trkpt lat="47.552837" lon="7.794925">
        <ele>284.421350</ele>
        <time>2021-11-22T16:01:44.813Z</time>
      </trkpt>
      <trkpt lat="47.552861" lon="7.794992">
        <ele>284.530403</ele>
        <time>2021-11-22T16:01:45.947Z</time>
      </trkpt>
      <trkpt lat="47.552892" lon="7.795106">
        <ele>284.707105</ele>
        <time>2021-11-22T16:01:48.024Z</time>
      </trkpt>
      <trkpt lat="47.552909" lon="7.795229">
        <ele>284.887613</ele>
        <time>2021-11-22T16:01:50.007Z</time>
      </trkpt>
      <trkpt lat="47.552917" lon="7.795354">
        <ele>285.068132</ele>
        <time>2021-11-22T16:01:51.622Z</time>
      </trkpt>
      <trkpt lat="47.552930" lon="7.795600">
        <ele>285.422889</ele>
        <time>2021-11-22T16:01:55.230Z</time>
      </trkpt>
      <trkpt lat="47.552930" lon="7.795600">
        <ele>285.422889</ele>
        <time>2021-11-22T16:01:55.233Z</time>
      </trkpt>
      <trkpt lat="47.552930" lon="7.795600">
        <ele>285.422889</ele>
        <time>2021-11-22T16:01:55.278Z</time>
      </trkpt>
      <trkpt lat="47.552886" lon="7.795976">
        <ele>285.971532</ele>
        <time>2021-11-22T16:02:00.818Z</time>
      </trkpt>
      <trkpt lat="47.552817" lon="7.796239">
        <ele>286.377212</ele>
        <time>2021-11-22T16:02:05.738Z</time>
      </trkpt>
      <trkpt lat="47.552762" lon="7.796425">
        <ele>286.669166</ele>
        <time>2021-11-22T16:02:09.262Z</time>
      </trkpt>
      <trkpt lat="47.552493" lon="7.797048">
        <ele>288.280564</ele>
        <time>2021-11-22T16:02:23.897Z</time>
      </trkpt>
      <trkpt lat="47.552152" lon="7.797876">
        <ele>290.878817</ele>
        <time>2021-11-22T16:02:45.960Z</time>
      </trkpt>
      <trkpt lat="47.552084" lon="7.798083">
        <ele>291.495496</ele>
        <time>2021-11-22T16:02:51.500Z</time>
      </trkpt>
      <trkpt lat="47.551948" lon="7.798607">
        <ele>292.999335</ele>
        <time>2021-11-22T16:03:03.230Z</time>
      </trkpt>
      <trkpt lat="47.551805" lon="7.799326">
        <ele>294.656477</ele>
        <time>2021-11-22T16:03:17.155Z</time>
      </trkpt>
      <trkpt lat="47.551793" lon="7.799434">
        <ele>294.816316</ele>
        <time>2021-11-22T16:03:19.414Z</time>
      </trkpt>
      <trkpt lat="47.551754" lon="7.799766">
        <ele>295.308437</ele>
        <time>2021-11-22T16:03:25.774Z</time>
      </trkpt>
      <trkpt lat="47.551712" lon="7.800249">
        <ele>296.019612</ele>
        <time>2021-11-22T16:03:34.685Z</time>
      </trkpt>
      <trkpt lat="47.551704" lon="7.800451">
        <ele>296.315108</ele>
        <time>2021-11-22T16:03:37.907Z</time>
      </trkpt>
      <trkpt lat="47.551700" lon="7.800547">
        <ele>296.455568</ele>
        <time>2021-11-22T16:03:38.993Z</time>
      </trkpt>
      <trkpt lat="47.551672" lon="7.801147">
        <ele>297.333865</ele>
        <time>2021-11-22T16:03:46.865Z</time>
      </trkpt>
      <trkpt lat="47.551669" lon="7.801438">
        <ele>297.758874</ele>
        <time>2021-11-22T16:03:51.495Z</time>
      </trkpt>
      <trkpt lat="47.551666" lon="7.801632">
        <ele>298.042255</ele>
        <time>2021-11-22T16:03:53.440Z</time>
      </trkpt>
      <trkpt lat="47.551669" lon="7.801853">
        <ele>298.226978</ele>
        <time>2021-11-22T16:03:56.745Z</time>
      </trkpt>
      <trkpt lat="47.551671" lon="7.802077">
        <ele>298.363699</ele>
        <time>2021-11-22T16:03:59.070Z</time>
      </trkpt>
      <trkpt lat="47.551679" lon="7.802228">
        <ele>298.456139</ele>
        <time>2021-11-22T16:04:00.182Z</time>
      </trkpt>
      <trkpt lat="47.551688" lon="7.802394">
        <ele>298.557776</ele>
        <time>2021-11-22T16:04:03.168Z</time>
      </trkpt>
      <trkpt lat="47.551700" lon="7.802648">
        <ele>298.713174</ele>
        <time>2021-11-22T16:04:05.429Z</time>
      </trkpt>
      <trkpt lat="47.551732" lon="7.803125">
        <ele>299.005725</ele>
        <time>2021-11-22T16:04:11.645Z</time>
      </trkpt>
      <trkpt lat="47.551744" lon="7.803277">
        <ele>299.099125</ele>
        <time>2021-11-22T16:04:12.862Z</time>
      </trkpt>
      <trkpt lat="47.551751" lon="7.803369">
        <ele>299.155628</ele>
        <time>2021-11-22T16:04:14.537Z</time>
      </trkpt>
      <trkpt lat="47.551692" lon="7.803510">
        <ele>299.256878</ele>
        <time>2021-11-22T16:04:18.124Z</time>
      </trkpt>
      <trkpt lat="47.551741" lon="7.804294">
        <ele>299.737407</ele>
        <time>2021-11-22T16:04:30.722Z</time>
      </trkpt>
      <trkpt lat="47.551744" lon="7.804473">
        <ele>299.827860</ele>
        <time>2021-11-22T16:04:33.757Z</time>
      </trkpt>
      <trkpt lat="47.551731" lon="7.804667">
        <ele>299.922602</ele>
        <time>2021-11-22T16:04:37.858Z</time>
      </trkpt>
      <trkpt lat="47.551709" lon="7.805000">
        <ele>300.085203</ele>
        <time>2021-11-22T16:04:42.398Z</time>
      </trkpt>
      <trkpt lat="47.551681" lon="7.805477">
        <ele>300.317885</ele>
        <time>2021-11-22T16:04:50.144Z</time>
      </trkpt>
      <trkpt lat="47.551671" lon="7.806117">
        <ele>300.628988</ele>
        <time>2021-11-22T16:05:00.233Z</time>
      </trkpt>
      <trkpt lat="47.551651" lon="7.806246">
        <ele>300.693311</ele>
        <time>2021-11-22T16:05:03.136Z</time>
      </trkpt>
      <trkpt lat="47.551895" lon="7.806278">
        <ele>300.869686</ele>
        <time>2021-11-22T16:05:06.662Z</time>
      </trkpt>
      <trkpt lat="47.552015" lon="7.806307">
        <ele>300.957232</ele>
        <time>2021-11-22T16:05:09.532Z</time>
      </trkpt>
      <trkpt lat="47.552068" lon="7.806445">
        <ele>301.034393</ele>
        <time>2021-11-22T16:05:10.989Z</time>
      </trkpt>
      <trkpt lat="47.552398" lon="7.808880">
        <ele>300.397622</ele>
        <time>2021-11-22T16:05:33.132Z</time>
      </trkpt>
      <trkpt lat="47.552566" lon="7.810386">
        <ele>299.740781</ele>
        <time>2021-11-22T16:05:46.143Z</time>
      </trkpt>
      <trkpt lat="47.552711" lon="7.812955">
        <ele>298.597338</ele>
        <time>2021-11-22T16:06:08.751Z</time>
      </trkpt>
      <trkpt lat="47.552844" lon="7.816432">
        <ele>297.430101</ele>
        <time>2021-11-22T16:06:39.244Z</time>
      </trkpt>
      <trkpt lat="47.552948" lon="7.819358">
        <ele>297.769966</ele>
        <time>2021-11-22T16:07:10.474Z</time>
      </trkpt>
      <trkpt lat="47.552896" lon="7.820699">
        <ele>298.339329</ele>
        <time>2021-11-22T16:07:26.558Z</time>
      </trkpt>
      <trkpt lat="47.552567" lon="7.824508">
        <ele>300.240249</ele>
        <time>2021-11-22T16:08:13.043Z</time>
      </trkpt>
      <trkpt lat="47.552491" lon="7.827227">
        <ele>301.646048</ele>
        <time>2021-11-22T16:08:44.783Z</time>
      </trkpt>
      <trkpt lat="47.552515" lon="7.828094">
        <ele>302.404207</ele>
        <time>2021-11-22T16:08:56.493Z</time>
      </trkpt>
      <trkpt lat="47.552477" lon="7.828294">
        <ele>302.662911</ele>
        <time>2021-11-22T16:08:59.110Z</time>
      </trkpt>
      <trkpt lat="47.552421" lon="7.828481">
        <ele>302.917640</ele>
        <time>2021-11-22T16:09:02.041Z</time>
      </trkpt>
      <trkpt lat="47.552404" lon="7.828582">
        <ele>303.047249</ele>
        <time>2021-11-22T16:09:03.725Z</time>
      </trkpt>
      <trkpt lat="47.552416" lon="7.828822">
        <ele>303.346898</ele>
        <time>2021-11-22T16:09:06.959Z</time>
      </trkpt>
      <trkpt lat="47.552554" lon="7.829266">
        <ele>303.955537</ele>
        <time>2021-11-22T16:09:14.311Z</time>
      </trkpt>
      <trkpt lat="47.552645" lon="7.830686">
        <ele>306.048695</ele>
        <time>2021-11-22T16:09:37.617Z</time>
      </trkpt>
      <trkpt lat="47.552690" lon="7.832598">
        <ele>309.843587</ele>
        <time>2021-11-22T16:10:13.094Z</time>
      </trkpt>
      <trkpt lat="47.552616" lon="7.832891">
        <ele>310.464133</ele>
        <time>2021-11-22T16:10:18.458Z</time>
      </trkpt>
      <trkpt lat="47.552556" lon="7.832977">
        <ele>310.683449</ele>
        <time>2021-11-22T16:10:21.189Z</time>
      </trkpt>
      <trkpt lat="47.552511" lon="7.833072">
        <ele>310.887199</ele>
        <time>2021-11-22T16:10:23.215Z</time>
      </trkpt>
      <trkpt lat="47.552467" lon="7.833198">
        <ele>311.136249</ele>
        <time>2021-11-22T16:10:25.617Z</time>
      </trkpt>
      <trkpt lat="47.552452" lon="7.833284">
        <ele>311.292183</ele>
        <time>2021-11-22T16:10:27.227Z</time>
      </trkpt>
      <trkpt lat="47.552696" lon="7.833789">
        <ele>312.382481</ele>
        <time>2021-11-22T16:10:38.259Z</time>
      </trkpt>
      <trkpt lat="47.552700" lon="7.833938">
        <ele>312.644259</ele>
        <time>2021-11-22T16:10:41.203Z</time>
      </trkpt>
      <trkpt lat="47.552714" lon="7.835010">
        <ele>314.526519</ele>
        <time>2021-11-22T16:10:59.680Z</time>
      </trkpt>
      <trkpt lat="47.552719" lon="7.836790">
        <ele>316.669180</ele>
        <time>2021-11-22T16:11:24.964Z</time>
      </trkpt>
      <trkpt lat="47.552697" lon="7.838068">
        <ele>318.028050</ele>
        <time>2021-11-22T16:11:42.606Z</time>
      </trkpt>
      <trkpt lat="47.552736" lon="7.838578">
        <ele>318.571998</ele>
        <time>2021-11-22T16:11:49.733Z</time>
      </trkpt>
      <trkpt lat="47.552802" lon="7.839009">
        <ele>319.040374</ele>
        <time>2021-11-22T16:11:55.951Z</time>
      </trkpt>
      <trkpt lat="47.552939" lon="7.839526">
        <ele>319.629000</ele>
        <time>2021-11-22T16:12:03.741Z</time>
      </trkpt>
      <trkpt lat="47.553231" lon="7.841529">
        <ele>321.683478</ele>
        <time>2021-11-22T16:12:33.871Z</time>
      </trkpt>
      <trkpt lat="47.553216" lon="7.841849">
        <ele>321.982845</ele>
        <time>2021-11-22T16:12:38.395Z</time>
      </trkpt>
      <trkpt lat="47.553123" lon="7.842222">
        <ele>322.353951</ele>
        <time>2021-11-22T16:12:43.625Z</time>
      </trkpt>
      <trkpt lat="47.553133" lon="7.842431">
        <ele>322.549494</ele>
        <time>2021-11-22T16:12:46.754Z</time>
      </trkpt>
      <trkpt lat="47.552833" lon="7.842495">
        <ele>322.968618</ele>
        <time>2021-11-22T16:12:54.061Z</time>
      </trkpt>
      <trkpt lat="47.552380" lon="7.842592">
        <ele>323.468073</ele>
        <time>2021-11-22T16:13:05.085Z</time>
      </trkpt>
      <trkpt lat="47.551922" lon="7.842704">
        <ele>323.820123</ele>
        <time>2021-11-22T16:13:15.602Z</time>
      </trkpt>
      <trkpt lat="47.551668" lon="7.842770">
        <ele>324.015698</ele>
        <time>2021-11-22T16:13:21.574Z</time>
      </trkpt>
      <trkpt lat="47.551454" lon="7.842815">
        <ele>324.179623</ele>
        <time>2021-11-22T16:13:26.254Z</time>
      </trkpt>
      <trkpt lat="47.551366" lon="7.844273">
        <ele>325.077856</ele>
        <time>2021-11-22T16:13:44.132Z</time>
      </trkpt>
      <trkpt lat="47.551344" lon="7.844621">
        <ele>325.359719</ele>
        <time>2021-11-22T16:13:48.775Z</time>
      </trkpt>
      <trkpt lat="47.551205" lon="7.846694">
        <ele>327.108015</ele>
        <time>2021-11-22T16:14:16.820Z</time>
      </trkpt>
      <trkpt lat="47.551184" lon="7.847206">
        <ele>327.649872</ele>
        <time>2021-11-22T16:14:24.211Z</time>
      </trkpt>
      <trkpt lat="47.551196" lon="7.847517">
        <ele>327.978938</ele>
        <time>2021-11-22T16:14:28.775Z</time>
      </trkpt>
      <trkpt lat="47.551669" lon="7.848083">
        <ele>328.930541</ele>
        <time>2021-11-22T16:14:41.860Z</time>
      </trkpt>
      <trkpt lat="47.551242" lon="7.848702">
        <ele>329.833044</ele>
        <time>2021-11-22T16:14:54.444Z</time>
      </trkpt>
      <trkpt lat="47.550975" lon="7.849066">
        <ele>330.321143</ele>
        <time>2021-11-22T16:15:01.760Z</time>
      </trkpt>
      <trkpt lat="47.550810" lon="7.849346">
        <ele>330.658636</ele>
        <time>2021-11-22T16:15:08.153Z</time>
      </trkpt>
      <trkpt lat="47.550488" lon="7.850081">
        <ele>331.454249</ele>
        <time>2021-11-22T16:15:23.619Z</time>
      </trkpt>
      <trkpt lat="47.550333" lon="7.850434">
        <ele>331.836619</ele>
        <time>2021-11-22T16:15:30.949Z</time>
      </trkpt>
      <trkpt lat="47.550009" lon="7.851173">
        <ele>332.185497</ele>
        <time>2021-11-22T16:15:45.579Z</time>
      </trkpt>
      <trkpt lat="47.549652" lon="7.851969">
        <ele>332.381424</ele>
        <time>2021-11-22T16:15:59.466Z</time>
      </trkpt>
      <trkpt lat="47.549535" lon="7.852225">
        <ele>332.444806</ele>
        <time>2021-11-22T16:16:03.497Z</time>
      </trkpt>
      <trkpt lat="47.549449" lon="7.852418">
        <ele>332.492217</ele>
        <time>2021-11-22T16:16:06.425Z</time>
      </trkpt>
      <trkpt lat="47.549285" lon="7.852784">
        <ele>332.582280</ele>
        <time>2021-11-22T16:16:12.144Z</time>
      </trkpt>
      <trkpt lat="47.549708" lon="7.853279">
        <ele>332.365944</ele>
        <time>2021-11-22T16:16:22.544Z</time>
      </trkpt>
      <trkpt lat="47.550221" lon="7.853833">
        <ele>332.056109</ele>
        <time>2021-11-22T16:16:34.476Z</time>
      </trkpt>
      <trkpt lat="47.549883" lon="7.854434">
        <ele>331.798404</ele>
        <time>2021-11-22T16:16:41.133Z</time>
      </trkpt>
      <trkpt lat="47.549566" lon="7.855225">
        <ele>331.538937</ele>
        <time>2021-11-22T16:16:52.277Z</time>
      </trkpt>
      <trkpt lat="47.549362" lon="7.855774">
        <ele>331.372124</ele>
        <time>2021-11-22T16:17:00.200Z</time>
      </trkpt>
      <trkpt lat="47.548887" lon="7.857308">
        <ele>331.105678</ele>
        <time>2021-11-22T16:17:22.308Z</time>
      </trkpt>
      <trkpt lat="47.548743" lon="7.857692">
        <ele>331.225880</ele>
        <time>2021-11-22T16:17:28.280Z</time>
      </trkpt>
      <trkpt lat="47.548701" lon="7.857893">
        <ele>331.283455</ele>
        <time>2021-11-22T16:17:31.251Z</time>
      </trkpt>
      <trkpt lat="47.548686" lon="7.857973">
        <ele>331.306174</ele>
        <time>2021-11-22T16:17:32.374Z</time>
      </trkpt>
      <trkpt lat="47.548611" lon="7.858381">
        <ele>331.421882</ele>
        <time>2021-11-22T16:17:38.588Z</time>
      </trkpt>
      <trkpt lat="47.548334" lon="7.859801">
        <ele>332.045178</ele>
        <time>2021-11-22T16:18:01.626Z</time>
      </trkpt>
      <trkpt lat="47.548049" lon="7.860929">
        <ele>333.231842</ele>
        <time>2021-11-22T16:18:22.644Z</time>
      </trkpt>
      <trkpt lat="47.547930" lon="7.861711">
        <ele>334.021642</ele>
        <time>2021-11-22T16:18:37.408Z</time>
      </trkpt>
      <trkpt lat="47.547568" lon="7.863151">
        <ele>335.404637</ele>
        <time>2021-11-22T16:19:06.536Z</time>
      </trkpt>
      <trkpt lat="47.547320" lon="7.863864">
        <ele>336.106293</ele>
        <time>2021-11-22T16:19:20.476Z</time>
      </trkpt>
      <trkpt lat="47.546974" lon="7.864423">
        <ele>336.698680</ele>
        <time>2021-11-22T16:19:31.299Z</time>
      </trkpt>
      <trkpt lat="47.546885" lon="7.864500">
        <ele>336.698680</ele>
        <time>2021-11-22T16:19:34.383Z</time>
      </trkpt>
      <trkpt lat="47.546894" lon="7.864837">
        <ele>336.698680</ele>
        <time>2021-11-22T16:19:38.269Z</time>
      </trkpt>
      <trkpt lat="47.546889" lon="7.865225">
        <ele>336.698680</ele>
        <time>2021-11-22T16:19:43.700Z</time>
      </trkpt>
      <trkpt lat="47.546819" lon="7.865489">
        <ele>336.698680</ele>
        <time>2021-11-22T16:19:47.650Z</time>
      </trkpt>
      <trkpt lat="47.546510" lon="7.865766">
        <ele>336.698680</ele>
        <time>2021-11-22T16:19:54.287Z</time>
      </trkpt>
      <trkpt lat="47.546327" lon="7.865959">
        <ele>336.698680</ele>
        <time>2021-11-22T16:19:57.896Z</time>
      </trkpt>
      <trkpt lat="47.546096" lon="7.866147">
        <ele>336.698680</ele>
        <time>2021-11-22T16:20:02.683Z</time>
      </trkpt>
      <trkpt lat="47.545407" lon="7.866743">
        <ele>336.698680</ele>
        <time>2021-11-22T16:20:16.310Z</time>
      </trkpt>
      <trkpt lat="47.545240" lon="7.866887">
        <ele>336.698680</ele>
        <time>2021-11-22T16:20:19.981Z</time>
      </trkpt>
      <trkpt lat="47.545235" lon="7.866893">
        <ele>336.698680</ele>
        <time>2021-11-22T16:20:20.070Z</time>
      </trkpt>
    </trkseg>
  </trk>
</gpx>